BA266 / G-ZBJB 7700 Squawk Report (24th of September, 2022)

Aircraft B788 Reg No. G-ZBJB Age 9 years old
Model 787 Jet engines 2 First flight 08-06-13
Registered 25-06-13 Rollout N/A Delivered 26-06-13
Construction No. 38610 Line No. 0111 Series 8
ADSHEX 40688F Airline name British Airways Owner N/A
Airfield based Heathrow~Gtr London~G First tracked N/A

Flight history for G-ZBJB

Time Lat Lon Altitude Heading Speed Vertical Rate
2022-09-24 11:40:47 GMT 51.471428 -0.475196 0 270 0 0
2022-09-24 11:40:25 GMT 51.471436 -0.475197 0 270 2 0
2022-09-24 11:40:21 GMT 51.471436 -0.475140 0 270 2 0
2022-09-24 11:40:20 GMT 51.471439 -0.475122 0 270 2 0
2022-09-24 11:40:19 GMT 51.471439 -0.474992 0 270 5 0
2022-09-24 11:40:14 GMT 51.471439 -0.474992 0 270 5 0
2022-09-24 11:40:13 GMT 51.471436 -0.474930 0 270 5 0
2022-09-24 11:40:11 GMT 51.471439 -0.474880 0 270 5 0
2022-09-24 11:40:10 GMT 51.471436 -0.474834 0 270 5 0
2022-09-24 11:40:09 GMT 51.471439 -0.474806 0 270 6 0
2022-09-24 11:40:06 GMT 51.471436 -0.474663 0 270 6 0
2022-09-24 11:40:04 GMT 51.471436 -0.474586 0 270 6 0
2022-09-24 11:40:02 GMT 51.471439 -0.474491 0 270 6 0
2022-09-24 11:39:58 GMT 51.471447 -0.474339 0 270 6 0
2022-09-24 11:39:53 GMT 51.471462 -0.474082 0 275 6 0
2022-09-24 11:39:50 GMT 51.471462 -0.474045 0 281 6 0
2022-09-24 11:39:46 GMT 51.471474 -0.473897 0 295 5 0
2022-09-24 11:39:44 GMT 51.471481 -0.473804 0 306 6 0
2022-09-24 11:39:42 GMT 51.471481 -0.473766 0 315 6 0
2022-09-24 11:39:41 GMT 51.471474 -0.473711 0 320 6 0
2022-09-24 11:39:39 GMT 51.471447 -0.473633 0 337 7 0
2022-09-24 11:39:38 GMT 51.471439 -0.473581 0 345 7 0
2022-09-24 11:39:34 GMT 51.471336 -0.473507 0 2 7 0
2022-09-24 11:39:32 GMT 51.471272 -0.473499 0 2 9 0
2022-09-24 11:39:31 GMT 51.471237 -0.473499 0 2 9 0
2022-09-24 11:39:29 GMT 51.471123 -0.473499 0 2 11 0
2022-09-24 11:39:27 GMT 51.470970 -0.473499 0 2 12 0
2022-09-24 11:39:25 GMT 51.470970 -0.473499 0 0 14 0
2022-09-24 11:39:23 GMT 51.470833 -0.473507 0 0 14 0
2022-09-24 11:39:18 GMT 51.470390 -0.473499 0 0 14 0
2022-09-24 11:39:13 GMT 51.470062 -0.473480 0 0 14 0
2022-09-24 11:39:11 GMT 51.470062 -0.473480 0 0 14 0
2022-09-24 11:39:09 GMT 51.469929 -0.473488 0 0 14 0
2022-09-24 11:39:08 GMT 51.469875 -0.473480 0 0 14 0
2022-09-24 11:39:06 GMT 51.469780 -0.473488 0 2 13 0
2022-09-24 11:39:04 GMT 51.469654 -0.473488 0 2 13 0
2022-09-24 11:39:02 GMT 51.469482 -0.473488 0 0 13 0
2022-09-24 11:39:00 GMT 51.469387 -0.473480 0 2 13 0
2022-09-24 11:38:58 GMT 51.469212 -0.473480 0 2 12 0
2022-09-24 11:38:56 GMT 51.469212 -0.473480 0 2 12 0
2022-09-24 11:38:53 GMT 51.469051 -0.473480 0 2 12 0
2022-09-24 11:38:51 GMT 51.468899 -0.473480 0 2 12 0
2022-09-24 11:38:49 GMT 51.468796 -0.473480 0 2 11 0
2022-09-24 11:38:47 GMT 51.468693 -0.473470 0 2 11 0
2022-09-24 11:38:45 GMT 51.468613 -0.473470 0 2 11 0
2022-09-24 11:38:43 GMT 51.468498 -0.473470 0 0 11 0
2022-09-24 11:38:42 GMT 51.468445 -0.473480 0 0 11 0
2022-09-24 11:38:39 GMT 51.468315 -0.473470 0 0 11 0
2022-09-24 11:38:38 GMT 51.468258 -0.473470 0 0 11 0
2022-09-24 11:38:35 GMT 51.468132 -0.473470 0 0 11 0
2022-09-24 11:38:33 GMT 51.468018 -0.473470 0 0 11 0
2022-09-24 11:38:31 GMT 51.467937 -0.473470 0 0 11 0
2022-09-24 11:38:30 GMT 51.467869 -0.473470 0 2 11 0
2022-09-24 11:38:29 GMT 51.467834 -0.473470 0 2 11 0
2022-09-24 11:38:28 GMT 51.467789 -0.473470 0 2 11 0
2022-09-24 11:38:25 GMT 51.467663 -0.473470 0 2 12 0
2022-09-24 11:38:24 GMT 51.467606 -0.473461 0 2 12 0
2022-09-24 11:38:22 GMT 51.467503 -0.473461 0 2 12 0
2022-09-24 11:38:21 GMT 51.467407 -0.473461 0 2 11 0
2022-09-24 11:38:20 GMT 51.467354 -0.473470 0 2 11 0
2022-09-24 11:38:18 GMT 51.467205 -0.473470 0 2 11 0
2022-09-24 11:38:15 GMT 51.467129 -0.473480 0 0 10 0
2022-09-24 11:38:14 GMT 51.467083 -0.473480 0 357 10 0
2022-09-24 11:38:10 GMT 51.466908 -0.473499 0 348 9 0
2022-09-24 11:38:09 GMT 51.466873 -0.473488 0 343 9 0
2022-09-24 11:38:08 GMT 51.466770 -0.473470 0 323 8 0
2022-09-24 11:38:04 GMT 51.466698 -0.473442 0 309 8 0
2022-09-24 11:38:03 GMT 51.466663 -0.473423 0 303 7 0
2022-09-24 11:38:01 GMT 51.466610 -0.473359 0 289 8 0
2022-09-24 11:37:59 GMT 51.466587 -0.473321 0 284 8 0
2022-09-24 11:37:58 GMT 51.466564 -0.473229 0 275 8 0
2022-09-24 11:37:53 GMT 51.466553 -0.472969 0 272 10 0
2022-09-24 11:37:51 GMT 51.466549 -0.472889 0 272 10 0
2022-09-24 11:37:49 GMT 51.466553 -0.472709 0 270 11 0
2022-09-24 11:37:47 GMT 51.466560 -0.472527 0 270 12 0
2022-09-24 11:37:45 GMT 51.466560 -0.472355 0 272 13 0
2022-09-24 11:37:44 GMT 51.466553 -0.472208 0 272 14 0
2022-09-24 11:37:42 GMT 51.466553 -0.472022 0 272 15 0
2022-09-24 11:37:40 GMT 51.466560 -0.471840 0 272 15 0
2022-09-24 11:37:38 GMT 51.466553 -0.471596 0 270 15 0
2022-09-24 11:37:35 GMT 51.466560 -0.471287 0 270 14 0
2022-09-24 11:37:31 GMT 51.466564 -0.470853 0 272 14 0
2022-09-24 11:37:28 GMT 51.466560 -0.470600 0 270 13 0
2022-09-24 11:37:27 GMT 51.466564 -0.470464 0 270 13 0
2022-09-24 11:37:25 GMT 51.466564 -0.470334 0 270 13 0
2022-09-24 11:37:24 GMT 51.466572 -0.470200 0 270 12 0
2022-09-24 11:37:22 GMT 51.466564 -0.469981 0 270 12 0
2022-09-24 11:37:20 GMT 51.466576 -0.469888 0 270 12 0
2022-09-24 11:37:17 GMT 51.466576 -0.469628 0 270 11 0
2022-09-24 11:37:15 GMT 51.466587 -0.469406 0 275 11 0
2022-09-24 11:37:11 GMT 51.466595 -0.469227 0 289 11 0
2022-09-24 11:37:10 GMT 51.466587 -0.469109 0 298 10 0
2022-09-24 11:37:06 GMT 51.466518 -0.468793 0 331 10 0
2022-09-24 11:37:03 GMT 51.466373 -0.468616 0 354 9 0
2022-09-24 11:36:53 GMT 51.466038 -0.468571 0 343 11 0
2022-09-24 11:36:49 GMT 51.465721 -0.468330 0 298 11 0
2022-09-24 11:36:46 GMT 51.465721 -0.468330 0 298 11 0
2022-09-24 11:36:44 GMT 51.465672 -0.468199 0 298 12 0
2022-09-24 11:36:39 GMT 51.465523 -0.467680 0 295 20 0
2022-09-24 11:36:32 GMT 51.465237 -0.466585 0 289 29 0
2022-09-24 11:36:30 GMT 51.465145 -0.466140 0 289 30 0
2022-09-24 11:36:17 GMT 51.464863 -0.463219 0 272 45 0
2022-09-24 11:36:15 GMT 51.464859 -0.462391 0 270 50 0
2022-09-24 11:36:04 GMT 51.464893 -0.457516 0 272 76 0
2022-09-24 11:36:00 GMT 51.464905 -0.454448 0 272 94 0
2022-09-24 11:35:58 GMT 51.464905 -0.453334 -25 272 98 0
2022-09-24 11:35:52 GMT 51.464905 -0.448806 -25 270 122 -64
2022-09-24 11:35:50 GMT 51.464905 -0.447544 -25 270 122 -64
2022-09-24 11:35:48 GMT 51.464905 -0.445689 -50 270 125 -64
2022-09-24 11:35:46 GMT 51.464943 -0.443192 -50 270 141 0
2022-09-24 11:35:43 GMT 51.464943 -0.440063 -50 270 146 -704
2022-09-24 11:35:39 GMT 51.464943 -0.435715 0 270 146 -704
2022-09-24 11:35:37 GMT 51.464951 -0.431956 100 270 145 -832
2022-09-24 11:35:35 GMT 51.464951 -0.431956 100 270 145 -832
2022-09-24 11:35:32 GMT 51.464943 -0.427551 100 270 146 -832
2022-09-24 11:35:29 GMT 51.464951 -0.425498 150 270 146 -704
2022-09-24 11:35:27 GMT 51.464996 -0.423790 150 270 146 -704
2022-09-24 11:35:26 GMT 51.464996 -0.421192 175 270 147 -768
2022-09-24 11:35:24 GMT 51.464996 -0.420079 250 270 147 -832
2022-09-24 11:35:22 GMT 51.464989 -0.417786 250 270 147 -832
2022-09-24 11:35:20 GMT 51.464996 -0.415105 250 270 147 -704
2022-09-24 11:35:18 GMT 51.464989 -0.413437 250 270 148 -832
2022-09-24 11:35:16 GMT 51.464996 -0.411393 275 270 148 -960
2022-09-24 11:35:15 GMT 51.464989 -0.408630 300 270 148 -960
2022-09-24 11:35:14 GMT 51.464989 -0.408630 325 270 148 -768
2022-09-24 11:35:12 GMT 51.465034 -0.405350 350 270 149 -832
2022-09-24 11:35:11 GMT 51.465034 -0.405350 400 270 149 -960
2022-09-24 11:35:09 GMT 51.465042 -0.401966 400 270 149 -960
2022-09-24 11:35:06 GMT 51.465034 -0.399857 450 270 150 -896
2022-09-24 11:35:04 GMT 51.465042 -0.398626 450 270 150 -768
2022-09-24 11:35:03 GMT 51.465080 -0.396957 475 270 150 -768
2022-09-24 11:35:02 GMT 51.465080 -0.395660 500 270 149 -896
2022-09-24 11:35:01 GMT 51.465088 -0.394394 500 270 149 -768
2022-09-24 11:34:59 GMT 51.465080 -0.392303 525 270 149 -704
2022-09-24 11:34:58 GMT 51.465088 -0.390015 550 270 148 -704
2022-09-24 11:34:56 GMT 51.465088 -0.388901 550 270 147 -832
2022-09-24 11:34:55 GMT 51.465080 -0.387726 575 270 147 -832
2022-09-24 11:34:54 GMT 51.465080 -0.386581 575 270 147 -832
2022-09-24 11:34:52 GMT 51.465088 -0.384521 625 270 147 -768
2022-09-24 11:34:51 GMT 51.465088 -0.383482 625 270 146 -768
2022-09-24 11:34:49 GMT 51.465088 -0.381330 650 270 145 -768
2022-09-24 11:34:48 GMT 51.465088 -0.379177 675 270 143 -768
2022-09-24 11:34:46 GMT 51.465088 -0.378063 675 270 143 -832
2022-09-24 11:34:45 GMT 51.465088 -0.377024 700 270 144 -832
2022-09-24 11:34:44 GMT 51.465088 -0.374871 725 270 144 -896
2022-09-24 11:34:41 GMT 51.465088 -0.372793 750 270 145 -896
2022-09-24 11:34:40 GMT 51.465088 -0.371679 775 270 145 -832
2022-09-24 11:34:39 GMT 51.465130 -0.370483 775 270 146 -832
2022-09-24 11:34:37 GMT 51.465134 -0.368042 800 270 146 -832
2022-09-24 11:34:36 GMT 51.465134 -0.367151 825 270 147 -768
2022-09-24 11:34:35 GMT 51.465130 -0.365067 850 270 147 -640
2022-09-24 11:34:32 GMT 51.465134 -0.360619 875 270 147 -704
2022-09-24 11:34:30 GMT 51.465134 -0.360619 900 270 147 -832
2022-09-24 11:34:29 GMT 51.465134 -0.359580 900 270 148 -832
2022-09-24 11:34:26 GMT 51.465130 -0.357285 950 270 148 -768
2022-09-24 11:34:25 GMT 51.465134 -0.356016 950 270 148 -768
2022-09-24 11:34:23 GMT 51.465134 -0.354086 950 270 148 -768
2022-09-24 11:34:22 GMT 51.465134 -0.352973 1,000 270 148 -832
2022-09-24 11:34:20 GMT 51.465134 -0.350746 1,000 270 149 -896
2022-09-24 11:34:17 GMT 51.465179 -0.347257 1,050 270 150 -1024
2022-09-24 11:34:16 GMT 51.465179 -0.346144 1,100 270 151 -896
2022-09-24 11:34:15 GMT 51.465176 -0.345078 1,100 270 151 -768
2022-09-24 11:34:13 GMT 51.465176 -0.342636 1,125 270 151 -768
2022-09-24 11:34:12 GMT 51.465179 -0.341393 1,150 270 151 -768
2022-09-24 11:34:11 GMT 51.465176 -0.339050 1,150 270 152 -768
2022-09-24 11:34:08 GMT 51.465176 -0.335922 1,200 270 152 -832
2022-09-24 11:34:06 GMT 51.465179 -0.334935 1,225 270 153 -896
2022-09-24 11:34:04 GMT 51.465221 -0.332718 1,250 270 154 -768
2022-09-24 11:34:02 GMT 51.465221 -0.330200 1,250 270 156 -704
2022-09-24 11:34:00 GMT 51.465225 -0.328031 1,275 270 156 -768
2022-09-24 11:33:59 GMT 51.465221 -0.326767 1,300 270 158 -832
2022-09-24 11:33:58 GMT 51.465225 -0.325507 1,300 270 159 -896
2022-09-24 11:33:56 GMT 51.465221 -0.323029 1,325 270 160 -896
2022-09-24 11:33:55 GMT 51.465221 -0.321884 1,350 270 160 -960
2022-09-24 11:33:54 GMT 51.465225 -0.319569 1,375 270 161 -896
2022-09-24 11:33:51 GMT 51.465225 -0.314298 1,425 270 163 -1024
2022-09-24 11:33:49 GMT 51.465225 -0.314298 1,450 270 163 -1216
2022-09-24 11:33:46 GMT 51.465271 -0.310661 1,525 270 165 -896
2022-09-24 11:33:42 GMT 51.465271 -0.303089 1,600 270 165 -832
2022-09-24 11:33:40 GMT 51.465271 -0.303089 1,600 270 165 -832
2022-09-24 11:33:37 GMT 51.465271 -0.300639 1,625 270 165 -896
2022-09-24 11:33:36 GMT 51.465267 -0.294418 1,675 270 165 -832
2022-09-24 11:33:33 GMT 51.465267 -0.294418 1,700 270 165 -896
2022-09-24 11:33:31 GMT 51.465267 -0.291977 1,725 270 165 -960
2022-09-24 11:33:29 GMT 51.465267 -0.288849 1,750 270 166 -896
2022-09-24 11:33:26 GMT 51.465271 -0.286016 1,775 270 166 -832
2022-09-24 11:33:24 GMT 51.465267 -0.284424 1,800 270 166 -896
2022-09-24 11:33:23 GMT 51.465271 -0.282304 1,825 270 166 -896
2022-09-24 11:33:20 GMT 51.465317 -0.279335 1,875 270 166 -896
2022-09-24 11:33:19 GMT 51.465317 -0.277924 1,875 270 166 -1088
2022-09-24 11:33:17 GMT 51.465317 -0.275401 1,925 270 167 -1024
2022-09-24 11:33:16 GMT 51.465317 -0.274436 2,050 270 167 -960
2022-09-24 11:33:13 GMT 51.465317 -0.269982 2,100 270 167 -1216
2022-09-24 11:33:10 GMT 51.465363 -0.266790 2,050 270 168 -1024
2022-09-24 11:33:07 GMT 51.465363 -0.263820 2,200 270 169 -896
2022-09-24 11:33:04 GMT 51.465363 -0.258550 2,150 271 169 -960
2022-09-24 11:33:01 GMT 51.465363 -0.256323 2,200 271 170 -704
2022-09-24 11:32:59 GMT 51.465363 -0.253799 2,200 271 171 -832
2022-09-24 11:32:57 GMT 51.465363 -0.245514 2,300 270 172 -960
2022-09-24 11:32:53 GMT 51.465363 -0.245514 2,400 270 173 -640
2022-09-24 11:32:51 GMT 51.465363 -0.241328 2,350 270 173 -640
2022-09-24 11:32:48 GMT 51.465408 -0.235062 2,375 270 174 -768
2022-09-24 11:32:45 GMT 51.465408 -0.235062 2,475 270 174 -1024
2022-09-24 11:32:42 GMT 51.465408 -0.231752 2,450 270 178 -1088
2022-09-24 11:32:39 GMT 51.465408 -0.227224 2,500 270 182 -1088
2022-09-24 11:32:37 GMT 51.465408 -0.224457 2,550 271 184 -1088
2022-09-24 11:32:33 GMT 51.465363 -0.218539 2,625 270 190 -1280
2022-09-24 11:32:31 GMT 51.465408 -0.216141 2,675 270 192 -1152
2022-09-24 11:32:29 GMT 51.465408 -0.213623 2,700 270 193 -1152
2022-09-24 11:32:26 GMT 51.465408 -0.207404 2,850 270 199 -1024
2022-09-24 11:32:23 GMT 51.465408 -0.204435 2,825 270 199 -960
2022-09-24 11:32:20 GMT 51.465408 -0.201111 2,950 270 199 -1024
2022-09-24 11:32:18 GMT 51.465408 -0.191444 2,975 270 201 -896
2022-09-24 11:32:14 GMT 51.465408 -0.191444 3,100 271 201 -1152
2022-09-24 11:32:11 GMT 51.465408 -0.186844 3,025 271 201 -1152
2022-09-24 11:32:09 GMT 51.465408 -0.183563 3,075 270 202 -960
2022-09-24 11:32:07 GMT 51.465408 -0.178146 3,125 270 198 -1024
2022-09-24 11:32:04 GMT 51.465408 -0.175476 3,125 270 203 -1024
2022-09-24 11:32:01 GMT 51.465408 -0.171890 3,250 270 203 -1024
2022-09-24 11:31:58 GMT 51.465408 -0.162716 3,325 271 203 -1216
2022-09-24 11:31:55 GMT 51.465408 -0.162716 3,325 271 203 -1216
2022-09-24 11:31:52 GMT 51.465408 -0.158188 3,350 271 203 -1344
2022-09-24 11:31:50 GMT 51.465408 -0.155640 3,425 271 203 -1280
2022-09-24 11:31:47 GMT 51.465363 -0.149800 3,575 271 203 -1216
2022-09-24 11:31:44 GMT 51.465317 -0.143787 3,600 271 203 -1280
2022-09-24 11:31:42 GMT 51.465317 -0.143787 3,550 271 203 -1216
2022-09-24 11:31:40 GMT 51.465313 -0.140305 3,600 271 203 -1344
2022-09-24 11:31:38 GMT 51.465267 -0.131683 3,700 271 202 -1344
2022-09-24 11:31:36 GMT 51.465267 -0.131683 3,775 271 202 -1344
2022-09-24 11:31:33 GMT 51.465221 -0.130157 3,775 271 201 -1344
2022-09-24 11:31:30 GMT 51.465221 -0.125732 3,825 271 201 -1152
2022-09-24 11:31:28 GMT 51.465179 -0.119291 4,025 271 201 -1152
2022-09-24 11:31:26 GMT 51.465179 -0.119291 3,950 270 200 -1088
2022-09-24 11:31:23 GMT 51.465176 -0.110855 4,000 270 200 -1088
2022-09-24 11:31:20 GMT 51.465176 -0.110855 4,075 269 200 -1088
2022-09-24 11:31:18 GMT 51.465176 -0.107880 4,100 266 199 -896
2022-09-24 11:31:16 GMT 51.465221 -0.104370 4,200 269 200 -1152
2022-09-24 11:31:13 GMT 51.465317 -0.100362 4,200 266 199 -896
2022-09-24 11:31:10 GMT 51.465454 -0.096054 4,275 258 200 -832
2022-09-24 11:31:08 GMT 51.466095 -0.088930 4,275 256 200 -768
2022-09-24 11:31:05 GMT 51.466095 -0.088930 4,300 243 204 -448
2022-09-24 11:31:03 GMT 51.466526 -0.086212 4,300 251 201 -640
2022-09-24 11:31:01 GMT 51.468292 -0.079575 4,325 241 204 -448
2022-09-24 11:30:57 GMT 51.468990 -0.077438 4,325 242 204 -448
2022-09-24 11:30:54 GMT 51.470673 -0.072822 4,400 238 206 -256
2022-09-24 11:30:51 GMT 51.472046 -0.069110 4,400 239 206 -448
2022-09-24 11:30:48 GMT 51.473602 -0.065079 4,425 236 206 -384
2022-09-24 11:30:45 GMT 51.474812 -0.061951 4,425 237 206 -320
2022-09-24 11:30:43 GMT 51.476257 -0.058569 4,425 235 207 -448
2022-09-24 11:30:40 GMT 51.479046 -0.052872 4,450 226 207 -384
2022-09-24 11:30:38 GMT 51.479046 -0.052872 4,500 226 207 -384
2022-09-24 11:30:36 GMT 51.483006 -0.046997 4,500 220 208 -512
2022-09-24 11:30:32 GMT 51.483006 -0.046997 4,525 209 207 -640
2022-09-24 11:30:29 GMT 51.486588 -0.043411 4,625 197 209 -640
2022-09-24 11:30:26 GMT 51.488686 -0.041809 4,600 195 211 -832
2022-09-24 11:30:23 GMT 51.490585 -0.040679 4,600 195 211 -832
2022-09-24 11:30:20 GMT 51.495941 -0.038229 4,675 195 209 -512
2022-09-24 11:30:17 GMT 51.495941 -0.038229 4,650 195 210 -576
2022-09-24 11:30:15 GMT 51.498230 -0.037264 4,675 195 212 -704
2022-09-24 11:30:12 GMT 51.501347 -0.036011 4,725 195 211 -704
2022-09-24 11:30:09 GMT 51.504185 -0.034866 4,725 195 212 -704
2022-09-24 11:30:07 GMT 51.507889 -0.033330 4,775 195 212 -768
2022-09-24 11:30:05 GMT 51.507889 -0.033330 4,775 195 211 -832
2022-09-24 11:30:03 GMT 51.513382 -0.031103 4,825 195 211 -832
2022-09-24 11:30:00 GMT 51.513382 -0.031103 4,875 195 211 -832
2022-09-24 11:29:57 GMT 51.515671 -0.030212 4,900 194 211 -768
2022-09-24 11:29:55 GMT 51.517639 -0.029373 4,950 195 210 -832
2022-09-24 11:29:53 GMT 51.519058 -0.028802 4,950 195 210 -832
2022-09-24 11:29:50 GMT 51.522015 -0.027618 4,975 194 210 -832
2022-09-24 11:29:48 GMT 51.524368 -0.026724 5,025 194 209 -960
2022-09-24 11:29:45 GMT 51.527088 -0.025635 5,050 194 209 -960
2022-09-24 11:29:42 GMT 51.530777 -0.024274 5,150 194 209 -960
2022-09-24 11:29:39 GMT 51.534164 -0.023012 5,300 193 209 -1024
2022-09-24 11:29:37 GMT 51.534164 -0.023012 5,175 193 208 -960
2022-09-24 11:29:35 GMT 51.536491 -0.022202 5,225 192 208 -1024
2022-09-24 11:29:33 GMT 51.538101 -0.021601 5,250 191 208 -960
2022-09-24 11:29:31 GMT 51.539429 -0.021230 5,275 190 207 -960
2022-09-24 11:29:29 GMT 51.545383 -0.019684 5,350 188 207 -960
2022-09-24 11:29:26 GMT 51.545383 -0.019684 5,375 185 206 -896
2022-09-24 11:29:23 GMT 51.547806 -0.019375 5,425 182 207 -960
2022-09-24 11:29:21 GMT 51.549248 -0.019226 5,450 171 205 -640
2022-09-24 11:29:19 GMT 51.551422 -0.019300 5,475 173 205 -640
2022-09-24 11:29:16 GMT 51.554371 -0.019684 5,500 171 205 -640
2022-09-24 11:29:13 GMT 51.557533 -0.020599 5,550 162 203 -576
2022-09-24 11:29:11 GMT 51.558792 -0.021133 5,550 162 203 -576
2022-09-24 11:29:09 GMT 51.560303 -0.021898 5,600 147 199 -576
2022-09-24 11:29:07 GMT 51.562469 -0.023346 5,600 150 200 -576
2022-09-24 11:29:04 GMT 51.567032 -0.028060 5,625 143 198 -640
2022-09-24 11:29:02 GMT 51.567032 -0.028060 5,750 125 195 -576
2022-09-24 11:28:59 GMT 51.568565 -0.030365 5,675 133 195 -640
2022-09-24 11:28:57 GMT 51.569778 -0.032501 5,750 127 195 -576
2022-09-24 11:28:54 GMT 51.571060 -0.035112 5,700 121 195 -640
2022-09-24 11:28:52 GMT 51.572292 -0.038147 5,850 116 203 -448
2022-09-24 11:28:49 GMT 51.573578 -0.041867 5,750 117 196 -576
2022-09-24 11:28:47 GMT 51.574528 -0.044861 5,800 116 199 -576
2022-09-24 11:28:44 GMT 51.576050 -0.049735 5,800 116 199 -576
2022-09-24 11:28:41 GMT 51.576900 -0.052490 5,850 116 200 -448
2022-09-24 11:28:38 GMT 51.577927 -0.055822 5,850 116 203 -384
2022-09-24 11:28:36 GMT 51.578934 -0.059014 5,850 116 202 -384
2022-09-24 11:28:33 GMT 51.580948 -0.065547 5,925 116 205 -448
2022-09-24 11:28:31 GMT 51.580948 -0.065547 5,925 116 207 -384
2022-09-24 11:28:28 GMT 51.582348 -0.070114 5,925 116 212 -256
2022-09-24 11:28:25 GMT 51.583740 -0.074752 5,950 116 212 -256
2022-09-24 11:28:22 GMT 51.585159 -0.079280 5,950 116 216 -320
2022-09-24 11:28:19 GMT 51.586304 -0.082991 5,950 116 218 -384
2022-09-24 11:28:17 GMT 51.587173 -0.085961 5,975 116 220 -320
2022-09-24 11:28:14 GMT 51.588501 -0.090340 6,000 116 224 -512
2022-09-24 11:28:12 GMT 51.589325 -0.093013 6,000 116 222 -384
2022-09-24 11:28:09 GMT 51.591473 -0.100021 6,025 116 224 -384
2022-09-24 11:28:07 GMT 51.591473 -0.100021 6,050 116 227 -512
2022-09-24 11:28:04 GMT 51.593334 -0.106049 6,050 115 228 -448
2022-09-24 11:28:01 GMT 51.594498 -0.110016 6,075 115 231 -448
2022-09-24 11:27:58 GMT 51.595871 -0.114540 6,100 115 238 -512
2022-09-24 11:27:55 GMT 51.596924 -0.117955 6,100 115 239 -512
2022-09-24 11:27:52 GMT 51.598499 -0.123215 6,200 115 240 -512
2022-09-24 11:27:49 GMT 51.599808 -0.127605 6,175 115 242 -512
2022-09-24 11:27:47 GMT 51.601044 -0.131762 6,175 115 243 -512
2022-09-24 11:27:45 GMT 51.602234 -0.135696 6,225 115 244 -576
2022-09-24 11:27:42 GMT 51.603699 -0.140595 6,225 115 246 -576
2022-09-24 11:27:39 GMT 51.605804 -0.147499 6,275 115 248 -768
2022-09-24 11:27:37 GMT 51.605804 -0.147499 6,300 115 249 -960
2022-09-24 11:27:35 GMT 51.607159 -0.151978 6,325 115 249 -1024
2022-09-24 11:27:32 GMT 51.608643 -0.156852 6,350 115 249 -1088
2022-09-24 11:27:30 GMT 51.609833 -0.160861 6,450 115 250 -1152
2022-09-24 11:27:27 GMT 51.610882 -0.164413 6,450 115 250 -1088
2022-09-24 11:27:25 GMT 51.612122 -0.168581 6,675 115 247 -1472
2022-09-24 11:27:22 GMT 51.613632 -0.173629 6,575 115 251 -1344
2022-09-24 11:27:19 GMT 51.615074 -0.178528 6,600 115 251 -1472
2022-09-24 11:27:17 GMT 51.615829 -0.181052 6,625 115 250 -1472
2022-09-24 11:27:15 GMT 51.617588 -0.186920 6,725 115 250 -1536
2022-09-24 11:27:12 GMT 51.618565 -0.190277 6,800 115 250 -1472
2022-09-24 11:27:09 GMT 51.620087 -0.195527 6,850 115 250 -1472
2022-09-24 11:27:07 GMT 51.621185 -0.199164 6,950 115 248 -1472
2022-09-24 11:27:04 GMT 51.622238 -0.202876 6,925 115 248 -1472
2022-09-24 11:27:01 GMT 51.624527 -0.210522 7,050 115 247 -1472
2022-09-24 11:26:58 GMT 51.625214 -0.212897 7,200 115 247 -1280
2022-09-24 11:26:56 GMT 51.626083 -0.215867 7,150 115 247 -1408
2022-09-24 11:26:54 GMT 51.628647 -0.224552 7,300 115 247 -1216
2022-09-24 11:26:51 GMT 51.628647 -0.224552 7,350 115 247 -1216
2022-09-24 11:26:47 GMT 51.630947 -0.232315 7,375 115 247 -1216
2022-09-24 11:26:44 GMT 51.634048 -0.242813 7,425 115 247 -1216
2022-09-24 11:26:41 GMT 51.634048 -0.242813 7,500 115 247 -1216
2022-09-24 11:26:38 GMT 51.635284 -0.247118 7,525 115 247 -1216
2022-09-24 11:26:36 GMT 51.635788 -0.248751 7,600 115 248 -1216
2022-09-24 11:26:34 GMT 51.637047 -0.252914 7,600 115 248 -1216
2022-09-24 11:26:31 GMT 51.638817 -0.258865 7,675 115 248 -1152
2022-09-24 11:26:27 GMT 51.640503 -0.264711 7,725 115 248 -1216
2022-09-24 11:26:25 GMT 51.641747 -0.268860 7,950 115 248 -1216
2022-09-24 11:26:22 GMT 51.643387 -0.274361 7,875 115 248 -1216
2022-09-24 11:26:19 GMT 51.644989 -0.279706 7,975 115 248 -1216
2022-09-24 11:26:16 GMT 51.647186 -0.286981 7,975 115 248 -1152
2022-09-24 11:26:14 GMT 51.647186 -0.286981 8,075 115 248 -1152
2022-09-24 11:26:11 GMT 51.648590 -0.291824 8,050 115 248 -1152
2022-09-24 11:26:09 GMT 51.649567 -0.294998 8,100 115 248 -1152
2022-09-24 11:26:07 GMT 51.650497 -0.298157 8,125 115 248 -1152
2022-09-24 11:26:05 GMT 51.652081 -0.303421 8,250 115 248 -1024
2022-09-24 11:26:02 GMT 51.653061 -0.306778 8,250 115 249 -1024
2022-09-24 11:25:59 GMT 51.655945 -0.316467 8,300 115 250 -1024
2022-09-24 11:25:56 GMT 51.655945 -0.316467 8,350 115 250 -1024
2022-09-24 11:25:54 GMT 51.656643 -0.318832 8,350 115 250 -1024
2022-09-24 11:25:52 GMT 51.658974 -0.326843 8,375 115 249 -1024
2022-09-24 11:25:49 GMT 51.658974 -0.326843 8,425 115 250 -1024
2022-09-24 11:25:47 GMT 51.661533 -0.335693 8,475 114 251 -1024
2022-09-24 11:25:45 GMT 51.662788 -0.340042 8,525 114 251 -1024
2022-09-24 11:25:42 GMT 51.662788 -0.340042 8,525 114 251 -960
2022-09-24 11:25:39 GMT 51.665722 -0.350266 8,725 114 252 -1024
2022-09-24 11:25:36 GMT 51.665722 -0.350266 8,650 114 252 -1024
2022-09-24 11:25:33 GMT 51.667629 -0.357132 8,725 114 253 -1024
2022-09-24 11:25:30 GMT 51.668564 -0.360396 8,725 114 253 -1024
2022-09-24 11:25:28 GMT 51.669586 -0.363998 8,775 114 253 -1024
2022-09-24 11:25:26 GMT 51.670750 -0.368042 8,825 114 253 -1024
2022-09-24 11:25:24 GMT 51.671585 -0.371011 8,850 114 253 -960
2022-09-24 11:25:22 GMT 51.672363 -0.373758 8,875 115 257 -704
2022-09-24 11:25:20 GMT 51.673355 -0.377350 8,925 114 253 -960
2022-09-24 11:25:17 GMT 51.675125 -0.383530 8,950 114 253 -896
2022-09-24 11:25:14 GMT 51.676758 -0.389198 9,000 114 254 -768
2022-09-24 11:25:11 GMT 51.678337 -0.394897 9,075 114 255 -768
2022-09-24 11:25:08 GMT 51.679688 -0.399516 9,075 115 255 -768
2022-09-24 11:25:05 GMT 51.681412 -0.405502 9,125 115 255 -704
2022-09-24 11:25:02 GMT 51.682709 -0.409835 9,150 115 256 -704
2022-09-24 11:24:59 GMT 51.683830 -0.413818 9,200 117 287 0
2022-09-24 11:24:56 GMT 51.686417 -0.422602 9,250 115 258 -704
2022-09-24 11:24:54 GMT 51.686417 -0.422602 9,250 115 260 -704
2022-09-24 11:24:51 GMT 51.687973 -0.427799 9,300 115 261 -640
2022-09-24 11:24:48 GMT 51.691326 -0.439224 9,325 115 267 -576
2022-09-24 11:24:45 GMT 51.691326 -0.439224 9,350 115 265 -576
2022-09-24 11:24:42 GMT 51.692688 -0.443610 9,375 115 265 -576
2022-09-24 11:24:40 GMT 51.693832 -0.447544 9,375 115 265 -576
2022-09-24 11:24:36 GMT 51.695889 -0.454483 9,400 115 267 -576
2022-09-24 11:24:34 GMT 51.696774 -0.457382 9,450 115 271 -576
2022-09-24 11:24:31 GMT 51.698357 -0.462799 9,450 115 272 -576
2022-09-24 11:24:29 GMT 51.699566 -0.466766 9,475 115 270 -576
2022-09-24 11:24:26 GMT 51.701340 -0.472783 9,500 115 272 -576
2022-09-24 11:24:24 GMT 51.702732 -0.477371 9,575 115 275 -576
2022-09-24 11:24:21 GMT 51.704315 -0.482656 9,600 115 279 -576
2022-09-24 11:24:18 GMT 51.705414 -0.486368 9,625 115 279 -576
2022-09-24 11:24:15 GMT 51.707291 -0.492752 9,600 115 279 -576
2022-09-24 11:24:12 GMT 51.709110 -0.498962 9,625 115 280 -576
2022-09-24 11:24:10 GMT 51.709900 -0.501556 9,650 115 283 -640
2022-09-24 11:24:07 GMT 51.711807 -0.507965 9,675 115 283 -640
2022-09-24 11:24:04 GMT 51.713531 -0.513687 9,725 116 286 -640
2022-09-24 11:24:02 GMT 51.715206 -0.519028 9,750 117 287 -640
2022-09-24 11:23:59 GMT 51.716415 -0.522842 9,800 121 292 -960
2022-09-24 11:23:57 GMT 51.717957 -0.527566 9,775 118 289 -768
2022-09-24 11:23:54 GMT 51.720421 -0.534515 9,975 125 295 -960
2022-09-24 11:23:51 GMT 51.722237 -0.539322 9,900 134 300 -960
2022-09-24 11:23:48 GMT 51.724098 -0.543671 9,950 127 295 -1024
2022-09-24 11:23:45 GMT 51.726471 -0.548797 9,950 130 297 -1024
2022-09-24 11:23:43 GMT 51.727844 -0.551543 9,975 132 298 -1024
2022-09-24 11:23:40 GMT 51.734116 -0.562233 10,050 134 301 -960
2022-09-24 11:23:37 GMT 51.734116 -0.562233 10,350 135 309 -960
2022-09-24 11:23:35 GMT 51.735783 -0.564957 10,125 135 302 -960
2022-09-24 11:23:33 GMT 51.738392 -0.569077 10,150 135 303 -960
2022-09-24 11:23:31 GMT 51.739883 -0.571438 10,150 135 304 -960
2022-09-24 11:23:28 GMT 51.742393 -0.575409 10,200 135 305 -960
2022-09-24 11:23:26 GMT 51.744873 -0.579380 10,250 135 306 -960
2022-09-24 11:23:24 GMT 51.746582 -0.582123 10,400 135 309 -960
2022-09-24 11:23:22 GMT 51.748631 -0.585327 10,300 135 307 -1024
2022-09-24 11:23:20 GMT 51.750259 -0.587921 10,325 135 308 -960
2022-09-24 11:23:18 GMT 51.752563 -0.591629 10,375 135 310 -960
2022-09-24 11:23:16 GMT 51.755753 -0.596695 10,425 135 311 -960
2022-09-24 11:23:13 GMT 51.758286 -0.600833 10,450 135 313 -960
2022-09-24 11:23:11 GMT 51.760345 -0.604100 10,500 135 314 -1024
2022-09-24 11:23:08 GMT 51.763294 -0.608902 10,550 135 316 -1024
2022-09-24 11:23:05 GMT 51.765995 -0.613174 10,575 135 316 -1024
2022-09-24 11:23:03 GMT 51.768173 -0.616645 10,600 135 316 -1024
2022-09-24 11:23:01 GMT 51.772980 -0.624365 10,650 135 318 -1024
2022-09-24 11:22:59 GMT 51.772980 -0.624365 10,675 135 318 -1024
2022-09-24 11:22:57 GMT 51.774445 -0.626666 10,700 135 318 -1024
2022-09-24 11:22:55 GMT 51.777077 -0.630875 10,750 135 320 -1088
2022-09-24 11:22:53 GMT 51.778656 -0.633347 10,750 135 319 -1024
2022-09-24 11:22:51 GMT 51.781815 -0.638395 11,275 135 320 -1088
2022-09-24 11:22:48 GMT 51.784431 -0.642548 10,875 135 321 -1024
2022-09-24 11:22:46 GMT 51.786438 -0.645744 10,925 135 321 -1024
2022-09-24 11:22:43 GMT 51.792343 -0.655171 10,975 135 321 -1088
2022-09-24 11:22:40 GMT 51.792343 -0.655171 11,000 135 321 -1088
2022-09-24 11:22:37 GMT 51.796143 -0.661258 11,050 135 321 -1024
2022-09-24 11:22:34 GMT 51.800583 -0.668310 11,100 135 320 -1024
2022-09-24 11:22:32 GMT 51.800583 -0.668310 11,125 135 320 -1088
2022-09-24 11:22:29 GMT 51.804382 -0.674397 11,375 135 320 -1088
2022-09-24 11:22:26 GMT 51.807953 -0.680039 11,250 135 320 -1088
2022-09-24 11:22:23 GMT 51.809986 -0.683289 11,300 135 320 -1088
2022-09-24 11:22:21 GMT 51.814316 -0.690134 11,350 135 323 -1088
2022-09-24 11:22:19 GMT 51.814316 -0.690134 11,400 135 321 -1152
2022-09-24 11:22:16 GMT 51.817574 -0.695343 11,425 135 321 -1088
2022-09-24 11:22:13 GMT 51.820862 -0.700527 11,500 135 323 -1088
2022-09-24 11:22:10 GMT 51.824139 -0.705795 11,650 135 323 -1088
2022-09-24 11:22:08 GMT 51.825989 -0.708692 11,575 135 325 -1152
2022-09-24 11:22:05 GMT 51.832809 -0.719604 11,650 135 326 -1152
2022-09-24 11:22:02 GMT 51.836700 -0.725840 11,675 135 329 -1280
2022-09-24 11:21:59 GMT 51.836700 -0.725840 11,900 135 330 -1792
2022-09-24 11:21:56 GMT 51.839642 -0.730515 11,825 135 332 0
2022-09-24 11:21:53 GMT 51.843201 -0.736232 11,900 135 330 -1728
2022-09-24 11:21:50 GMT 51.845581 -0.740018 11,950 135 330 -1792
2022-09-24 11:21:45 GMT 51.851486 -0.749446 12,100 135 331 -1792
2022-09-24 11:21:42 GMT 51.855049 -0.755157 12,400 135 332 -1792
2022-09-24 11:21:39 GMT 51.857574 -0.759170 12,250 135 332 -1792
2022-09-24 11:21:36 GMT 51.862793 -0.767558 12,475 134 333 -1856
2022-09-24 11:21:34 GMT 51.862793 -0.767558 12,400 134 333 -1856
2022-09-24 11:21:32 GMT 51.865524 -0.771942 12,475 134 333 -1856
2022-09-24 11:21:30 GMT 51.867599 -0.775278 12,525 134 332 -1792
2022-09-24 11:21:28 GMT 51.870392 -0.779881 12,600 134 333 -1792
2022-09-24 11:21:25 GMT 51.873951 -0.785751 12,700 134 333 -1792
2022-09-24 11:21:22 GMT 51.876846 -0.790570 12,800 134 333 -1792
2022-09-24 11:21:19 GMT 51.879349 -0.794601 12,850 135 333 -1792
2022-09-24 11:21:17 GMT 51.884842 -0.803299 12,950 136 333 -1728
2022-09-24 11:21:14 GMT 51.884842 -0.803299 12,950 136 333 -1728
2022-09-24 11:21:11 GMT 51.888794 -0.809202 13,125 138 333 -1664
2022-09-24 11:21:08 GMT 51.893082 -0.815353 13,300 142 334 -1088
2022-09-24 11:21:05 GMT 51.894245 -0.816990 13,200 139 333 -1600
2022-09-24 11:21:03 GMT 51.897675 -0.821609 13,300 140 333 -1472
2022-09-24 11:21:01 GMT 51.899925 -0.824681 13,350 141 333 -1280
2022-09-24 11:20:58 GMT 51.904129 -0.830078 13,400 142 334 -1152
2022-09-24 11:20:55 GMT 51.906956 -0.833627 13,425 142 334 -1088
2022-09-24 11:20:53 GMT 51.914219 -0.842181 13,500 146 336 -768
2022-09-24 11:20:50 GMT 51.918137 -0.846634 13,525 145 336 -768
2022-09-24 11:20:47 GMT 51.920746 -0.849380 13,625 147 337 -832
2022-09-24 11:20:44 GMT 51.920746 -0.849380 13,575 147 337 -832
2022-09-24 11:20:42 GMT 51.925507 -0.854263 13,600 148 338 -768
2022-09-24 11:20:39 GMT 51.928162 -0.856934 13,625 149 340 -768
2022-09-24 11:20:36 GMT 51.932236 -0.860825 13,675 149 341 -832
2022-09-24 11:20:34 GMT 51.937820 -0.866193 13,725 149 346 -768
2022-09-24 11:20:32 GMT 51.937820 -0.866193 13,750 149 346 -768
2022-09-24 11:20:29 GMT 51.940704 -0.868912 13,800 149 348 0
2022-09-24 11:20:27 GMT 51.944710 -0.872785 13,800 149 348 -768
2022-09-24 11:20:25 GMT 51.948296 -0.876238 13,875 149 353 -832
2022-09-24 11:20:22 GMT 51.953041 -0.880790 13,875 149 353 -832
2022-09-24 11:20:19 GMT 51.955170 -0.882797 13,900 149 353 -832
2022-09-24 11:20:17 GMT 51.959515 -0.887068 13,925 149 356 -832
2022-09-24 11:20:14 GMT 51.963638 -0.890961 13,975 149 358 -832
2022-09-24 11:20:11 GMT 51.967754 -0.894993 14,025 148 367 -1152
2022-09-24 11:20:08 GMT 51.971924 -0.899048 14,100 149 363 -960
2022-09-24 11:20:05 GMT 51.976227 -0.903244 14,125 148 366 -1088
2022-09-24 11:20:02 GMT 51.980415 -0.907314 14,200 148 370 -1472
2022-09-24 11:19:59 GMT 51.984184 -0.911002 14,200 148 368 -1280
2022-09-24 11:19:56 GMT 51.987854 -0.914536 14,225 148 370 -1472
2022-09-24 11:19:54 GMT 51.995033 -0.921596 14,550 148 371 -1536
2022-09-24 11:19:51 GMT 51.995033 -0.921596 14,350 148 371 -1536
2022-09-24 11:19:49 GMT 51.999573 -0.926056 14,450 148 372 -1664
2022-09-24 11:19:46 GMT 52.007263 -0.933609 14,625 148 375 -1728
2022-09-24 11:19:43 GMT 52.007263 -0.933609 14,625 148 375 -1728
2022-09-24 11:19:40 GMT 52.011703 -0.937958 14,725 148 375 -1728
2022-09-24 11:19:37 GMT 52.017517 -0.943647 14,775 148 377 -1728
2022-09-24 11:19:34 GMT 52.020905 -0.946960 14,900 148 375 -1728
2022-09-24 11:19:32 GMT 52.024963 -0.950867 14,950 148 377 -1728
2022-09-24 11:19:29 GMT 52.028828 -0.954712 15,000 148 377 -1728
2022-09-24 11:19:27 GMT 52.031811 -0.957615 15,075 148 377 -1728
2022-09-24 11:19:24 GMT 52.035233 -0.960999 15,100 148 377 -1728
2022-09-24 11:19:21 GMT 52.039993 -0.965652 15,225 148 378 -1728
2022-09-24 11:19:18 GMT 52.043884 -0.969543 15,425 148 379 -1728
2022-09-24 11:19:16 GMT 52.047775 -0.973358 15,575 148 380 -1728
2022-09-24 11:19:13 GMT 52.052105 -0.977626 15,500 148 380 -1728
2022-09-24 11:19:10 GMT 52.056473 -0.981979 15,600 148 381 -1728
2022-09-24 11:19:07 GMT 52.061279 -0.986710 15,650 148 381 -1728
2022-09-24 11:19:04 GMT 52.067596 -0.993042 15,725 148 382 -1728
2022-09-24 11:19:01 GMT 52.070122 -0.995597 15,800 148 384 -1728
2022-09-24 11:18:58 GMT 52.074638 -1.000148 15,875 148 383 -1728
2022-09-24 11:18:56 GMT 52.078400 -1.003876 15,950 148 384 -1728
2022-09-24 11:18:53 GMT 52.082783 -1.008310 16,000 148 384 -1728
2022-09-24 11:18:50 GMT 52.090759 -1.016388 16,150 148 384 -1728
2022-09-24 11:18:47 GMT 52.090759 -1.016388 16,150 147 384 -1728
2022-09-24 11:18:44 GMT 52.096657 -1.022356 16,250 148 385 -1728
2022-09-24 11:18:41 GMT 52.101776 -1.027536 16,350 148 387 -1728
2022-09-24 11:18:38 GMT 52.104801 -1.030596 16,500 147 395 -1728
2022-09-24 11:18:34 GMT 52.112549 -1.038437 16,550 148 387 -1728
2022-09-24 11:18:31 GMT 52.116806 -1.042786 16,675 148 387 -1728
2022-09-24 11:18:28 GMT 52.120583 -1.046605 16,725 148 388 -1728
2022-09-24 11:18:26 GMT 52.123657 -1.049665 16,775 148 389 -1728
2022-09-24 11:18:23 GMT 52.128822 -1.054923 16,850 148 389 -1664
2022-09-24 11:18:20 GMT 52.134037 -1.060181 17,000 148 389 -1728
2022-09-24 11:18:17 GMT 52.136353 -1.062546 16,950 148 391 -1728
2022-09-24 11:18:14 GMT 52.141251 -1.067505 17,150 148 391 -1728
2022-09-24 11:18:12 GMT 52.144184 -1.070461 17,150 148 392 -1728
2022-09-24 11:18:10 GMT 52.147861 -1.074149 17,250 148 392 -1728
2022-09-24 11:18:07 GMT 52.152145 -1.078544 17,300 148 392 -1728
2022-09-24 11:18:05 GMT 52.156311 -1.082764 17,400 147 394 -1728
2022-09-24 11:18:02 GMT 52.160805 -1.087254 17,450 147 394 -1728
2022-09-24 11:17:59 GMT 52.165604 -1.092148 17,575 147 394 -1728
2022-09-24 11:17:56 GMT 52.170227 -1.096878 17,625 147 395 -1728
2022-09-24 11:17:53 GMT 52.173935 -1.100693 17,775 147 403 -960
2022-09-24 11:17:50 GMT 52.179199 -1.106110 17,950 147 397 -1728
2022-09-24 11:17:47 GMT 52.182777 -1.109698 17,850 147 397 -1728
2022-09-24 11:17:45 GMT 52.186981 -1.114044 17,925 148 398 -1728
2022-09-24 11:17:42 GMT 52.194927 -1.122096 18,000 148 398 -1728
2022-09-24 11:17:40 GMT 52.194927 -1.122096 18,100 148 399 -1728
2022-09-24 11:17:37 GMT 52.197922 -1.125107 18,150 148 399 -1664
2022-09-24 11:17:35 GMT 52.202591 -1.129837 18,200 148 399 -1664
2022-09-24 11:17:33 GMT 52.204006 -1.131278 18,250 148 399 -1664
2022-09-24 11:17:31 GMT 52.207172 -1.134417 18,275 148 399 -1664
2022-09-24 11:17:29 GMT 52.212021 -1.139374 18,375 148 399 -1728
2022-09-24 11:17:26 GMT 52.216095 -1.143494 18,450 148 400 -1728
2022-09-24 11:17:23 GMT 52.223328 -1.150818 18,550 148 400 -1728
2022-09-24 11:17:21 GMT 52.223328 -1.150818 18,575 148 400 -1728
2022-09-24 11:17:19 GMT 52.227886 -1.155448 19,000 148 402 -1728
2022-09-24 11:17:16 GMT 52.232262 -1.159921 18,725 147 401 -1728
2022-09-24 11:17:14 GMT 52.234634 -1.162338 18,825 147 401 -1728
2022-09-24 11:17:12 GMT 52.239349 -1.167145 18,900 148 402 -1728
2022-09-24 11:17:09 GMT 52.242645 -1.170515 18,950 147 402 -1664
2022-09-24 11:17:06 GMT 52.247223 -1.175156 19,050 147 402 -1664
2022-09-24 11:17:03 GMT 52.253349 -1.181423 19,100 147 402 -1664
2022-09-24 11:17:00 GMT 52.256653 -1.184845 19,250 147 402 -1664
2022-09-24 11:16:57 GMT 52.261543 -1.189819 19,250 147 403 -1664
2022-09-24 11:16:54 GMT 52.266769 -1.195145 19,475 147 403 -1472
2022-09-24 11:16:51 GMT 52.276840 -1.205521 19,550 147 403 -1472
2022-09-24 11:16:48 GMT 52.276840 -1.205521 19,775 147 403 -1472
2022-09-24 11:16:45 GMT 52.280319 -1.209030 19,775 147 402 -1344
2022-09-24 11:16:42 GMT 52.285191 -1.214068 19,725 147 402 -1280
2022-09-24 11:16:40 GMT 52.288635 -1.217678 19,775 147 402 -1344
2022-09-24 11:16:37 GMT 52.293991 -1.223171 19,775 147 402 -1344
2022-09-24 11:16:35 GMT 52.296181 -1.225446 19,800 147 402 -1280
2022-09-24 11:16:33 GMT 52.300095 -1.229553 20,075 147 404 -1088
2022-09-24 11:16:30 GMT 52.303719 -1.233294 19,900 147 402 -1088
2022-09-24 11:16:27 GMT 52.309029 -1.238865 19,950 147 402 -1088
2022-09-24 11:16:25 GMT 52.312195 -1.242161 20,075 147 404 -1152
2022-09-24 11:16:22 GMT 52.317501 -1.247733 20,350 147 403 -960
2022-09-24 11:16:19 GMT 52.322201 -1.252598 20,075 147 405 -1344
2022-09-24 11:16:16 GMT 52.324993 -1.255580 20,100 147 404 -1024
2022-09-24 11:16:14 GMT 52.329090 -1.259896 20,225 147 405 -1280
2022-09-24 11:16:11 GMT 52.334770 -1.265782 20,225 147 409 -2048
2022-09-24 11:16:08 GMT 52.338684 -1.269989 20,300 147 406 -1600
2022-09-24 11:16:06 GMT 52.341248 -1.272583 20,475 147 407 -1600
2022-09-24 11:16:04 GMT 52.345047 -1.276627 20,425 147 407 -1600
2022-09-24 11:16:02 GMT 52.349762 -1.281586 20,475 147 408 -1856
2022-09-24 11:15:59 GMT 52.352600 -1.284561 20,525 147 408 -1984
2022-09-24 11:15:56 GMT 52.357208 -1.289403 20,725 147 414 -2176
2022-09-24 11:15:54 GMT 52.359768 -1.292071 20,675 147 409 -2048
2022-09-24 11:15:52 GMT 52.364517 -1.297093 20,750 147 409 -2048
2022-09-24 11:15:49 GMT 52.369919 -1.302822 20,900 147 412 -2048
2022-09-24 11:15:46 GMT 52.374714 -1.307844 21,000 147 410 -1984
2022-09-24 11:15:43 GMT 52.379654 -1.313095 21,100 147 412 -2048
2022-09-24 11:15:40 GMT 52.384460 -1.318130 21,300 147 413 -2112
2022-09-24 11:15:37 GMT 52.391785 -1.325912 21,450 147 413 -2176
2022-09-24 11:15:35 GMT 52.391785 -1.325912 21,450 147 413 -2176
2022-09-24 11:15:32 GMT 52.395473 -1.329817 21,475 147 414 -2176
2022-09-24 11:15:29 GMT 52.400967 -1.335624 21,600 147 415 -2176
2022-09-24 11:15:26 GMT 52.405483 -1.340332 21,625 147 415 -2176
2022-09-24 11:15:24 GMT 52.409348 -1.344413 21,825 147 415 -2240
2022-09-24 11:15:21 GMT 52.414516 -1.349906 21,900 147 415 -2240
2022-09-24 11:15:18 GMT 52.420120 -1.355896 22,000 147 416 -2112
2022-09-24 11:15:15 GMT 52.424652 -1.360626 22,200 147 417 -2112
2022-09-24 11:15:12 GMT 52.427902 -1.364059 22,175 146 419 -2176
2022-09-24 11:15:09 GMT 52.432625 -1.369053 22,625 146 419 -2176
2022-09-24 11:15:06 GMT 52.442184 -1.379242 22,450 146 419 -2176
2022-09-24 11:15:04 GMT 52.442184 -1.379242 22,475 146 419 -2176
2022-09-24 11:15:01 GMT 52.447521 -1.384984 22,625 146 419 -2240
2022-09-24 11:14:58 GMT 52.452736 -1.390555 22,725 146 421 -2176
2022-09-24 11:14:55 GMT 52.455013 -1.392988 22,775 146 421 -2112
2022-09-24 11:14:53 GMT 52.459904 -1.398167 22,925 146 422 -1920
2022-09-24 11:14:50 GMT 52.463013 -1.401520 23,000 146 423 -1920
2022-09-24 11:14:48 GMT 52.468422 -1.407270 23,050 146 424 -1984
2022-09-24 11:14:45 GMT 52.473682 -1.412842 23,175 146 425 -2176
2022-09-24 11:14:42 GMT 52.476791 -1.416245 23,250 147 427 -2112
2022-09-24 11:14:40 GMT 52.481735 -1.421509 23,350 146 426 -2304
2022-09-24 11:14:37 GMT 52.489975 -1.430283 23,425 146 427 -2240
2022-09-24 11:14:34 GMT 52.489975 -1.430283 23,550 146 427 -2240
2022-09-24 11:14:31 GMT 52.496933 -1.437683 23,675 147 427 -2048
2022-09-24 11:14:28 GMT 52.502033 -1.443211 23,775 147 427 -1984
2022-09-24 11:14:25 GMT 52.505386 -1.446742 23,900 147 430 -1728
2022-09-24 11:14:22 GMT 52.510529 -1.452179 23,925 147 430 -1728
2022-09-24 11:14:20 GMT 52.514191 -1.456070 24,025 147 431 -1792
2022-09-24 11:14:17 GMT 52.519913 -1.462097 24,100 147 431 -1920
2022-09-24 11:14:14 GMT 52.523399 -1.465890 24,125 147 431 -1984
2022-09-24 11:14:11 GMT 52.528976 -1.471710 24,325 147 432 -2112
2022-09-24 11:14:08 GMT 52.533005 -1.475983 24,500 147 433 -2048
2022-09-24 11:14:05 GMT 52.545280 -1.488883 24,550 147 434 -1984
2022-09-24 11:14:01 GMT 52.545280 -1.488883 24,600 147 434 -1856
2022-09-24 11:13:58 GMT 52.551052 -1.495004 24,700 147 436 -1664
2022-09-24 11:13:55 GMT 52.555252 -1.499405 24,775 147 436 -1664
2022-09-24 11:13:53 GMT 52.558640 -1.502991 24,900 147 438 -1856
2022-09-24 11:13:50 GMT 52.564598 -1.509286 24,925 147 438 -1792
2022-09-24 11:13:47 GMT 52.569214 -1.514206 25,650 146 442 -1856
2022-09-24 11:13:45 GMT 52.572601 -1.517792 25,075 147 439 -2112
2022-09-24 11:13:43 GMT 52.575348 -1.520691 25,125 147 439 -2176
2022-09-24 11:13:41 GMT 52.580940 -1.526629 25,275 147 439 -2240
2022-09-24 11:13:38 GMT 52.585876 -1.531906 25,375 147 439 -2176
2022-09-24 11:13:35 GMT 52.590157 -1.536438 25,450 146 440 -2112
2022-09-24 11:13:33 GMT 52.592697 -1.539154 25,850 147 441 -1984
2022-09-24 11:13:30 GMT 52.599373 -1.546247 25,650 146 442 -1920
2022-09-24 11:13:27 GMT 52.603638 -1.550827 25,700 146 442 -1792
2022-09-24 11:13:25 GMT 52.607071 -1.554489 25,775 146 442 -1792
2022-09-24 11:13:23 GMT 52.615482 -1.563511 25,875 146 444 -1856
2022-09-24 11:13:20 GMT 52.620117 -1.568451 26,050 146 444 -1856
2022-09-24 11:13:17 GMT 52.620117 -1.568451 26,125 146 444 -1856
2022-09-24 11:13:14 GMT 52.629410 -1.578445 26,150 146 445 -1792
2022-09-24 11:13:12 GMT 52.635452 -1.584935 26,325 146 446 -1792
2022-09-24 11:13:09 GMT 52.639919 -1.589800 26,300 146 445 -1792
2022-09-24 11:13:06 GMT 52.639919 -1.589800 26,375 146 446 -1792
2022-09-24 11:13:03 GMT 52.644714 -1.594979 26,500 146 446 -1728
2022-09-24 11:13:01 GMT 52.649185 -1.599845 26,575 146 448 -1600
2022-09-24 11:12:58 GMT 52.653702 -1.604632 26,700 146 448 -1600
2022-09-24 11:12:55 GMT 52.658169 -1.609497 26,675 146 448 -1600
2022-09-24 11:12:53 GMT 52.662506 -1.614151 26,775 146 449 -1600
2022-09-24 11:12:50 GMT 52.667725 -1.619797 26,825 146 449 -1536
2022-09-24 11:12:47 GMT 52.673111 -1.625584 26,900 146 450 -1536
2022-09-24 11:12:44 GMT 52.676743 -1.629486 26,950 146 450 -1600
2022-09-24 11:12:42 GMT 52.680954 -1.633911 27,000 146 450 -1600
2022-09-24 11:12:40 GMT 52.685806 -1.639175 27,100 146 450 -1600
2022-09-24 11:12:37 GMT 52.690018 -1.643677 27,150 146 451 -1600
2022-09-24 11:12:34 GMT 52.694550 -1.648560 27,225 146 452 -1536
2022-09-24 11:12:32 GMT 52.698395 -1.652679 27,275 146 452 -1472
2022-09-24 11:12:29 GMT 52.704208 -1.658857 27,350 146 454 -1408
2022-09-24 11:12:26 GMT 52.715103 -1.670550 27,625 147 455 -1472
2022-09-24 11:12:23 GMT 52.715103 -1.670550 27,550 146 455 -1600
2022-09-24 11:12:20 GMT 52.717896 -1.673610 27,550 146 455 -1600
2022-09-24 11:12:18 GMT 52.722656 -1.678696 27,650 146 455 -1600
2022-09-24 11:12:15 GMT 52.727764 -1.684204 27,700 146 456 -1536
2022-09-24 11:12:13 GMT 52.732224 -1.688919 27,750 146 456 -1600
2022-09-24 11:12:10 GMT 52.737679 -1.694798 28,200 146 458 -1472
2022-09-24 11:12:07 GMT 52.744263 -1.701813 27,925 147 459 -1472
2022-09-24 11:12:04 GMT 52.747787 -1.705627 28,025 147 459 -1472
2022-09-24 11:12:02 GMT 52.757080 -1.715546 28,075 146 460 -1536
2022-09-24 11:11:59 GMT 52.757080 -1.715546 28,150 147 461 -1600
2022-09-24 11:11:56 GMT 52.763329 -1.722185 28,200 147 461 -1600
2022-09-24 11:11:53 GMT 52.773880 -1.733475 28,350 146 462 -1664
2022-09-24 11:11:50 GMT 52.773880 -1.733475 28,400 146 462 -1600
2022-09-24 11:11:47 GMT 52.783905 -1.744232 28,475 147 464 -1536
2022-09-24 11:11:44 GMT 52.783905 -1.744232 28,500 147 463 -1536
2022-09-24 11:11:42 GMT 52.786606 -1.747140 28,550 147 464 -1536
2022-09-24 11:11:39 GMT 52.793976 -1.754990 28,725 147 465 -1600
2022-09-24 11:11:36 GMT 52.797592 -1.758804 28,725 147 466 -1600
2022-09-24 11:11:33 GMT 52.803726 -1.765289 28,825 147 466 -1600
2022-09-24 11:11:30 GMT 52.809696 -1.771624 28,925 147 466 -1536
2022-09-24 11:11:27 GMT 52.814445 -1.776646 28,950 147 467 -1536
2022-09-24 11:11:24 GMT 52.819519 -1.781982 29,150 147 469 -1728
2022-09-24 11:11:22 GMT 52.829544 -1.792603 29,200 147 469 -1664
2022-09-24 11:11:19 GMT 52.829544 -1.792603 29,200 147 469 -1664
2022-09-24 11:11:16 GMT 52.841446 -1.805054 29,275 147 470 -1728
2022-09-24 11:11:13 GMT 52.841446 -1.805054 30,150 147 472 -1472
2022-09-24 11:11:10 GMT 52.845123 -1.808899 29,450 147 471 -1664
2022-09-24 11:11:07 GMT 52.852478 -1.816589 29,525 147 470 -1664
2022-09-24 11:11:04 GMT 52.860577 -1.824986 29,600 147 471 -1600
2022-09-24 11:11:02 GMT 52.865372 -1.830008 29,675 147 472 -1472
2022-09-24 11:10:59 GMT 52.865372 -1.830008 29,725 147 472 -1408
2022-09-24 11:10:57 GMT 52.875183 -1.840210 29,800 147 476 -1536
2022-09-24 11:10:54 GMT 52.875183 -1.840210 29,825 147 474 -1408
2022-09-24 11:10:52 GMT 52.879059 -1.844291 29,900 147 476 -1536
2022-09-24 11:10:49 GMT 52.884064 -1.849518 29,975 147 476 -1664
2022-09-24 11:10:47 GMT 52.889069 -1.854806 30,075 147 476 -1920
2022-09-24 11:10:44 GMT 52.894455 -1.860428 30,200 147 476 -2048
2022-09-24 11:10:41 GMT 52.899124 -1.865322 30,200 147 476 -2048
2022-09-24 11:10:38 GMT 52.903381 -1.869736 30,375 147 477 -1984
2022-09-24 11:10:36 GMT 52.913864 -1.880646 30,425 147 477 -1984
2022-09-24 11:10:33 GMT 52.919449 -1.886444 30,525 147 478 -1792
2022-09-24 11:10:31 GMT 52.919449 -1.886444 30,550 147 478 -1600
2022-09-24 11:10:28 GMT 52.923203 -1.890335 30,600 147 478 -1216
2022-09-24 11:10:26 GMT 52.927895 -1.895142 30,650 148 479 -1088
2022-09-24 11:10:23 GMT 52.932781 -1.900242 30,725 148 481 -1152
2022-09-24 11:10:21 GMT 52.936550 -1.904088 30,750 148 481 -1152
2022-09-24 11:10:18 GMT 52.943115 -1.910934 31,050 148 481 -1280
2022-09-24 11:10:15 GMT 52.948982 -1.916957 30,875 148 482 -1280
2022-09-24 11:10:12 GMT 52.952591 -1.920700 31,075 148 485 -1536
2022-09-24 11:10:09 GMT 52.959412 -1.927719 31,000 148 484 -1344
2022-09-24 11:10:06 GMT 52.965088 -1.933594 31,175 148 486 -1664
2022-09-24 11:10:03 GMT 52.972164 -1.940813 31,300 148 487 -1728
2022-09-24 11:10:00 GMT 52.977844 -1.946699 31,300 148 486 -1664
2022-09-24 11:09:57 GMT 52.981659 -1.950623 31,350 148 487 -1664
2022-09-24 11:09:54 GMT 52.987610 -1.956711 31,375 148 487 -1728
2022-09-24 11:09:52 GMT 52.991249 -1.960510 31,475 148 488 -1792
2022-09-24 11:09:49 GMT 52.997543 -1.967010 31,550 148 488 -1792
2022-09-24 11:09:47 GMT 53.001213 -1.970712 31,600 148 489 -1984
2022-09-24 11:09:45 GMT 53.006012 -1.975632 31,725 148 490 -2048
2022-09-24 11:09:42 GMT 53.011593 -1.981384 31,900 148 491 -2176
2022-09-24 11:09:39 GMT 53.016994 -1.986956 31,875 148 491 -2176
2022-09-24 11:09:37 GMT 53.019882 -1.989899 32,000 148 493 -2304
2022-09-24 11:09:34 GMT 53.026257 -1.996373 32,175 148 493 -2240
2022-09-24 11:09:31 GMT 53.032654 -2.002869 32,225 148 493 -2176
2022-09-24 11:09:28 GMT 53.037151 -2.007359 32,350 148 494 -2176
2022-09-24 11:09:26 GMT 53.042969 -2.013245 32,400 149 495 -2112
2022-09-24 11:09:23 GMT 53.048092 -2.018345 32,475 149 495 -2112
2022-09-24 11:09:21 GMT 53.058331 -2.028390 32,600 149 497 -2112
2022-09-24 11:09:18 GMT 53.058331 -2.028390 32,675 150 498 -2176
2022-09-24 11:09:15 GMT 53.071335 -2.040787 32,850 150 499 -2304
2022-09-24 11:09:12 GMT 53.071335 -2.040787 32,900 150 500 -2368
2022-09-24 11:09:09 GMT 53.074951 -2.044144 32,975 150 500 -2496
2022-09-24 11:09:07 GMT 53.080444 -2.049186 33,225 151 502 -3136
2022-09-24 11:09:04 GMT 53.086716 -2.054901 33,775 151 502 -3136
2022-09-24 11:09:01 GMT 53.098694 -2.065914 33,475 151 502 -3136
2022-09-24 11:08:58 GMT 53.098694 -2.065914 33,625 150 502 -3200
2022-09-24 11:08:55 GMT 53.104790 -2.071488 33,775 150 502 -3136
2022-09-24 11:08:52 GMT 53.109879 -2.076181 33,800 150 502 -3200
2022-09-24 11:08:51 GMT 53.111893 -2.078064 34,325 150 503 -3200
2022-09-24 11:08:48 GMT 53.117779 -2.083525 34,050 150 502 -3200
2022-09-24 11:08:46 GMT 53.123833 -2.089180 34,275 150 503 -3200
2022-09-24 11:08:43 GMT 53.130348 -2.095157 34,425 151 502 -3200
2022-09-24 11:08:40 GMT 53.135422 -2.099880 34,500 151 502 -3200
2022-09-24 11:08:37 GMT 53.140686 -2.104745 34,650 151 503 -3200
2022-09-24 11:08:34 GMT 53.148010 -2.111415 34,850 151 503 -3200
2022-09-24 11:08:31 GMT 53.151901 -2.114949 35,100 151 502 -3136
2022-09-24 11:08:28 GMT 53.159821 -2.122166 35,225 151 502 -3072
2022-09-24 11:08:25 GMT 53.164101 -2.126016 35,300 151 501 -3200
2022-09-24 11:08:22 GMT 53.170986 -2.132398 35,400 151 502 -3072
2022-09-24 11:08:20 GMT 53.176483 -2.137390 35,575 151 501 -3008
2022-09-24 11:08:17 GMT 53.180923 -2.141549 35,875 151 501 -3136
2022-09-24 11:08:14 GMT 53.187607 -2.147666 35,925 151 501 -3200
2022-09-24 11:08:11 GMT 53.193512 -2.153085 36,475 151 501 -3200
2022-09-24 11:08:08 GMT 53.199757 -2.158894 36,200 150 500 -3200
2022-09-24 11:08:05 GMT 53.206646 -2.165195 36,300 150 500 -3072
2022-09-24 11:08:02 GMT 53.211685 -2.169878 36,425 150 500 -2944
2022-09-24 11:08:00 GMT 53.216949 -2.174744 36,575 150 500 -2752
2022-09-24 11:07:57 GMT 53.220154 -2.177726 36,675 150 500 -2624
2022-09-24 11:07:55 GMT 53.225830 -2.183062 36,750 150 500 -2624
2022-09-24 11:07:52 GMT 53.232018 -2.188864 36,875 150 500 -2624
2022-09-24 11:07:50 GMT 53.240910 -2.197185 37,225 150 500 -2688
2022-09-24 11:07:47 GMT 53.240910 -2.197185 37,100 150 505 -1920
2022-09-24 11:07:45 GMT 53.245102 -2.201189 37,175 150 500 -2688
2022-09-24 11:07:42 GMT 53.252174 -2.207767 37,325 150 500 -2688
2022-09-24 11:07:39 GMT 53.257015 -2.212210 37,550 150 500 -2752
2022-09-24 11:07:36 GMT 53.263908 -2.218592 37,625 150 500 -2752
2022-09-24 11:07:33 GMT 53.269539 -2.223843 37,675 150 500 -2752
2022-09-24 11:07:31 GMT 53.273804 -2.227792 37,775 150 500 -2688
2022-09-24 11:07:29 GMT 53.284485 -2.237737 37,950 150 501 -2560
2022-09-24 11:07:26 GMT 53.290375 -2.243173 38,050 151 501 -2560
2022-09-24 11:07:23 GMT 53.290375 -2.243173 38,125 151 502 -2496
2022-09-24 11:07:21 GMT 53.292801 -2.245449 38,275 151 503 -2368
2022-09-24 11:07:19 GMT 53.297890 -2.250097 38,300 151 503 -2368
2022-09-24 11:07:16 GMT 53.310333 -2.261457 38,450 151 503 -2240
2022-09-24 11:07:13 GMT 53.313763 -2.264638 38,550 151 504 -2112
2022-09-24 11:07:09 GMT 53.318653 -2.269161 38,700 150 505 -1920
2022-09-24 11:07:06 GMT 53.324749 -2.274816 38,700 150 505 -1920
2022-09-24 11:07:03 GMT 53.331688 -2.281279 38,825 150 507 -1600
2022-09-24 11:07:01 GMT 53.335781 -2.285075 38,875 150 507 -1536
2022-09-24 11:06:58 GMT 53.343140 -2.291942 38,975 150 507 -1472
2022-09-24 11:06:55 GMT 53.347412 -2.295907 39,025 150 507 -1024
2022-09-24 11:06:52 GMT 53.353752 -2.301797 39,075 150 507 -960
2022-09-24 11:06:50 GMT 53.357849 -2.305594 39,125 150 507 -1024
2022-09-24 11:06:47 GMT 53.363575 -2.311006 39,200 150 509 -896
2022-09-24 11:06:44 GMT 53.370758 -2.317644 39,200 150 509 -960
2022-09-24 11:06:41 GMT 53.375244 -2.321882 39,225 150 509 -960
2022-09-24 11:06:39 GMT 53.380600 -2.326904 39,375 150 509 -1408
2022-09-24 11:06:36 GMT 53.386524 -2.332494 39,325 150 509 -1280
2022-09-24 11:06:33 GMT 53.392670 -2.338230 39,425 150 509 -1472
2022-09-24 11:06:30 GMT 53.399460 -2.344561 39,575 150 509 -1472
2022-09-24 11:06:27 GMT 53.405640 -2.350289 39,550 150 508 -1600
2022-09-24 11:06:24 GMT 53.416672 -2.360648 39,725 150 508 -1600
2022-09-24 11:06:21 GMT 53.416672 -2.360648 39,675 150 508 -1600
2022-09-24 11:06:19 GMT 53.421810 -2.365453 39,825 150 508 -1408
2022-09-24 11:06:16 GMT 53.427120 -2.370462 39,825 150 508 -1472
2022-09-24 11:06:13 GMT 53.434101 -2.376924 39,900 150 508 -1344
2022-09-24 11:06:10 GMT 53.440430 -2.382856 39,950 150 508 -1344
2022-09-24 11:06:07 GMT 53.445972 -2.388072 40,000 150 508 -1408
2022-09-24 11:06:05 GMT 53.448021 -2.389930 40,025 150 508 -1344
2022-09-24 11:06:03 GMT 53.452118 -2.393808 40,125 150 508 -1408
2022-09-24 11:06:00 GMT 53.461761 -2.402788 40,175 150 508 -1408
2022-09-24 11:05:57 GMT 53.466038 -2.406814 40,250 150 508 -1280
2022-09-24 11:05:54 GMT 53.473206 -2.413461 40,275 150 508 -1216
2022-09-24 11:05:51 GMT 53.478325 -2.418285 40,325 150 508 -1216
2022-09-24 11:05:49 GMT 53.483047 -2.422642 40,400 150 508 -1152
2022-09-24 11:05:46 GMT 53.488770 -2.428057 40,450 150 508 -1152
2022-09-24 11:05:43 GMT 53.495552 -2.434360 40,525 150 508 -1088
2022-09-24 11:05:40 GMT 53.500671 -2.439122 40,525 150 508 -1024
2022-09-24 11:05:38 GMT 53.513145 -2.450921 40,625 150 509 -960
2022-09-24 11:05:35 GMT 53.518036 -2.455525 40,625 150 509 -960
2022-09-24 11:05:32 GMT 53.524597 -2.461665 40,675 150 509 -960
2022-09-24 11:05:29 GMT 53.529694 -2.466509 40,725 150 509 -960
2022-09-24 11:05:26 GMT 53.529694 -2.466509 40,750 150 509 -768
2022-09-24 11:05:23 GMT 53.535049 -2.471531 40,750 150 509 -768
2022-09-24 11:05:20 GMT 53.542194 -2.478225 40,875 150 509 -576
2022-09-24 11:05:17 GMT 53.547131 -2.482910 40,850 150 509 -576
2022-09-24 11:05:14 GMT 53.553650 -2.489050 40,900 150 510 -192
2022-09-24 11:05:12 GMT 53.557983 -2.493112 40,900 150 509 -512
2022-09-24 11:05:10 GMT 53.562057 -2.496957 40,900 150 509 -448
2022-09-24 11:05:08 GMT 53.567196 -2.501813 40,925 150 509 -320
2022-09-24 11:05:05 GMT 53.573135 -2.507472 40,950 150 509 -320
2022-09-24 11:05:03 GMT 53.577435 -2.511507 40,950 150 510 -192
2022-09-24 11:05:00 GMT 53.584625 -2.518302 40,950 150 510 -128
2022-09-24 11:04:57 GMT 53.589771 -2.523140 40,950 150 511 -128
2022-09-24 11:04:54 GMT 53.599220 -2.532106 40,975 150 511 -128
2022-09-24 11:04:52 GMT 53.603989 -2.536508 40,975 150 511 -64
2022-09-24 11:04:50 GMT 53.603989 -2.536508 40,975 151 512 -64
2022-09-24 11:04:47 GMT 53.610992 -2.543021 40,975 151 513 -64
2022-09-24 11:04:44 GMT 53.616394 -2.548043 40,975 151 512 -128
2022-09-24 11:04:41 GMT 53.626968 -2.557714 40,975 151 512 -64
2022-09-24 11:04:39 GMT 53.631996 -2.562238 40,975 151 513 -64
2022-09-24 11:04:36 GMT 53.636810 -2.566563 40,975 151 513 -64
2022-09-24 11:04:34 GMT 53.636810 -2.566563 40,975 151 513 -64
2022-09-24 11:04:31 GMT 53.642212 -2.571429 41,000 152 513 -64
2022-09-24 11:04:29 GMT 53.654388 -2.582179 41,000 152 513 -64
2022-09-24 11:04:26 GMT 53.654388 -2.582179 41,000 152 513 -64
2022-09-24 11:04:23 GMT 53.661530 -2.588457 40,975 152 512 0
2022-09-24 11:04:20 GMT 53.671379 -2.597055 41,000 152 512 0
2022-09-24 11:04:18 GMT 53.671379 -2.597055 41,000 152 512 0
2022-09-24 11:04:15 GMT 53.676872 -2.601821 41,000 153 512 64
2022-09-24 11:04:12 GMT 53.683411 -2.607370 40,975 153 512 -64
2022-09-24 11:04:09 GMT 53.690186 -2.613098 40,975 153 512 0
2022-09-24 11:04:06 GMT 53.695866 -2.617897 40,975 153 512 -64
2022-09-24 11:04:04 GMT 53.699066 -2.620553 41,000 153 512 -64
2022-09-24 11:04:01 GMT 53.710556 -2.629970 40,975 154 513 -64
2022-09-24 11:03:59 GMT 53.710556 -2.629970 40,975 154 513 -64
2022-09-24 11:03:56 GMT 53.717789 -2.635856 41,000 154 512 0
2022-09-24 11:03:53 GMT 53.722260 -2.639546 41,000 154 512 -64
2022-09-24 11:03:51 GMT 53.727383 -2.643666 41,000 154 512 0
2022-09-24 11:03:49 GMT 53.730560 -2.646214 41,000 154 511 -64
2022-09-24 11:03:47 GMT 53.737156 -2.651583 41,000 154 511 0
2022-09-24 11:03:44 GMT 53.742920 -2.656259 40,975 154 511 0
2022-09-24 11:03:41 GMT 53.749283 -2.661438 41,000 154 511 -64
2022-09-24 11:03:38 GMT 53.755234 -2.666303 41,000 154 511 -64
2022-09-24 11:03:35 GMT 53.760574 -2.670647 40,975 154 511 64
2022-09-24 11:03:33 GMT 53.765274 -2.674444 41,000 154 511 -64
2022-09-24 11:03:31 GMT 53.769932 -2.678241 41,000 154 511 -64
2022-09-24 11:03:29 GMT 53.774826 -2.682234 41,000 154 511 -64
2022-09-24 11:03:26 GMT 53.786728 -2.691886 41,000 154 511 0
2022-09-24 11:03:23 GMT 53.786728 -2.691886 41,000 154 511 -64
2022-09-24 11:03:20 GMT 53.793762 -2.697628 41,000 154 511 -64
2022-09-24 11:03:18 GMT 53.798218 -2.701224 41,000 154 511 64
2022-09-24 11:03:15 GMT 53.805634 -2.707322 40,975 154 511 64
2022-09-24 11:03:12 GMT 53.811401 -2.711975 40,975 154 511 0
2022-09-24 11:03:09 GMT 53.816483 -2.716134 40,975 154 511 64
2022-09-24 11:03:07 GMT 53.821609 -2.720293 40,975 154 511 64
2022-09-24 11:03:04 GMT 53.826736 -2.724452 40,975 154 512 0
2022-09-24 11:03:02 GMT 53.836075 -2.732064 41,000 154 512 0
2022-09-24 11:03:00 GMT 53.836075 -2.732064 40,975 154 512 64
2022-09-24 11:02:57 GMT 53.841614 -2.736537 40,975 154 513 0
2022-09-24 11:02:54 GMT 53.848648 -2.742301 40,975 154 513 -64
2022-09-24 11:02:51 GMT 53.859558 -2.751134 41,000 154 513 0
2022-09-24 11:02:49 GMT 53.859558 -2.751134 40,975 154 513 0
2022-09-24 11:02:46 GMT 53.865314 -2.755791 41,000 154 513 -64
2022-09-24 11:02:43 GMT 53.871918 -2.761178 41,000 154 513 -64
2022-09-24 11:02:40 GMT 53.880478 -2.768084 41,000 154 513 0
2022-09-24 11:02:37 GMT 53.884735 -2.771615 40,975 154 514 0
2022-09-24 11:02:35 GMT 53.890320 -2.776167 41,000 154 514 -64
2022-09-24 11:02:32 GMT 53.896503 -2.781237 41,000 154 514 -64
2022-09-24 11:02:29 GMT 53.902679 -2.786290 41,000 154 514 -64
2022-09-24 11:02:26 GMT 53.908470 -2.791012 40,975 154 514 -64
2022-09-24 11:02:23 GMT 53.915730 -2.796909 41,000 154 514 0
2022-09-24 11:02:20 GMT 53.920013 -2.800464 40,975 154 514 0
2022-09-24 11:02:18 GMT 53.931976 -2.810238 40,975 154 514 64
2022-09-24 11:02:15 GMT 53.937984 -2.815166 40,975 154 515 0
2022-09-24 11:02:12 GMT 53.937984 -2.815166 40,975 154 515 0
2022-09-24 11:02:10 GMT 53.944153 -2.820190 40,975 154 515 0
2022-09-24 11:02:07 GMT 53.948223 -2.823486 40,975 154 515 0
2022-09-24 11:02:05 GMT 53.953346 -2.827768 40,975 154 515 -64
2022-09-24 11:02:03 GMT 53.957626 -2.831241 40,975 154 515 -64
2022-09-24 11:02:00 GMT 53.964935 -2.837219 40,975 154 514 0
2022-09-24 11:01:58 GMT 53.968964 -2.840515 40,975 154 514 -64
2022-09-24 11:01:55 GMT 53.974758 -2.845297 40,975 154 514 -64
2022-09-24 11:01:52 GMT 53.981602 -2.850871 41,000 154 514 -64
2022-09-24 11:01:49 GMT 53.989059 -2.856995 41,000 154 514 0
2022-09-24 11:01:46 GMT 53.994598 -2.861546 41,000 154 513 -64
2022-09-24 11:01:43 GMT 54.000137 -2.866098 41,000 154 513 0
2022-09-24 11:01:40 GMT 54.006958 -2.871748 41,000 154 513 0
2022-09-24 11:01:38 GMT 54.016563 -2.879630 40,975 154 513 0
2022-09-24 11:01:35 GMT 54.016563 -2.879630 41,000 154 513 0
2022-09-24 11:01:33 GMT 54.022339 -2.884304 40,975 154 513 0
2022-09-24 11:01:30 GMT 54.032764 -2.892959 41,000 154 512 0
2022-09-24 11:01:28 GMT 54.032764 -2.892959 40,975 154 512 0
2022-09-24 11:01:25 GMT 54.037418 -2.896755 40,975 154 512 -64
2022-09-24 11:01:23 GMT 54.043797 -2.902006 41,000 154 512 -64
2022-09-24 11:01:20 GMT 54.049988 -2.907061 41,000 154 512 -64
2022-09-24 11:01:18 GMT 54.053200 -2.909761 40,975 154 512 -64
2022-09-24 11:01:15 GMT 54.061253 -2.916385 40,975 154 511 -64
2022-09-24 11:01:12 GMT 54.065735 -2.920088 41,000 154 511 -64
2022-09-24 11:01:09 GMT 54.071449 -2.924787 41,000 154 511 -64
2022-09-24 11:01:07 GMT 54.078049 -2.930211 40,975 154 511 -64
2022-09-24 11:01:04 GMT 54.084412 -2.935468 41,000 153 509 0
2022-09-24 11:01:01 GMT 54.089493 -2.939706 41,000 153 510 -64
2022-09-24 11:00:59 GMT 54.093933 -2.943367 40,975 153 510 0
2022-09-24 11:00:56 GMT 54.101349 -2.949515 41,000 153 510 0
2022-09-24 11:00:53 GMT 54.108738 -2.955645 40,975 153 509 0
2022-09-24 11:00:50 GMT 54.112972 -2.959200 40,975 153 509 0
2022-09-24 11:00:48 GMT 54.118240 -2.963562 41,000 154 509 -64
2022-09-24 11:00:45 GMT 54.124378 -2.968651 41,000 153 509 -64
2022-09-24 11:00:42 GMT 54.129452 -2.972852 41,000 153 508 64
2022-09-24 11:00:39 GMT 54.134720 -2.977216 41,000 153 508 0
2022-09-24 11:00:37 GMT 54.141277 -2.982707 41,000 153 508 0
2022-09-24 11:00:34 GMT 54.146530 -2.987104 41,000 153 508 64
2022-09-24 11:00:32 GMT 54.150742 -2.990557 40,975 153 508 64
2022-09-24 11:00:29 GMT 54.164246 -3.001857 40,975 153 508 0
2022-09-24 11:00:26 GMT 54.164246 -3.001857 40,975 154 509 0
2022-09-24 11:00:23 GMT 54.175644 -3.011274 40,975 154 509 0
2022-09-24 11:00:20 GMT 54.175644 -3.011274 40,975 154 509 0
2022-09-24 11:00:18 GMT 54.180939 -3.015666 40,975 154 509 0
2022-09-24 11:00:15 GMT 54.187500 -3.021083 40,975 154 510 -64
2022-09-24 11:00:12 GMT 54.192764 -3.025522 40,975 154 509 -64
2022-09-24 11:00:09 GMT 54.200592 -3.031991 40,975 154 510 -64
2022-09-24 11:00:06 GMT 54.205673 -3.036229 41,000 154 510 -64
2022-09-24 11:00:03 GMT 54.212906 -3.042193 41,000 154 510 -64
2022-09-24 11:00:00 GMT 54.218811 -3.047058 41,000 154 510 -64
2022-09-24 10:59:58 GMT 54.221161 -3.048948 41,000 154 510 -64
2022-09-24 10:59:56 GMT 54.226700 -3.053472 41,000 154 510 0
2022-09-24 10:59:53 GMT 54.234100 -3.059614 41,000 154 511 0
2022-09-24 10:59:51 GMT 54.238571 -3.063247 41,000 154 511 -64
2022-09-24 10:59:48 GMT 54.251743 -3.073991 41,000 154 511 0
2022-09-24 10:59:45 GMT 54.251743 -3.073991 41,000 154 511 -64
2022-09-24 10:59:42 GMT 54.256866 -3.078191 41,000 154 511 -64
2022-09-24 10:59:39 GMT 54.264313 -3.084255 41,000 154 511 -64
2022-09-24 10:59:36 GMT 54.270264 -3.089120 41,000 154 511 -64
2022-09-24 10:59:33 GMT 54.276417 -3.094186 41,000 154 511 -64
2022-09-24 10:59:30 GMT 54.282795 -3.099393 41,000 154 511 0
2022-09-24 10:59:28 GMT 54.287033 -3.102972 41,000 154 510 0
2022-09-24 10:59:25 GMT 54.294891 -3.109373 41,000 154 511 -64
2022-09-24 10:59:22 GMT 54.306381 -3.118905 41,000 154 511 0
2022-09-24 10:59:19 GMT 54.306381 -3.118905 41,000 154 511 0
2022-09-24 10:59:16 GMT 54.319977 -3.130053 40,975 154 511 64
2022-09-24 10:59:13 GMT 54.319977 -3.130053 40,975 154 511 64
2022-09-24 10:59:10 GMT 54.324039 -3.133351 40,975 154 511 64
2022-09-24 10:59:08 GMT 54.329117 -3.137595 40,975 154 511 64
2022-09-24 10:59:05 GMT 54.335491 -3.142839 40,975 154 512 64
2022-09-24 10:59:02 GMT 54.342754 -3.148831 40,975 154 513 -64
2022-09-24 10:58:59 GMT 54.348541 -3.153561 40,975 154 513 -64
2022-09-24 10:58:56 GMT 54.355362 -3.159135 41,000 154 514 -64
2022-09-24 10:58:52 GMT 54.363705 -3.165977 41,000 154 514 -64
2022-09-24 10:58:49 GMT 54.369709 -3.170804 41,000 154 515 -64
2022-09-24 10:58:47 GMT 54.375248 -3.175382 41,000 154 514 -64
2022-09-24 10:58:44 GMT 54.381252 -3.180292 41,000 154 516 -64
2022-09-24 10:58:41 GMT 54.386215 -3.184420 40,975 153 515 -64
2022-09-24 10:58:38 GMT 54.392380 -3.189614 40,975 153 516 0
2022-09-24 10:58:35 GMT 54.399593 -3.195856 41,000 152 515 0
2022-09-24 10:58:32 GMT 54.406586 -3.201949 40,975 152 516 -64
2022-09-24 10:58:29 GMT 54.412079 -3.206877 40,975 152 515 -64
2022-09-24 10:58:27 GMT 54.414864 -3.209339 40,975 152 516 -64
2022-09-24 10:58:25 GMT 54.421371 -3.215278 40,975 151 516 0
2022-09-24 10:58:22 GMT 54.426594 -3.220076 40,975 149 515 -64
2022-09-24 10:58:19 GMT 54.433300 -3.226402 40,975 150 516 -64
2022-09-24 10:58:18 GMT 54.439537 -3.232311 40,975 150 516 -64
2022-09-24 10:58:16 GMT 54.439537 -3.232311 40,975 150 516 0
2022-09-24 10:58:15 GMT 54.444099 -3.236722 40,975 150 515 -64
2022-09-24 10:58:12 GMT 54.448242 -3.240800 41,000 150 516 -64
2022-09-24 10:58:10 GMT 54.452179 -3.244683 41,000 149 515 -64
2022-09-24 10:58:09 GMT 54.454239 -3.246702 41,000 149 516 -64
2022-09-24 10:58:07 GMT 54.458111 -3.250621 41,000 149 516 -64
2022-09-24 10:58:06 GMT 54.459961 -3.252519 40,975 149 516 -64
2022-09-24 10:58:05 GMT 54.464256 -3.256864 40,975 149 516 -64
2022-09-24 10:58:02 GMT 54.472641 -3.265524 41,000 148 515 -64
2022-09-24 10:58:00 GMT 54.472641 -3.265524 41,000 148 515 -64
2022-09-24 10:57:58 GMT 54.476257 -3.269402 41,000 148 515 0
2022-09-24 10:57:56 GMT 54.479095 -3.272391 41,000 148 514 0
2022-09-24 10:57:54 GMT 54.484924 -3.278670 40,975 147 514 0
2022-09-24 10:57:53 GMT 54.486740 -3.280631 41,000 147 514 0
2022-09-24 10:57:52 GMT 54.492737 -3.287174 41,000 147 514 0
2022-09-24 10:57:50 GMT 54.492737 -3.287174 41,000 147 515 0
2022-09-24 10:57:49 GMT 54.497131 -3.292021 40,975 146 513 0
2022-09-24 10:57:46 GMT 54.500748 -3.296060 40,975 146 514 -64
2022-09-24 10:57:44 GMT 54.504524 -3.300310 41,000 146 514 -64
2022-09-24 10:57:43 GMT 54.506287 -3.302280 41,000 146 514 -64
2022-09-24 10:57:42 GMT 54.508255 -3.304542 40,975 146 515 -64
2022-09-24 10:57:41 GMT 54.510269 -3.306804 41,000 146 514 -64
2022-09-24 10:57:40 GMT 54.514393 -3.311546 41,000 145 514 -64
2022-09-24 10:57:38 GMT 54.516350 -3.313876 41,000 145 514 -64
2022-09-24 10:57:37 GMT 54.520306 -3.318454 41,000 145 514 0
2022-09-24 10:57:35 GMT 54.522034 -3.320537 41,000 145 513 0
2022-09-24 10:57:34 GMT 54.528080 -3.327692 40,975 144 514 -64
2022-09-24 10:57:32 GMT 54.528080 -3.327692 41,000 144 514 -64
2022-09-24 10:57:30 GMT 54.532364 -3.332852 41,000 144 513 -64
2022-09-24 10:57:28 GMT 54.537807 -3.339428 41,000 144 513 -64
2022-09-24 10:57:26 GMT 54.542416 -3.345087 41,000 144 513 0
2022-09-24 10:57:24 GMT 54.544189 -3.347195 41,000 144 513 0
2022-09-24 10:57:23 GMT 54.546329 -3.349748 41,000 144 513 0
2022-09-24 10:57:20 GMT 54.551147 -3.355677 40,975 144 513 0
2022-09-24 10:57:19 GMT 54.555038 -3.360362 40,975 144 513 64
2022-09-24 10:57:17 GMT 54.556755 -3.362482 40,975 144 513 64
2022-09-24 10:57:15 GMT 54.561039 -3.367642 40,975 144 513 64
2022-09-24 10:57:13 GMT 54.564529 -3.371887 40,975 144 513 0
2022-09-24 10:57:11 GMT 54.568588 -3.376761 40,975 144 513 0
2022-09-24 10:57:10 GMT 54.570721 -3.379378 40,975 144 513 0
2022-09-24 10:57:08 GMT 54.574631 -3.384122 40,975 144 514 0
2022-09-24 10:57:07 GMT 54.576542 -3.386452 40,975 144 514 0
2022-09-24 10:57:06 GMT 54.578495 -3.388783 40,975 144 514 -64
2022-09-24 10:57:04 GMT 54.583942 -3.395358 40,975 144 514 0
2022-09-24 10:57:02 GMT 54.585663 -3.397522 41,000 144 514 -64
2022-09-24 10:57:00 GMT 54.591888 -3.405035 41,000 144 514 -64
2022-09-24 10:56:58 GMT 54.593857 -3.407377 41,000 144 515 -64
2022-09-24 10:56:56 GMT 54.597748 -3.412063 40,975 144 515 -64
2022-09-24 10:56:54 GMT 54.601639 -3.416829 41,000 144 516 -64
2022-09-24 10:56:52 GMT 54.607452 -3.423857 41,000 144 516 -64
2022-09-24 10:56:49 GMT 54.611343 -3.428623 41,000 144 516 -64
2022-09-24 10:56:47 GMT 54.615410 -3.433560 41,000 144 516 0
2022-09-24 10:56:46 GMT 54.617569 -3.436136 40,975 144 516 0
2022-09-24 10:56:45 GMT 54.619694 -3.438721 41,000 144 515 0
2022-09-24 10:56:44 GMT 54.624573 -3.444699 41,000 144 515 64
2022-09-24 10:56:41 GMT 54.627274 -3.448011 41,000 144 515 0
2022-09-24 10:56:40 GMT 54.629242 -3.450353 41,000 144 515 -64
2022-09-24 10:56:39 GMT 54.631165 -3.452696 41,000 144 516 -64
2022-09-24 10:56:36 GMT 54.637024 -3.459805 41,000 144 516 -64
2022-09-24 10:56:34 GMT 54.641109 -3.464772 41,000 144 516 0
2022-09-24 10:56:33 GMT 54.642838 -3.466914 41,000 144 516 0
2022-09-24 10:56:32 GMT 54.644974 -3.469516 41,000 144 516 0
2022-09-24 10:56:29 GMT 54.649841 -3.475476 41,000 144 516 -64
2022-09-24 10:56:28 GMT 54.656479 -3.483474 41,000 144 516 0
2022-09-24 10:56:26 GMT 54.656479 -3.483474 40,975 144 516 0
2022-09-24 10:56:25 GMT 54.658192 -3.485662 40,975 144 516 0
2022-09-24 10:56:24 GMT 54.660370 -3.488240 40,975 144 516 64
2022-09-24 10:56:23 GMT 54.666183 -3.495349 40,975 144 516 64
2022-09-24 10:56:21 GMT 54.666183 -3.495349 40,975 144 516 64
2022-09-24 10:56:20 GMT 54.670296 -3.500311 41,000 144 516 -64
2022-09-24 10:56:17 GMT 54.675743 -3.506969 40,975 144 515 64
2022-09-24 10:56:15 GMT 54.677650 -3.509383 40,975 144 515 64
2022-09-24 10:56:13 GMT 54.681747 -3.514332 40,975 144 515 0
2022-09-24 10:56:11 GMT 54.685844 -3.519287 40,975 144 515 0
2022-09-24 10:56:09 GMT 54.691452 -3.526207 40,975 144 515 -64
2022-09-24 10:56:06 GMT 54.695526 -3.531189 40,975 144 515 -64
2022-09-24 10:56:04 GMT 54.699436 -3.535933 41,000 144 515 -64
2022-09-24 10:56:03 GMT 54.701157 -3.538082 40,975 144 514 -64
2022-09-24 10:56:01 GMT 54.708939 -3.547534 40,975 144 514 -64
2022-09-24 10:55:59 GMT 54.708939 -3.547534 40,975 144 514 -64
2022-09-24 10:55:58 GMT 54.712986 -3.552496 40,975 144 514 -64
2022-09-24 10:55:56 GMT 54.715313 -3.555326 41,000 144 514 -64
2022-09-24 10:55:55 GMT 54.717041 -3.557470 41,000 144 514 -64
2022-09-24 10:55:53 GMT 54.720760 -3.561984 41,000 144 514 -64
2022-09-24 10:55:52 GMT 54.722488 -3.564094 41,000 144 514 -64
2022-09-24 10:55:50 GMT 54.726158 -3.568642 41,000 144 514 -64
2022-09-24 10:55:49 GMT 54.727936 -3.570718 41,000 144 514 0
2022-09-24 10:55:47 GMT 54.732769 -3.576632 41,000 144 514 0
2022-09-24 10:55:46 GMT 54.733932 -3.578047 41,000 144 514 -64
2022-09-24 10:55:44 GMT 54.738007 -3.583078 41,000 144 514 -64
2022-09-24 10:55:43 GMT 54.739754 -3.585205 41,000 144 514 -64
2022-09-24 10:55:41 GMT 54.743614 -3.589949 41,000 144 514 64
2022-09-24 10:55:39 GMT 54.747299 -3.594468 40,975 144 514 64
2022-09-24 10:55:37 GMT 54.750973 -3.598938 40,975 144 514 0
2022-09-24 10:55:35 GMT 54.757164 -3.606512 40,975 144 514 0
2022-09-24 10:55:33 GMT 54.758926 -3.608686 40,975 144 514 -64
2022-09-24 10:55:31 GMT 54.762772 -3.613452 41,000 144 514 -64
2022-09-24 10:55:30 GMT 54.763962 -3.614825 41,000 144 514 -64
2022-09-24 10:55:29 GMT 54.765884 -3.617249 41,000 144 514 -64
2022-09-24 10:55:27 GMT 54.772476 -3.625327 40,975 144 514 -64
2022-09-24 10:55:25 GMT 54.774200 -3.627403 41,000 144 514 0
2022-09-24 10:55:23 GMT 54.777691 -3.631731 41,000 144 514 -64
2022-09-24 10:55:22 GMT 54.779846 -3.634374 40,975 144 514 -64
2022-09-24 10:55:21 GMT 54.781769 -3.636717 41,000 144 514 0
2022-09-24 10:55:19 GMT 54.785660 -3.641483 40,975 144 514 0
2022-09-24 10:55:18 GMT 54.787422 -3.643632 40,975 144 514 -64
2022-09-24 10:55:17 GMT 54.792076 -3.649375 41,000 144 514 -64
2022-09-24 10:55:15 GMT 54.793030 -3.650531 40,975 144 514 0
2022-09-24 10:55:14 GMT 54.795364 -3.653358 40,975 144 514 0
2022-09-24 10:55:13 GMT 54.800968 -3.660278 41,000 144 514 -64
2022-09-24 10:55:11 GMT 54.800968 -3.660278 41,000 144 514 -64
2022-09-24 10:55:10 GMT 54.802925 -3.662692 41,000 144 515 -64
2022-09-24 10:55:09 GMT 54.807404 -3.668141 41,000 144 516 64
2022-09-24 10:55:07 GMT 54.809326 -3.670565 41,000 144 515 64
2022-09-24 10:55:05 GMT 54.813995 -3.676300 41,000 144 515 64
2022-09-24 10:55:04 GMT 54.815727 -3.678422 40,975 144 515 64
2022-09-24 10:55:02 GMT 54.819809 -3.683409 41,000 144 515 64
2022-09-24 10:55:00 GMT 54.826767 -3.692053 40,975 144 516 64
2022-09-24 10:54:58 GMT 54.826767 -3.692053 40,975 144 516 64
2022-09-24 10:54:56 GMT 54.830658 -3.696819 40,975 144 516 64
2022-09-24 10:54:55 GMT 54.832626 -3.699242 40,975 144 516 0
2022-09-24 10:54:53 GMT 54.836304 -3.703807 40,975 144 516 -64
2022-09-24 10:54:52 GMT 54.838028 -3.705947 40,975 144 516 0
2022-09-24 10:54:50 GMT 54.842697 -3.711682 40,975 144 517 -64
2022-09-24 10:54:49 GMT 54.844666 -3.714106 41,000 144 518 -64
2022-09-24 10:54:47 GMT 54.848358 -3.718706 40,975 144 518 -64
2022-09-24 10:54:46 GMT 54.850315 -3.721119 41,000 144 518 -64
2022-09-24 10:54:45 GMT 54.852448 -3.723719 41,000 144 518 -64
2022-09-24 10:54:43 GMT 54.857483 -3.729939 40,975 144 518 -64
2022-09-24 10:54:42 GMT 54.857483 -3.729939 40,975 144 518 -128
2022-09-24 10:54:40 GMT 54.861580 -3.735019 41,000 144 518 -64
2022-09-24 10:54:38 GMT 54.865490 -3.739846 41,000 144 518 -64
2022-09-24 10:54:36 GMT 54.870193 -3.745672 41,000 144 519 -64
2022-09-24 10:54:33 GMT 54.875217 -3.751914 41,000 144 519 -64
2022-09-24 10:54:32 GMT 54.877174 -3.754328 41,000 144 519 -64
2022-09-24 10:54:31 GMT 54.879131 -3.756742 41,000 144 519 -64
2022-09-24 10:54:30 GMT 54.881878 -3.760071 40,975 144 519 -64
2022-09-24 10:54:28 GMT 54.885956 -3.765160 41,000 144 519 0
2022-09-24 10:54:26 GMT 54.889893 -3.770007 41,000 144 519 -64
2022-09-24 10:54:25 GMT 54.891815 -3.772430 41,000 144 519 -64
2022-09-24 10:54:24 GMT 54.893562 -3.774553 41,000 144 519 -64
2022-09-24 10:54:21 GMT 54.899643 -3.782043 41,000 144 519 0
2022-09-24 10:54:20 GMT 54.904312 -3.787860 40,975 144 519 0
2022-09-24 10:54:17 GMT 54.906456 -3.790450 40,975 144 519 -64
2022-09-24 10:54:16 GMT 54.908615 -3.793111 41,000 144 519 -64
2022-09-24 10:54:15 GMT 54.912506 -3.797957 41,000 144 519 0
2022-09-24 10:54:13 GMT 54.914276 -3.800104 40,975 144 519 -64
2022-09-24 10:54:12 GMT 54.916397 -3.802804 40,975 144 519 -64
2022-09-24 10:54:11 GMT 54.920700 -3.808055 41,000 144 519 -64
2022-09-24 10:54:09 GMT 54.922668 -3.810479 41,000 144 519 -64
2022-09-24 10:54:07 GMT 54.926147 -3.814841 41,000 144 519 -64
2022-09-24 10:54:06 GMT 54.928707 -3.817999 41,000 144 519 -64
2022-09-24 10:54:05 GMT 54.929871 -3.819414 41,000 144 519 -64
2022-09-24 10:54:03 GMT 54.934341 -3.825019 41,000 144 519 -64
2022-09-24 10:54:02 GMT 54.936527 -3.827653 40,975 144 519 -64
2022-09-24 10:54:01 GMT 54.940392 -3.832481 41,000 144 519 0
2022-09-24 10:53:59 GMT 54.942348 -3.834894 40,975 144 519 0
2022-09-24 10:53:58 GMT 54.946259 -3.839722 40,975 144 519 64
2022-09-24 10:53:56 GMT 54.948395 -3.842387 40,975 144 519 0
2022-09-24 10:53:55 GMT 54.952126 -3.846963 41,000 144 519 -64
2022-09-24 10:53:52 GMT 54.955811 -3.851597 40,975 144 519 64
2022-09-24 10:53:50 GMT 54.959526 -3.856201 40,975 144 518 0
2022-09-24 10:53:49 GMT 54.961670 -3.858867 41,000 144 518 0
2022-09-24 10:53:48 GMT 54.964005 -3.861775 40,975 144 518 0
2022-09-24 10:53:46 GMT 54.967896 -3.866622 40,975 144 518 -64
2022-09-24 10:53:44 GMT 54.970421 -3.869768 40,975 144 519 -64
2022-09-24 10:53:43 GMT 54.972374 -3.872181 40,975 144 519 -64
2022-09-24 10:53:40 GMT 54.980148 -3.881836 41,000 144 519 -64
2022-09-24 10:53:38 GMT 54.982895 -3.885248 40,975 144 519 -64
2022-09-24 10:53:37 GMT 54.987595 -3.891074 40,975 144 519 -64
2022-09-24 10:53:34 GMT 54.990509 -3.894734 40,975 144 519 0
2022-09-24 10:53:33 GMT 54.994579 -3.899814 41,000 144 519 -64
2022-09-24 10:53:31 GMT 54.996532 -3.902227 40,975 144 519 -64
2022-09-24 10:53:29 GMT 55.000626 -3.907336 41,000 144 518 -128
2022-09-24 10:53:28 GMT 55.002594 -3.909760 41,000 144 518 -128
2022-09-24 10:53:27 GMT 55.006683 -3.914795 41,000 144 518 -64
2022-09-24 10:53:24 GMT 55.010376 -3.919453 41,000 144 518 0
2022-09-24 10:53:22 GMT 55.014267 -3.924300 41,000 144 518 -64
2022-09-24 10:53:21 GMT 55.016041 -3.926447 41,000 144 518 -64
2022-09-24 10:53:20 GMT 55.020905 -3.932459 41,000 144 518 -64
2022-09-24 10:53:18 GMT 55.020905 -3.932459 41,000 144 518 -64
2022-09-24 10:53:16 GMT 55.025768 -3.938599 41,000 144 518 -64
2022-09-24 10:53:14 GMT 55.028687 -3.942153 41,000 144 518 0
2022-09-24 10:53:11 GMT 55.035278 -3.950393 41,000 144 518 0
2022-09-24 10:53:09 GMT 55.040154 -3.956493 41,000 144 518 64
2022-09-24 10:53:07 GMT 55.043644 -3.960904 41,000 144 518 64
2022-09-24 10:53:04 GMT 55.048302 -3.966647 40,975 144 518 -64
2022-09-24 10:53:02 GMT 55.053131 -3.972769 40,975 144 518 -64
2022-09-24 10:52:59 GMT 55.058990 -3.980040 40,975 144 518 -64
2022-09-24 10:52:55 GMT 55.066177 -3.989036 41,000 144 518 0
2022-09-24 10:52:52 GMT 55.072414 -3.996776 41,000 144 518 -64
2022-09-24 10:52:50 GMT 55.077255 -4.002901 40,975 144 519 -64
2022-09-24 10:52:47 GMT 55.087173 -4.015253 41,000 144 519 -64
2022-09-24 10:52:45 GMT 55.087173 -4.015253 41,000 144 519 0
2022-09-24 10:52:42 GMT 55.090897 -4.019865 41,000 144 519 64
2022-09-24 10:52:39 GMT 55.097691 -4.028404 41,000 144 519 0
2022-09-24 10:52:37 GMT 55.100601 -4.032063 40,975 144 519 0
2022-09-24 10:52:35 GMT 55.110764 -4.044746 40,975 144 520 64
2022-09-24 10:52:32 GMT 55.110764 -4.044746 40,975 144 520 64
2022-09-24 10:52:29 GMT 55.116989 -4.052582 40,975 144 520 64
2022-09-24 10:52:27 GMT 55.119736 -4.056055 40,975 144 521 64
2022-09-24 10:52:25 GMT 55.124599 -4.062195 40,975 144 522 -64
2022-09-24 10:52:22 GMT 55.132233 -4.071727 40,975 144 522 -64
2022-09-24 10:52:19 GMT 55.136124 -4.076655 40,975 144 522 -64
2022-09-24 10:52:17 GMT 55.140472 -4.082067 41,000 144 522 -64
2022-09-24 10:52:14 GMT 55.145920 -4.088934 41,000 144 523 -128
2022-09-24 10:52:12 GMT 55.149273 -4.093073 41,000 144 523 -128
2022-09-24 10:52:10 GMT 55.154346 -4.099482 41,000 144 523 -128
2022-09-24 10:52:08 GMT 55.157093 -4.102977 41,000 144 523 -128
2022-09-24 10:52:05 GMT 55.163956 -4.111553 40,975 144 523 -64
2022-09-24 10:52:02 GMT 55.171417 -4.120923 41,000 144 523 -64
2022-09-24 10:51:59 GMT 55.176086 -4.126820 41,000 144 523 -64
2022-09-24 10:51:57 GMT 55.179020 -4.130526 41,000 144 522 -64
2022-09-24 10:51:54 GMT 55.187073 -4.140553 41,000 144 522 -64
2022-09-24 10:51:51 GMT 55.190186 -4.144512 41,000 144 522 -64
2022-09-24 10:51:49 GMT 55.194901 -4.150409 41,000 144 522 -64
2022-09-24 10:51:47 GMT 55.203320 -4.160989 41,000 144 522 -64
2022-09-24 10:51:45 GMT 55.203320 -4.160989 41,000 144 522 -128
2022-09-24 10:51:42 GMT 55.213669 -4.174078 41,000 144 522 -64
2022-09-24 10:51:40 GMT 55.213669 -4.174078 41,000 144 521 -64
2022-09-24 10:51:38 GMT 55.216961 -4.178217 40,975 144 521 -64
2022-09-24 10:51:35 GMT 55.222824 -4.185625 41,000 144 521 -64
2022-09-24 10:51:32 GMT 55.228271 -4.192533 41,000 144 520 -64
2022-09-24 10:51:30 GMT 55.232182 -4.197443 41,000 144 520 -64
2022-09-24 10:51:28 GMT 55.236465 -4.202853 41,000 144 520 -64
2022-09-24 10:51:26 GMT 55.240173 -4.207521 41,000 144 520 0
2022-09-24 10:51:24 GMT 55.245403 -4.214172 41,000 144 521 0
2022-09-24 10:51:21 GMT 55.254181 -4.225293 41,000 144 521 0
2022-09-24 10:51:19 GMT 55.254181 -4.225293 41,000 144 520 64
2022-09-24 10:51:17 GMT 55.258850 -4.231190 41,000 144 520 64
2022-09-24 10:51:14 GMT 55.263107 -4.236603 40,975 144 520 64
2022-09-24 10:51:12 GMT 55.268188 -4.243065 40,975 144 521 0
2022-09-24 10:51:09 GMT 55.273800 -4.250211 41,000 144 521 -64
2022-09-24 10:51:07 GMT 55.276749 -4.253890 40,975 144 521 -64
2022-09-24 10:51:04 GMT 55.283947 -4.263028 40,975 144 522 -64
2022-09-24 10:51:02 GMT 55.286865 -4.266734 40,975 144 521 0
2022-09-24 10:51:00 GMT 55.295059 -4.277155 40,975 144 522 -64
2022-09-24 10:50:58 GMT 55.295059 -4.277155 40,975 144 522 -64
2022-09-24 10:50:55 GMT 55.301079 -4.284751 41,000 144 521 -64
2022-09-24 10:50:52 GMT 55.306946 -4.292159 41,000 144 522 -64
2022-09-24 10:50:50 GMT 55.310623 -4.296866 41,000 144 522 -64
2022-09-24 10:50:48 GMT 55.314346 -4.301564 40,975 144 521 -64
2022-09-24 10:50:45 GMT 55.322121 -4.311468 41,000 144 521 -64
2022-09-24 10:50:42 GMT 55.326233 -4.316658 40,975 144 521 -64
2022-09-24 10:50:39 GMT 55.331268 -4.323120 41,000 144 520 -64
2022-09-24 10:50:37 GMT 55.340042 -4.334190 41,000 144 520 -64
2022-09-24 10:50:35 GMT 55.340042 -4.334190 41,000 144 520 -64
2022-09-24 10:50:32 GMT 55.345688 -4.341377 41,000 144 519 0
2022-09-24 10:50:30 GMT 55.349579 -4.346305 41,000 144 519 -64
2022-09-24 10:50:28 GMT 55.351681 -4.349005 41,000 144 519 -64
2022-09-24 10:50:26 GMT 55.355759 -4.354221 41,000 144 519 -64
2022-09-24 10:50:24 GMT 55.361412 -4.361323 41,000 144 519 -64
2022-09-24 10:50:21 GMT 55.367432 -4.369004 41,000 144 519 -64
2022-09-24 10:50:18 GMT 55.371323 -4.373932 41,000 144 519 -64
2022-09-24 10:50:16 GMT 55.376911 -4.381131 41,000 144 519 0
2022-09-24 10:50:13 GMT 55.382538 -4.388311 41,000 143 519 64
2022-09-24 10:50:11 GMT 55.391670 -4.399858 41,000 144 519 -64
2022-09-24 10:50:08 GMT 55.391670 -4.399858 41,000 144 519 -64
2022-09-24 10:50:05 GMT 55.397644 -4.407537 41,000 143 519 0
2022-09-24 10:50:02 GMT 55.405590 -4.417752 41,000 143 519 0
2022-09-24 10:49:59 GMT 55.409454 -4.422663 41,000 143 519 0
2022-09-24 10:49:57 GMT 55.413364 -4.427657 41,000 143 520 -64
2022-09-24 10:49:55 GMT 55.417419 -4.432822 40,975 143 520 64
2022-09-24 10:49:52 GMT 55.423233 -4.440335 40,975 143 521 0
2022-09-24 10:49:49 GMT 55.428864 -4.447549 40,975 143 521 64
2022-09-24 10:49:47 GMT 55.432571 -4.452209 40,975 143 521 64
2022-09-24 10:49:44 GMT 55.438595 -4.459950 40,975 143 521 64
2022-09-24 10:49:41 GMT 55.443623 -4.466442 40,975 143 521 -64
2022-09-24 10:49:39 GMT 55.448322 -4.472466 40,975 143 521 -64
2022-09-24 10:49:37 GMT 55.451248 -4.476180 40,975 143 522 0
2022-09-24 10:49:34 GMT 55.459030 -4.486167 40,975 143 523 0
2022-09-24 10:49:31 GMT 55.462708 -4.490919 40,975 143 523 -64
2022-09-24 10:49:29 GMT 55.468002 -4.497653 40,975 143 523 -64
2022-09-24 10:49:27 GMT 55.470703 -4.501149 40,975 143 523 -64
2022-09-24 10:49:24 GMT 55.477341 -4.509638 41,000 143 523 -64
2022-09-24 10:49:21 GMT 55.483612 -4.517628 41,000 143 523 -64
2022-09-24 10:49:18 GMT 55.489471 -4.525119 40,975 143 523 -64
2022-09-24 10:49:15 GMT 55.495331 -4.532693 40,975 143 523 -64
2022-09-24 10:49:12 GMT 55.501556 -4.540683 40,975 143 523 -64
2022-09-24 10:49:10 GMT 55.510529 -4.552168 41,000 143 523 -128
2022-09-24 10:49:07 GMT 55.510529 -4.552168 41,000 143 523 -64
2022-09-24 10:49:04 GMT 55.522064 -4.566965 41,000 144 524 -64
2022-09-24 10:49:01 GMT 55.522064 -4.566965 41,000 144 524 -64
2022-09-24 10:48:58 GMT 55.528107 -4.574807 41,000 144 524 -128
2022-09-24 10:48:56 GMT 55.535748 -4.584560 41,000 144 524 -64
2022-09-24 10:48:54 GMT 55.535748 -4.584560 41,000 143 523 64
2022-09-24 10:48:51 GMT 55.541016 -4.591370 41,000 143 523 -64
2022-09-24 10:48:48 GMT 55.547852 -4.600096 41,000 143 523 -64
2022-09-24 10:48:46 GMT 55.550972 -4.604130 40,975 143 523 64
2022-09-24 10:48:44 GMT 55.555069 -4.609430 40,975 143 523 -64
2022-09-24 10:48:41 GMT 55.561295 -4.617504 40,975 143 523 -64
2022-09-24 10:48:38 GMT 55.567730 -4.625759 40,975 143 523 -64
2022-09-24 10:48:34 GMT 55.576126 -4.636563 40,975 143 523 -64
2022-09-24 10:48:31 GMT 55.580795 -4.642639 41,000 143 523 0
2022-09-24 10:48:28 GMT 55.591278 -4.656206 41,000 143 522 128
2022-09-24 10:48:26 GMT 55.591278 -4.656206 41,000 143 522 128
2022-09-24 10:48:24 GMT 55.594219 -4.660006 40,975 143 522 64
2022-09-24 10:48:21 GMT 55.600410 -4.668074 41,000 143 523 0
2022-09-24 10:48:18 GMT 55.609177 -4.679427 40,975 143 523 0
2022-09-24 10:48:13 GMT 55.616180 -4.688499 41,000 143 523 -128
2022-09-24 10:48:10 GMT 55.620708 -4.694252 41,000 143 523 -64
2022-09-24 10:48:08 GMT 55.625732 -4.700861 41,000 143 523 -128
2022-09-24 10:48:04 GMT 55.634537 -4.712136 41,000 143 523 64
2022-09-24 10:48:01 GMT 55.639420 -4.718456 40,975 143 523 64
2022-09-24 10:47:58 GMT 55.645065 -4.725869 40,975 143 524 64
2022-09-24 10:47:56 GMT 55.648544 -4.730363 41,000 143 523 -64
2022-09-24 10:47:53 GMT 55.654404 -4.738020 40,975 143 524 -64
2022-09-24 10:47:50 GMT 55.660835 -4.746351 41,000 143 524 -64
2022-09-24 10:47:47 GMT 55.665344 -4.752170 40,975 143 525 0
2022-09-24 10:47:45 GMT 55.669235 -4.757247 40,975 143 525 64
2022-09-24 10:47:43 GMT 55.674683 -4.764321 41,000 143 525 -64
2022-09-24 10:47:40 GMT 55.680759 -4.772186 40,975 143 525 -64
2022-09-24 10:47:37 GMT 55.685623 -4.778553 41,000 143 525 -64
2022-09-24 10:47:34 GMT 55.692490 -4.787378 40,975 143 526 -64
2022-09-24 10:47:31 GMT 55.696400 -4.792528 41,000 143 526 -64
2022-09-24 10:47:29 GMT 55.700684 -4.798107 41,000 143 526 -64
2022-09-24 10:47:27 GMT 55.704967 -4.803686 41,000 143 526 -64
2022-09-24 10:47:24 GMT 55.711807 -4.812594 41,000 143 526 -64
2022-09-24 10:47:21 GMT 55.716522 -4.818753 41,000 143 527 -64
2022-09-24 10:47:19 GMT 55.720238 -4.823599 41,000 143 527 -64
2022-09-24 10:47:17 GMT 55.724350 -4.828991 41,000 143 527 -64
2022-09-24 10:47:15 GMT 55.733131 -4.840422 41,000 143 527 -64
2022-09-24 10:47:13 GMT 55.733131 -4.840422 41,000 143 527 0
2022-09-24 10:47:10 GMT 55.739044 -4.848146 40,975 143 527 64
2022-09-24 10:47:07 GMT 55.744118 -4.854755 40,975 143 528 64
2022-09-24 10:47:05 GMT 55.749069 -4.861117 41,000 143 528 -64
2022-09-24 10:47:03 GMT 55.751984 -4.864883 41,000 143 528 -64
2022-09-24 10:47:00 GMT 55.756897 -4.871271 41,000 143 528 -64
2022-09-24 10:46:58 GMT 55.763016 -4.879217 40,975 143 528 64
2022-09-24 10:46:56 GMT 55.766136 -4.883337 41,000 143 528 64
2022-09-24 10:46:54 GMT 55.769672 -4.887886 40,975 143 528 -64
2022-09-24 10:46:52 GMT 55.773788 -4.893244 40,975 143 528 -64
2022-09-24 10:46:49 GMT 55.783218 -4.905562 40,975 143 528 0
2022-09-24 10:46:47 GMT 55.783218 -4.905562 40,975 143 527 0
2022-09-24 10:46:45 GMT 55.787109 -4.910722 40,975 143 528 0
2022-09-24 10:46:43 GMT 55.793015 -4.918463 40,975 143 528 -64
2022-09-24 10:46:40 GMT 55.796722 -4.923334 40,975 143 528 -64
2022-09-24 10:46:38 GMT 55.801003 -4.928999 40,975 143 527 0
2022-09-24 10:46:36 GMT 55.804913 -4.934149 40,975 143 527 0
2022-09-24 10:46:33 GMT 55.813526 -4.945478 40,975 143 528 64
2022-09-24 10:46:30 GMT 55.818645 -4.952173 40,975 143 528 -64
2022-09-24 10:46:27 GMT 55.822357 -4.956998 40,975 143 528 -128
2022-09-24 10:46:25 GMT 55.827072 -4.963240 41,000 143 528 -128
2022-09-24 10:46:22 GMT 55.833755 -4.971979 40,975 143 528 -64
2022-09-24 10:46:19 GMT 55.842575 -4.983587 41,000 143 528 -64
2022-09-24 10:46:17 GMT 55.842575 -4.983587 41,000 143 528 -64
2022-09-24 10:46:15 GMT 55.846252 -4.988459 41,000 143 527 -64
2022-09-24 10:46:13 GMT 55.849976 -4.993372 41,000 143 527 -64
2022-09-24 10:46:10 GMT 55.856049 -5.001276 41,000 143 527 0
2022-09-24 10:46:07 GMT 55.862125 -5.009336 41,000 143 527 0
2022-09-24 10:46:05 GMT 55.866409 -5.015001 40,975 143 527 0
2022-09-24 10:46:02 GMT 55.873260 -5.023998 40,975 143 526 0
2022-09-24 10:45:59 GMT 55.876976 -5.028906 40,975 143 526 0
2022-09-24 10:45:56 GMT 55.883423 -5.037398 40,975 143 526 -64
2022-09-24 10:45:54 GMT 55.888092 -5.043557 40,975 143 526 -64
2022-09-24 10:45:51 GMT 55.893738 -5.051050 40,975 143 526 -64
2022-09-24 10:45:48 GMT 55.899033 -5.057956 41,000 143 526 -64
2022-09-24 10:45:46 GMT 55.902348 -5.062380 41,000 143 526 -128
2022-09-24 10:45:44 GMT 55.906258 -5.067530 41,000 143 525 -64
2022-09-24 10:45:42 GMT 55.911118 -5.073936 41,000 143 524 0
2022-09-24 10:45:39 GMT 55.915375 -5.079595 41,000 143 524 -64
2022-09-24 10:45:37 GMT 55.920456 -5.086254 41,000 143 524 0
2022-09-24 10:45:35 GMT 55.924553 -5.091648 41,000 143 525 0
2022-09-24 10:45:33 GMT 55.928837 -5.097313 41,000 143 524 128
2022-09-24 10:45:30 GMT 55.935608 -5.106229 40,975 143 526 -64
2022-09-24 10:45:27 GMT 55.940475 -5.112677 40,975 143 524 128
2022-09-24 10:45:25 GMT 55.944168 -5.117548 40,975 143 525 -64
2022-09-24 10:45:23 GMT 55.949413 -5.124521 40,975 143 525 0
2022-09-24 10:45:20 GMT 55.953094 -5.129450 40,975 143 525 -64
2022-09-24 10:45:17 GMT 55.960098 -5.138689 40,975 143 526 -64
2022-09-24 10:45:15 GMT 55.963211 -5.142850 40,975 143 526 -128
2022-09-24 10:45:13 GMT 55.967514 -5.148593 41,000 143 527 -128
2022-09-24 10:45:10 GMT 55.973328 -5.156333 41,000 143 527 -64
2022-09-24 10:45:08 GMT 55.978230 -5.162802 41,000 143 527 0
2022-09-24 10:45:05 GMT 55.982346 -5.168235 40,975 143 527 -64
2022-09-24 10:45:03 GMT 55.987213 -5.174732 40,975 143 528 -64
2022-09-24 10:45:00 GMT 55.992096 -5.181219 41,000 143 528 0
2022-09-24 10:44:57 GMT 55.998943 -5.190268 41,000 143 528 64
2022-09-24 10:44:55 GMT 56.002434 -5.194988 41,000 143 528 0
2022-09-24 10:44:53 GMT 56.007706 -5.201943 40,975 143 528 64
2022-09-24 10:44:50 GMT 56.011841 -5.207434 41,000 143 527 0
2022-09-24 10:44:47 GMT 56.021614 -5.220480 40,975 143 529 64
2022-09-24 10:44:45 GMT 56.021614 -5.220480 40,975 143 528 0
2022-09-24 10:44:43 GMT 56.025524 -5.225716 40,975 143 528 64
2022-09-24 10:44:40 GMT 56.031555 -5.233737 40,975 143 529 -64
2022-09-24 10:44:37 GMT 56.038239 -5.242642 40,975 143 529 -64
2022-09-24 10:44:35 GMT 56.041763 -5.247303 40,975 143 529 -64
2022-09-24 10:44:33 GMT 56.046066 -5.253046 40,975 143 529 -64
2022-09-24 10:44:30 GMT 56.051147 -5.259871 41,000 143 529 -64
2022-09-24 10:44:27 GMT 56.057785 -5.268693 41,000 143 528 -64
2022-09-24 10:44:25 GMT 56.061882 -5.274210 41,000 143 528 -64
2022-09-24 10:44:23 GMT 56.070866 -5.286226 40,975 143 528 -64
2022-09-24 10:44:20 GMT 56.070866 -5.286226 41,000 143 528 -64
2022-09-24 10:44:17 GMT 56.077106 -5.294552 41,000 143 527 -64
2022-09-24 10:44:15 GMT 56.080971 -5.299788 41,000 143 527 -64
2022-09-24 10:44:13 GMT 56.084087 -5.303907 41,000 143 527 0
2022-09-24 10:44:10 GMT 56.090698 -5.312748 41,000 143 527 64
2022-09-24 10:44:07 GMT 56.097355 -5.321674 40,975 143 527 64
2022-09-24 10:44:05 GMT 56.100266 -5.325539 40,975 143 527 0
2022-09-24 10:44:03 GMT 56.104935 -5.331865 40,975 143 527 0
2022-09-24 10:44:00 GMT 56.110794 -5.339688 40,975 143 527 0
2022-09-24 10:43:57 GMT 56.115829 -5.346430 40,975 143 527 -64
2022-09-24 10:43:55 GMT 56.119934 -5.351973 40,975 142 528 -64
2022-09-24 10:43:53 GMT 56.123425 -5.356693 41,000 142 528 -64
2022-09-24 10:43:50 GMT 56.129105 -5.364241 40,975 143 529 64
2022-09-24 10:43:47 GMT 56.140366 -5.379472 40,975 143 529 64
2022-09-24 10:43:45 GMT 56.140366 -5.379472 41,000 143 529 64
2022-09-24 10:43:42 GMT 56.144302 -5.384716 41,000 143 529 0
2022-09-24 10:43:40 GMT 56.149750 -5.392123 41,000 143 529 64
2022-09-24 10:43:37 GMT 56.154987 -5.399179 40,975 143 529 128
2022-09-24 10:43:35 GMT 56.158108 -5.403385 40,975 143 529 128
2022-09-24 10:43:33 GMT 56.162979 -5.409934 40,975 143 529 64
2022-09-24 10:43:30 GMT 56.168255 -5.417032 41,000 143 529 0
2022-09-24 10:43:27 GMT 56.172955 -5.423298 40,975 143 529 -64
2022-09-24 10:43:25 GMT 56.178776 -5.431194 40,975 143 529 -64
2022-09-24 10:43:23 GMT 56.181522 -5.434885 40,975 143 530 -64
2022-09-24 10:43:20 GMT 56.187386 -5.442781 41,000 143 530 -64
2022-09-24 10:43:18 GMT 56.192089 -5.449133 41,000 143 530 -64
2022-09-24 10:43:16 GMT 56.194244 -5.452049 41,000 143 530 -64
2022-09-24 10:43:14 GMT 56.199692 -5.459373 40,975 142 529 0
2022-09-24 10:43:11 GMT 56.204983 -5.466471 40,975 143 529 -64
2022-09-24 10:43:08 GMT 56.210804 -5.474367 41,000 143 529 0
2022-09-24 10:43:05 GMT 56.217461 -5.483379 41,000 143 530 -64
2022-09-24 10:43:02 GMT 56.223328 -5.491276 41,000 143 530 -64
2022-09-24 10:42:59 GMT 56.228027 -5.497541 41,000 143 530 -64
2022-09-24 10:42:56 GMT 56.234070 -5.505732 41,000 143 530 -64
2022-09-24 10:42:54 GMT 56.237804 -5.510674 41,000 143 530 -64
2022-09-24 10:42:52 GMT 56.242878 -5.517540 41,000 143 530 -64
2022-09-24 10:42:49 GMT 56.247391 -5.523626 41,000 143 530 0
2022-09-24 10:42:46 GMT 56.253250 -5.531533 41,000 143 530 64
2022-09-24 10:42:43 GMT 56.259888 -5.540522 40,975 143 530 -64
2022-09-24 10:42:41 GMT 56.264191 -5.546348 40,975 143 530 -64
2022-09-24 10:42:38 GMT 56.271832 -5.556593 40,975 143 531 0
2022-09-24 10:42:35 GMT 56.276321 -5.562744 40,975 143 531 0
2022-09-24 10:42:33 GMT 56.279282 -5.566635 40,975 143 530 0
2022-09-24 10:42:31 GMT 56.285149 -5.574617 40,975 143 530 0
2022-09-24 10:42:28 GMT 56.289059 -5.579853 41,000 143 530 0
2022-09-24 10:42:25 GMT 56.296326 -5.589627 40,975 143 529 0
2022-09-24 10:42:23 GMT 56.299252 -5.593586 40,975 143 530 0
2022-09-24 10:42:19 GMT 56.306656 -5.603542 40,975 143 529 -64
2022-09-24 10:42:16 GMT 56.312347 -5.611184 40,975 143 528 -64
2022-09-24 10:42:14 GMT 56.315872 -5.615928 41,000 143 528 -64
2022-09-24 10:42:12 GMT 56.319969 -5.621395 41,000 143 528 -128
2022-09-24 10:42:10 GMT 56.324066 -5.626914 41,000 143 528 -64
2022-09-24 10:42:08 GMT 56.327957 -5.632158 41,000 143 528 -128
2022-09-24 10:42:05 GMT 56.342377 -5.651550 41,000 143 526 -128
2022-09-24 10:42:02 GMT 56.342377 -5.651550 41,000 143 526 -64
2022-09-24 10:41:59 GMT 56.346455 -5.657015 41,000 143 525 -64
2022-09-24 10:41:56 GMT 56.351902 -5.664396 41,000 143 525 -64
2022-09-24 10:41:54 GMT 56.355766 -5.669546 41,000 143 525 -64
2022-09-24 10:41:52 GMT 56.359676 -5.674782 41,000 143 524 -64
2022-09-24 10:41:49 GMT 56.365265 -5.682345 41,000 143 523 -64
2022-09-24 10:41:46 GMT 56.371078 -5.690169 41,000 143 523 -64
2022-09-24 10:41:44 GMT 56.374760 -5.695124 41,000 143 523 -64
2022-09-24 10:41:42 GMT 56.378448 -5.700073 41,000 143 523 -64
2022-09-24 10:41:40 GMT 56.382534 -5.705509 41,000 143 523 -64
2022-09-24 10:41:38 GMT 56.391052 -5.716925 41,000 143 523 -64
2022-09-24 10:41:36 GMT 56.391052 -5.716925 41,000 143 523 64
2022-09-24 10:41:33 GMT 56.400558 -5.729620 40,975 143 523 64
2022-09-24 10:41:31 GMT 56.400558 -5.729620 40,975 143 523 64
2022-09-24 10:41:28 GMT 56.407150 -5.738525 40,975 143 524 0
2022-09-24 10:41:25 GMT 56.411209 -5.743961 40,975 143 525 0
2022-09-24 10:41:23 GMT 56.414330 -5.748081 40,975 143 524 -64
2022-09-24 10:41:21 GMT 56.424850 -5.762072 40,975 143 524 0
2022-09-24 10:41:19 GMT 56.424850 -5.762072 40,975 143 525 0
2022-09-24 10:41:16 GMT 56.436356 -5.777477 40,975 143 526 -64
2022-09-24 10:41:13 GMT 56.442818 -5.786018 41,000 143 527 -64
2022-09-24 10:41:10 GMT 56.442818 -5.786018 40,975 143 527 -64
2022-09-24 10:41:07 GMT 56.445740 -5.789961 41,000 143 526 -128
2022-09-24 10:41:04 GMT 56.457825 -5.806108 41,000 143 526 -128
2022-09-24 10:41:02 GMT 56.457825 -5.806108 41,000 143 527 0
2022-09-24 10:40:59 GMT 56.464462 -5.815014 41,000 143 527 0
2022-09-24 10:40:56 GMT 56.469131 -5.821339 41,000 143 526 0
2022-09-24 10:40:54 GMT 56.473022 -5.826582 40,975 143 526 0
2022-09-24 10:40:49 GMT 56.481785 -5.838375 41,000 142 524 -64
2022-09-24 10:40:46 GMT 56.488953 -5.848139 41,000 142 524 -64
2022-09-24 10:40:43 GMT 56.494957 -5.856314 41,000 142 524 -64
2022-09-24 10:40:40 GMT 56.500729 -5.864210 41,000 142 524 -64
2022-09-24 10:40:37 GMT 56.504173 -5.869017 41,000 142 524 -64
2022-09-24 10:40:34 GMT 56.511246 -5.878851 41,000 142 523 -64
2022-09-24 10:40:32 GMT 56.514091 -5.882835 40,975 141 522 -64
2022-09-24 10:40:29 GMT 56.519398 -5.890388 40,975 141 521 -64
2022-09-24 10:40:27 GMT 56.523540 -5.896397 40,975 141 521 -64
2022-09-24 10:40:24 GMT 56.530293 -5.906267 41,000 140 520 -64
2022-09-24 10:40:22 GMT 56.533081 -5.910395 41,000 140 520 0
2022-09-24 10:40:20 GMT 56.536949 -5.916224 41,000 140 520 -64
2022-09-24 10:40:17 GMT 56.542812 -5.925150 40,975 140 520 -64
2022-09-24 10:40:14 GMT 56.548553 -5.933782 41,000 140 519 -64
2022-09-24 10:40:12 GMT 56.553146 -5.940685 40,975 140 519 -64
2022-09-24 10:40:09 GMT 56.560684 -5.952093 41,000 140 519 -64
2022-09-24 10:40:07 GMT 56.560684 -5.952093 41,000 140 518 0
2022-09-24 10:40:04 GMT 56.567486 -5.962400 41,000 140 518 -64
2022-09-24 10:40:02 GMT 56.570984 -5.967657 41,000 140 518 -64
2022-09-24 10:39:59 GMT 56.575539 -5.974588 41,000 140 518 -64
2022-09-24 10:39:56 GMT 56.581406 -5.983429 41,000 140 518 -64
2022-09-24 10:39:53 GMT 56.587097 -5.992043 41,000 140 518 0
2022-09-24 10:39:51 GMT 56.592224 -5.999867 41,000 140 518 0
2022-09-24 10:39:48 GMT 56.595154 -6.004286 41,000 140 518 0
2022-09-24 10:39:46 GMT 56.599594 -6.010981 40,975 140 518 0
2022-09-24 10:39:43 GMT 56.606552 -6.021538 40,975 140 518 0
2022-09-24 10:39:40 GMT 56.611107 -6.028570 40,975 139 519 0
2022-09-24 10:39:37 GMT 56.616074 -6.036043 40,975 139 519 -64
2022-09-24 10:39:34 GMT 56.622513 -6.045847 41,000 140 520 -64
2022-09-24 10:39:31 GMT 56.627472 -6.053381 40,975 140 521 -64
2022-09-24 10:39:29 GMT 56.630611 -6.058163 41,000 140 521 -64
2022-09-24 10:39:26 GMT 56.635574 -6.065655 40,975 140 521 -64
2022-09-24 10:39:23 GMT 56.644623 -6.079338 40,975 140 521 0
2022-09-24 10:39:21 GMT 56.651459 -6.089687 40,975 140 521 0
2022-09-24 10:39:18 GMT 56.651459 -6.089687 40,975 140 521 -64
2022-09-24 10:39:15 GMT 56.658634 -6.100602 40,975 140 521 -64
2022-09-24 10:39:12 GMT 56.662125 -6.105995 40,975 139 520 -64
2022-09-24 10:39:10 GMT 56.665665 -6.111322 40,975 139 521 -64
2022-09-24 10:39:07 GMT 56.671371 -6.119986 40,975 139 521 -64
2022-09-24 10:39:05 GMT 56.674835 -6.125321 40,975 139 520 -128
2022-09-24 10:39:02 GMT 56.680527 -6.134062 40,975 139 520 -64
2022-09-24 10:38:59 GMT 56.693390 -6.153717 41,000 139 520 -64
2022-09-24 10:38:55 GMT 56.693390 -6.153717 41,000 139 520 -64
2022-09-24 10:38:53 GMT 56.696899 -6.159077 41,000 139 520 -64
2022-09-24 10:38:51 GMT 56.700951 -6.165191 41,000 139 520 -64
2022-09-24 10:38:49 GMT 56.711239 -6.180961 41,000 139 520 -64
2022-09-24 10:38:46 GMT 56.711239 -6.180961 41,000 139 520 -64
2022-09-24 10:38:43 GMT 56.715820 -6.187963 41,000 139 520 -64
2022-09-24 10:38:41 GMT 56.724087 -6.200542 41,000 139 520 0
2022-09-24 10:38:38 GMT 56.724087 -6.200542 40,975 139 520 0
2022-09-24 10:38:35 GMT 56.729630 -6.209047 41,000 139 520 0
2022-09-24 10:38:32 GMT 56.737152 -6.220493 40,975 139 520 0
2022-09-24 10:38:29 GMT 56.741547 -6.227274 40,975 139 520 0
2022-09-24 10:38:25 GMT 56.748386 -6.237665 41,000 139 520 -64
2022-09-24 10:38:22 GMT 56.754627 -6.247234 41,000 139 520 -64
2022-09-24 10:38:20 GMT 56.758305 -6.252815 41,000 139 520 -64
2022-09-24 10:38:16 GMT 56.766907 -6.266069 41,000 139 520 64
2022-09-24 10:38:13 GMT 56.769665 -6.270270 40,975 139 520 0
2022-09-24 10:38:11 GMT 56.773338 -6.275940 41,000 139 520 64
2022-09-24 10:38:08 GMT 56.779404 -6.285210 40,975 139 521 0
2022-09-24 10:38:05 GMT 56.786774 -6.296539 40,975 139 521 0
2022-09-24 10:38:02 GMT 56.790237 -6.301900 40,975 139 521 0
2022-09-24 10:38:00 GMT 56.794464 -6.308470 40,975 139 521 -64
2022-09-24 10:37:58 GMT 56.797966 -6.313860 40,975 139 522 -64
2022-09-24 10:37:55 GMT 56.804203 -6.323429 40,975 139 522 -64
2022-09-24 10:37:52 GMT 56.808792 -6.330528 41,000 139 522 -64
2022-09-24 10:37:50 GMT 56.812675 -6.336453 41,000 139 521 -64
2022-09-24 10:37:48 GMT 56.816162 -6.341858 41,000 139 522 -64
2022-09-24 10:37:45 GMT 56.822388 -6.351471 41,000 139 522 -64
2022-09-24 10:37:42 GMT 56.827015 -6.358515 41,000 139 521 -64
2022-09-24 10:37:39 GMT 56.832134 -6.366400 41,000 139 520 -64
2022-09-24 10:37:36 GMT 56.838959 -6.376877 41,000 139 520 -64
2022-09-24 10:37:33 GMT 56.844612 -6.385715 41,000 139 520 -64
2022-09-24 10:37:29 GMT 56.850849 -6.395283 41,000 139 520 -64
2022-09-24 10:37:27 GMT 56.855225 -6.402106 41,000 139 520 -64
2022-09-24 10:37:24 GMT 56.864025 -6.415661 41,000 139 519 -64
2022-09-24 10:37:22 GMT 56.864025 -6.415661 41,000 139 519 -64
2022-09-24 10:37:19 GMT 56.869675 -6.424513 41,000 139 519 -64
2022-09-24 10:37:16 GMT 56.876080 -6.434356 41,000 139 519 -64
2022-09-24 10:37:13 GMT 56.884323 -6.447086 41,000 139 519 -64
2022-09-24 10:37:11 GMT 56.884323 -6.447086 41,000 139 520 -64
2022-09-24 10:37:08 GMT 56.890137 -6.456184 41,000 139 520 -64
2022-09-24 10:37:04 GMT 56.896362 -6.465797 41,000 139 520 -64
2022-09-24 10:37:02 GMT 56.901123 -6.473179 41,000 139 520 0
2022-09-24 10:36:59 GMT 56.906807 -6.481934 41,000 139 520 -64
2022-09-24 10:36:56 GMT 56.910645 -6.487856 40,975 139 519 0
2022-09-24 10:36:53 GMT 56.917603 -6.498585 41,000 139 520 -64
2022-09-24 10:36:51 GMT 56.924194 -6.508799 41,000 139 520 0
2022-09-24 10:36:47 GMT 56.927288 -6.513652 40,975 139 520 0
2022-09-24 10:36:44 GMT 56.933529 -6.523310 40,975 139 520 0
2022-09-24 10:36:42 GMT 56.937698 -6.529827 41,000 139 520 0
2022-09-24 10:36:40 GMT 56.946121 -6.542873 40,975 139 520 64
2022-09-24 10:36:37 GMT 56.946121 -6.542873 40,975 139 520 64
2022-09-24 10:36:32 GMT 56.956009 -6.558323 40,975 139 521 0
2022-09-24 10:36:29 GMT 56.961136 -6.566305 40,975 139 521 -64
2022-09-24 10:36:27 GMT 56.964996 -6.572216 41,000 139 522 -64
2022-09-24 10:36:24 GMT 56.973953 -6.586218 40,975 139 521 -64
2022-09-24 10:36:22 GMT 56.973953 -6.586218 41,000 139 521 -64
2022-09-24 10:36:19 GMT 56.978916 -6.593923 41,000 139 522 -64
2022-09-24 10:36:17 GMT 56.983337 -6.600834 41,000 139 522 -64
2022-09-24 10:36:14 GMT 56.988647 -6.609049 41,000 139 522 -64
2022-09-24 10:36:12 GMT 56.992310 -6.614799 40,975 139 522 -64
2022-09-24 10:36:10 GMT 56.996704 -6.621666 41,000 139 522 -64
2022-09-24 10:36:07 GMT 57.001259 -6.628831 40,975 139 522 -64
2022-09-24 10:36:04 GMT 57.007126 -6.637957 40,975 139 522 -64
2022-09-24 10:36:02 GMT 57.010620 -6.643381 41,000 139 522 -64
2022-09-24 10:36:00 GMT 57.015179 -6.650538 41,000 139 522 -64
2022-09-24 10:35:56 GMT 57.020874 -6.659431 41,000 139 522 -64
2022-09-24 10:35:52 GMT 57.029099 -6.672334 40,975 139 522 64
2022-09-24 10:35:50 GMT 57.032959 -6.678400 40,975 139 522 0
2022-09-24 10:35:46 GMT 57.038643 -6.687218 41,000 139 522 64
2022-09-24 10:35:43 GMT 57.045776 -6.698399 40,975 139 522 -64
2022-09-24 10:35:40 GMT 57.051491 -6.707331 40,975 139 522 -64
2022-09-24 10:35:37 GMT 57.057354 -6.716545 40,975 139 522 -64
2022-09-24 10:35:34 GMT 57.061729 -6.723367 41,000 139 522 -64
2022-09-24 10:35:32 GMT 57.069992 -6.736336 41,000 139 523 0
2022-09-24 10:35:29 GMT 57.069992 -6.736336 41,000 139 523 0
2022-09-24 10:35:26 GMT 57.075485 -6.745005 40,975 139 524 0
2022-09-24 10:35:23 GMT 57.086681 -6.762617 40,975 139 524 0
2022-09-24 10:35:19 GMT 57.088348 -6.765175 40,975 139 524 0
2022-09-24 10:35:17 GMT 57.094040 -6.774134 41,000 139 524 -64
2022-09-24 10:35:14 GMT 57.098785 -6.781665 41,000 139 524 -64
2022-09-24 10:35:11 GMT 57.108170 -6.796331 41,000 139 524 -64
2022-09-24 10:35:08 GMT 57.108170 -6.796331 41,000 139 525 -64
2022-09-24 10:35:06 GMT 57.112610 -6.803284 40,975 139 524 -64
2022-09-24 10:35:03 GMT 57.119934 -6.814871 41,000 139 525 -64
2022-09-24 10:34:59 GMT 57.125648 -6.823839 40,975 139 525 -64
2022-09-24 10:34:57 GMT 57.130234 -6.831093 40,975 139 525 -64
2022-09-24 10:34:54 GMT 57.136307 -6.840673 41,000 139 525 -64
2022-09-24 10:34:52 GMT 57.139984 -6.846432 40,975 139 525 -64
2022-09-24 10:34:47 GMT 57.149734 -6.861820 41,000 139 524 -64
2022-09-24 10:34:44 GMT 57.153950 -6.868493 41,000 139 524 -64
2022-09-24 10:34:41 GMT 57.159863 -6.877796 41,000 139 524 -64
2022-09-24 10:34:38 GMT 57.165356 -6.886479 41,000 139 524 -64
2022-09-24 10:34:34 GMT 57.173630 -6.899586 40,975 139 524 0
2022-09-24 10:34:31 GMT 57.176392 -6.903933 40,975 139 524 0
2022-09-24 10:34:29 GMT 57.181137 -6.911464 40,975 139 524 -64
2022-09-24 10:34:27 GMT 57.185558 -6.918374 41,000 139 524 -64
2022-09-24 10:34:24 GMT 57.190887 -6.926794 41,000 139 524 0
2022-09-24 10:34:21 GMT 57.194550 -6.932631 40,975 139 524 0
2022-09-24 10:34:19 GMT 57.199677 -6.940784 40,975 139 524 -64
2022-09-24 10:34:17 GMT 57.203339 -6.946535 40,975 139 524 -64
2022-09-24 10:34:14 GMT 57.209396 -6.956118 41,000 139 524 -64
2022-09-24 10:34:11 GMT 57.215633 -6.966041 41,000 139 523 -64
2022-09-24 10:34:08 GMT 57.219864 -6.972713 41,000 139 523 -64
2022-09-24 10:34:05 GMT 57.224430 -6.980040 41,000 139 523 -64
2022-09-24 10:34:02 GMT 57.230621 -6.989874 41,000 139 523 0
2022-09-24 10:33:58 GMT 57.237606 -7.000949 40,975 139 523 -64
2022-09-24 10:33:55 GMT 57.242355 -7.008480 40,975 139 523 0
2022-09-24 10:33:52 GMT 57.248749 -7.018719 41,000 139 523 0
2022-09-24 10:33:48 GMT 57.256805 -7.031507 40,975 139 523 0
2022-09-24 10:33:45 GMT 57.261566 -7.039061 40,975 139 523 0
2022-09-24 10:33:41 GMT 57.275116 -7.060604 40,975 139 523 -64
2022-09-24 10:33:38 GMT 57.275116 -7.060604 40,975 139 523 -64
2022-09-24 10:33:35 GMT 57.280060 -7.068462 40,975 139 523 -64
2022-09-24 10:33:32 GMT 57.293564 -7.090080 41,000 139 523 0
2022-09-24 10:33:28 GMT 57.293564 -7.090080 41,000 139 523 0
2022-09-24 10:33:25 GMT 57.298508 -7.097940 40,975 139 523 -64
2022-09-24 10:33:21 GMT 57.304001 -7.106695 40,975 139 523 -64
2022-09-24 10:33:18 GMT 57.310181 -7.116566 40,975 139 523 -64
2022-09-24 10:33:15 GMT 57.317139 -7.127638 40,975 139 522 -64
2022-09-24 10:33:12 GMT 57.322052 -7.135532 41,000 139 522 -64
2022-09-24 10:33:08 GMT 57.328400 -7.145662 41,000 139 521 -64
2022-09-24 10:33:05 GMT 57.335133 -7.156441 40,975 139 521 -64
2022-09-24 10:33:02 GMT 57.339661 -7.163773 41,000 139 520 0
2022-09-24 10:32:59 GMT 57.345840 -7.173643 41,000 139 521 -64
2022-09-24 10:32:56 GMT 57.351471 -7.182666 41,000 139 521 -64
2022-09-24 10:32:53 GMT 57.358887 -7.194586 41,000 139 521 -64
2022-09-24 10:32:49 GMT 57.364182 -7.203044 41,000 139 521 0
2022-09-24 10:32:47 GMT 57.374863 -7.220163 41,000 139 521 0
2022-09-24 10:32:43 GMT 57.374863 -7.220163 40,975 139 521 -64
2022-09-24 10:32:40 GMT 57.380520 -7.229181 40,975 139 521 -64
2022-09-24 10:32:37 GMT 57.390152 -7.244625 41,000 138 516 -64
2022-09-24 10:32:35 GMT 57.390152 -7.244625 41,000 138 519 -64
2022-09-24 10:32:32 GMT 57.394672 -7.251863 41,000 139 521 -64
2022-09-24 10:32:29 GMT 57.400314 -7.260933 40,975 139 521 -64
2022-09-24 10:32:26 GMT 57.406311 -7.270557 41,000 139 520 -64
2022-09-24 10:32:21 GMT 57.414093 -7.283077 41,000 139 520 -64
2022-09-24 10:32:18 GMT 57.419907 -7.292347 41,000 138 519 -64
2022-09-24 10:32:16 GMT 57.424576 -7.299986 40,975 138 519 0
2022-09-24 10:32:12 GMT 57.430939 -7.310161 41,000 138 519 0
2022-09-24 10:32:10 GMT 57.435268 -7.317160 40,975 138 519 0
2022-09-24 10:32:06 GMT 57.442291 -7.328482 40,975 138 518 0
2022-09-24 10:32:03 GMT 57.447884 -7.337538 40,975 138 518 0
2022-09-24 10:32:01 GMT 57.451141 -7.342766 40,975 138 518 -64
2022-09-24 10:31:57 GMT 57.461792 -7.359982 40,975 138 518 -64
2022-09-24 10:31:55 GMT 57.461792 -7.359982 40,975 138 518 -64
2022-09-24 10:31:52 GMT 57.467194 -7.368650 41,000 138 517 -64
2022-09-24 10:31:48 GMT 57.474930 -7.381218 41,000 138 516 -64
2022-09-24 10:31:45 GMT 57.480328 -7.389900 41,000 138 516 -64
2022-09-24 10:31:42 GMT 57.493225 -7.410899 41,000 138 516 64
2022-09-24 10:31:38 GMT 57.493225 -7.410899 41,000 138 516 -64
2022-09-24 10:31:35 GMT 57.498623 -7.419581 41,000 138 516 -64
2022-09-24 10:31:32 GMT 57.503281 -7.427201 41,000 138 516 -64
2022-09-24 10:31:29 GMT 57.513840 -7.444353 41,000 138 516 0
2022-09-24 10:31:26 GMT 57.513840 -7.444353 41,000 138 516 0
2022-09-24 10:31:22 GMT 57.521202 -7.456261 40,975 138 516 64
2022-09-24 10:31:17 GMT 57.530186 -7.470792 40,975 139 516 0
2022-09-24 10:31:14 GMT 57.534302 -7.477484 40,975 139 516 -64
2022-09-24 10:31:11 GMT 57.539867 -7.486562 40,975 139 516 -64
2022-09-24 10:31:07 GMT 57.548355 -7.500143 40,975 138 515 -64
2022-09-24 10:31:05 GMT 57.552113 -7.506320 41,000 138 515 -64
2022-09-24 10:31:02 GMT 57.557327 -7.514734 41,000 138 515 -64
2022-09-24 10:30:58 GMT 57.571609 -7.537994 41,000 138 514 -64
2022-09-24 10:30:55 GMT 57.571609 -7.537994 41,000 138 514 -64
2022-09-24 10:30:51 GMT 57.578751 -7.549582 40,975 138 513 0
2022-09-24 10:30:48 GMT 57.582466 -7.555670 40,975 138 513 0
2022-09-24 10:30:45 GMT 57.587444 -7.563821 40,975 138 512 0
2022-09-24 10:30:42 GMT 57.593307 -7.573442 40,975 138 512 -64
2022-09-24 10:30:38 GMT 57.600082 -7.584515 40,975 138 512 -64
2022-09-24 10:30:35 GMT 57.604530 -7.591730 40,975 138 512 -64
2022-09-24 10:30:32 GMT 57.610748 -7.601938 41,000 138 512 -64
2022-09-24 10:30:27 GMT 57.620869 -7.618487 41,000 138 512 -64
2022-09-24 10:30:22 GMT 57.628647 -7.631245 41,000 138 512 -64
2022-09-24 10:30:18 GMT 57.635071 -7.641700 41,000 138 512 -64
2022-09-24 10:30:15 GMT 57.640182 -7.650089 41,000 138 512 -64
2022-09-24 10:30:12 GMT 57.646225 -7.659960 41,000 138 512 -64
2022-09-24 10:30:09 GMT 57.652107 -7.669609 41,000 138 512 -64
2022-09-24 10:30:06 GMT 57.657089 -7.677671 41,000 138 512 -64
2022-09-24 10:30:02 GMT 57.664352 -7.689657 41,000 138 511 -64
2022-09-24 10:29:58 GMT 57.669842 -7.698669 41,000 138 512 0
2022-09-24 10:29:54 GMT 57.677292 -7.710808 41,000 138 511 0
2022-09-24 10:29:51 GMT 57.682598 -7.719579 41,000 138 512 0
2022-09-24 10:29:47 GMT 57.690582 -7.732744 41,000 138 512 -64
2022-09-24 10:29:44 GMT 57.695354 -7.740577 41,000 138 512 0
2022-09-24 10:29:41 GMT 57.700287 -7.748728 41,000 138 512 0
2022-09-24 10:29:36 GMT 57.710403 -7.765446 40,975 138 512 0
2022-09-24 10:29:34 GMT 57.713043 -7.769815 40,975 138 512 0
2022-09-24 10:29:31 GMT 57.717327 -7.776814 40,975 138 512 0
2022-09-24 10:29:25 GMT 57.729904 -7.797546 41,000 138 512 0
2022-09-24 10:29:22 GMT 57.735062 -7.806061 41,000 138 512 -64
2022-09-24 10:29:20 GMT 57.738647 -7.811920 41,000 138 513 0
2022-09-24 10:29:15 GMT 57.746979 -7.825632 40,975 138 513 0
2022-09-24 10:29:11 GMT 57.753021 -7.835556 41,000 138 513 -64
2022-09-24 10:29:08 GMT 57.757965 -7.843795 41,000 138 513 0
2022-09-24 10:29:05 GMT 57.765106 -7.855490 40,975 138 514 -64
2022-09-24 10:29:01 GMT 57.770954 -7.865204 40,975 138 513 0
2022-09-24 10:28:59 GMT 57.775406 -7.872501 40,975 138 513 0
2022-09-24 10:28:54 GMT 57.783012 -7.885162 40,975 138 514 -64
2022-09-24 10:28:51 GMT 57.788910 -7.894829 40,975 138 515 0
2022-09-24 10:28:48 GMT 57.794952 -7.904840 40,975 138 515 0
2022-09-24 10:28:45 GMT 57.800995 -7.914852 41,000 138 515 -64
2022-09-24 10:28:41 GMT 57.812897 -7.934601 40,975 138 515 -64
2022-09-24 10:28:38 GMT 57.812897 -7.934601 40,975 138 515 -64
2022-09-24 10:28:35 GMT 57.818577 -7.944031 40,975 138 515 -64
2022-09-24 10:28:30 GMT 57.827271 -7.958532 41,000 138 514 -64
2022-09-24 10:28:26 GMT 57.834221 -7.970032 41,000 138 514 -64
2022-09-24 10:28:23 GMT 57.839199 -7.978363 41,000 138 514 -64
2022-09-24 10:28:20 GMT 57.844711 -7.987504 41,000 138 514 -64
2022-09-24 10:28:17 GMT 57.852329 -8.000244 40,975 138 516 -64
2022-09-24 10:28:14 GMT 57.855698 -8.005844 41,000 138 516 -64
2022-09-24 10:28:10 GMT 57.862839 -8.017716 41,000 138 516 0
2022-09-24 10:28:04 GMT 57.878128 -8.043233 40,975 138 516 0
2022-09-24 10:28:01 GMT 57.878128 -8.043233 40,975 138 516 0
2022-09-24 10:27:54 GMT 57.891151 -8.064972 40,975 138 517 0
2022-09-24 10:27:51 GMT 57.895981 -8.073002 41,000 138 517 -64
2022-09-24 10:27:49 GMT 57.898819 -8.077698 41,000 138 517 -64
2022-09-24 10:27:44 GMT 57.908981 -8.094727 41,000 138 517 0
2022-09-24 10:27:40 GMT 57.915405 -8.105438 40,975 138 518 -64
2022-09-24 10:27:37 GMT 57.920975 -8.114732 40,975 138 518 -64
2022-09-24 10:27:35 GMT 57.924545 -8.120668 41,000 138 519 -64
2022-09-24 10:27:33 GMT 57.927929 -8.126404 41,000 138 519 -64
2022-09-24 10:27:29 GMT 57.935257 -8.138654 41,000 138 519 -64
2022-09-24 10:27:24 GMT 57.945805 -8.156342 40,975 138 519 0
2022-09-24 10:27:21 GMT 57.950089 -8.163483 41,000 138 519 -64
2022-09-24 10:27:19 GMT 57.953842 -8.169841 40,975 138 519 0
2022-09-24 10:27:13 GMT 57.964008 -8.186920 41,000 138 520 -64
2022-09-24 10:27:09 GMT 57.970478 -8.197815 41,000 138 520 -64
2022-09-24 10:27:01 GMT 57.985886 -8.223724 41,000 138 521 -64
2022-09-24 10:26:59 GMT 57.989471 -8.229675 40,975 138 521 0
2022-09-24 10:26:51 GMT 58.004333 -8.254719 41,000 138 522 0
2022-09-24 10:26:48 GMT 58.007767 -8.260529 40,975 138 522 -64
2022-09-24 10:26:44 GMT 58.015308 -8.273163 41,000 138 522 -64
2022-09-24 10:26:41 GMT 58.021591 -8.283780 40,975 138 523 -64
2022-09-24 10:26:39 GMT 58.023918 -8.287720 41,000 138 523 -64
2022-09-24 10:26:34 GMT 58.032906 -8.302917 41,000 138 524 -64
2022-09-24 10:26:31 GMT 58.040268 -8.315321 40,975 138 524 -64
2022-09-24 10:26:29 GMT 58.042465 -8.319043 40,975 138 524 -64
2022-09-24 10:26:27 GMT 58.047661 -8.327820 41,000 138 524 0
2022-09-24 10:26:24 GMT 58.051247 -8.333862 40,975 138 524 0
2022-09-24 10:26:21 GMT 58.058090 -8.345490 41,000 138 524 0
2022-09-24 10:26:18 GMT 58.061874 -8.351824 40,975 138 525 0
2022-09-24 10:26:14 GMT 58.069633 -8.364990 40,975 138 525 0
2022-09-24 10:26:11 GMT 58.076294 -8.376278 41,000 138 525 0
2022-09-24 10:26:08 GMT 58.080063 -8.382660 41,000 138 525 -64
2022-09-24 10:26:04 GMT 58.088348 -8.396759 41,000 138 526 -64
2022-09-24 10:26:00 GMT 58.094864 -8.407745 41,000 138 526 -64
2022-09-24 10:25:57 GMT 58.099567 -8.415710 41,000 138 526 -64
2022-09-24 10:25:54 GMT 58.105339 -8.425507 41,000 138 526 -64
2022-09-24 10:25:51 GMT 58.112366 -8.437500 40,975 138 526 -64
2022-09-24 10:25:47 GMT 58.117767 -8.446714 41,000 138 526 -64
2022-09-24 10:25:43 GMT 58.127197 -8.462662 41,000 137 527 -64
2022-09-24 10:25:41 GMT 58.130081 -8.467535 41,000 137 527 0
2022-09-24 10:25:39 GMT 58.133331 -8.473117 40,975 137 527 64
2022-09-24 10:25:36 GMT 58.138000 -8.481091 40,975 137 527 64
2022-09-24 10:25:33 GMT 58.143604 -8.490601 40,975 137 527 0
2022-09-24 10:25:31 GMT 58.148682 -8.499298 40,975 137 528 0
2022-09-24 10:25:29 GMT 58.151413 -8.503861 41,000 137 528 0
2022-09-24 10:25:26 GMT 58.155762 -8.511303 40,975 137 528 -64
2022-09-24 10:25:23 GMT 58.161530 -8.521138 41,000 137 528 0
2022-09-24 10:25:21 GMT 58.166786 -8.530151 40,975 137 528 -64
2022-09-24 10:25:17 GMT 58.172234 -8.539398 40,975 137 529 -64
2022-09-24 10:25:11 GMT 58.184570 -8.560455 40,975 137 529 -64
2022-09-24 10:25:08 GMT 58.188526 -8.567230 40,975 137 529 -64
2022-09-24 10:25:01 GMT 58.203053 -8.592041 41,000 137 529 -64
2022-09-24 10:24:58 GMT 58.220791 -8.622437 41,000 137 529 0
2022-09-24 10:24:50 GMT 58.220791 -8.622437 41,000 137 529 -64
2022-09-24 10:24:48 GMT 58.226028 -8.631444 41,000 137 529 -64
2022-09-24 10:24:40 GMT 58.239269 -8.654114 40,975 137 529 -128
2022-09-24 10:24:37 GMT 58.244343 -8.662811 40,975 137 529 -64
2022-09-24 10:24:33 GMT 58.252487 -8.676807 40,975 137 528 -64
2022-09-24 10:24:30 GMT 58.257378 -8.685242 40,975 137 528 -64
2022-09-24 10:24:27 GMT 58.262604 -8.694261 40,975 137 529 -64
2022-09-24 10:24:22 GMT 58.271111 -8.708862 41,000 137 529 -64
2022-09-24 10:24:20 GMT 58.275440 -8.716278 41,000 137 529 -64
2022-09-24 10:24:17 GMT 58.281586 -8.726898 41,000 137 528 -64
2022-09-24 10:24:13 GMT 58.288429 -8.738708 40,975 137 528 -64
2022-09-24 10:24:10 GMT 58.293877 -8.748047 41,000 137 529 -64
2022-09-24 10:24:07 GMT 58.299500 -8.757698 41,000 137 529 -64
2022-09-24 10:24:05 GMT 58.302906 -8.763611 41,000 137 529 0
2022-09-24 10:24:02 GMT 58.308151 -8.772672 41,000 137 529 0
2022-09-24 10:24:00 GMT 58.311565 -8.778534 41,000 137 529 64
2022-09-24 10:23:58 GMT 58.321518 -8.795707 40,975 137 529 0
2022-09-24 10:23:55 GMT 58.321518 -8.795707 41,000 137 529 0
2022-09-24 10:23:52 GMT 58.325867 -8.803238 40,975 137 529 0
2022-09-24 10:23:50 GMT 58.329628 -8.809753 40,975 137 529 0
2022-09-24 10:23:48 GMT 58.335075 -8.819183 40,975 137 529 0
2022-09-24 10:23:45 GMT 58.340523 -8.828522 40,975 137 530 0
2022-09-24 10:23:42 GMT 58.344105 -8.834747 40,975 137 530 0
2022-09-24 10:23:40 GMT 58.349396 -8.843817 40,975 137 530 -64
2022-09-24 10:23:36 GMT 58.356071 -8.855438 40,975 137 530 -64
2022-09-24 10:23:32 GMT 58.362076 -8.865790 40,975 137 531 -64
2022-09-24 10:23:29 GMT 58.368034 -8.876129 41,000 137 531 -64
2022-09-24 10:23:26 GMT 58.373852 -8.886108 41,000 137 531 0
2022-09-24 10:23:23 GMT 58.379837 -8.896534 41,000 137 531 -64
2022-09-24 10:23:19 GMT 58.385971 -8.907254 40,975 137 531 -64
2022-09-24 10:23:16 GMT 58.392334 -8.918243 40,975 137 531 -64
2022-09-24 10:23:13 GMT 58.397552 -8.927366 40,975 137 531 -64
2022-09-24 10:23:10 GMT 58.403877 -8.938385 40,975 137 531 -64
2022-09-24 10:23:06 GMT 58.410233 -8.949339 41,000 137 530 -64
2022-09-24 10:23:03 GMT 58.415470 -8.958435 41,000 137 530 -64
2022-09-24 10:23:00 GMT 58.420715 -8.967590 41,000 137 530 -64
2022-09-24 10:22:57 GMT 58.426163 -8.976982 41,000 137 530 -64
2022-09-24 10:22:53 GMT 58.433533 -8.989838 41,000 137 529 0
2022-09-24 10:22:49 GMT 58.440948 -9.002764 41,000 137 530 -64
2022-09-24 10:22:45 GMT 58.446522 -9.012451 41,000 137 529 -64
2022-09-24 10:22:43 GMT 58.451920 -9.021881 40,975 137 528 0
2022-09-24 10:22:40 GMT 58.456947 -9.030670 40,975 137 528 -64
2022-09-24 10:22:35 GMT 58.465607 -9.045776 41,000 137 528 0
2022-09-24 10:22:30 GMT 58.474590 -9.061432 41,000 137 527 -64
2022-09-24 10:22:27 GMT 58.479767 -9.070454 41,000 137 527 0
2022-09-24 10:22:24 GMT 58.484436 -9.078605 41,000 137 526 -64
2022-09-24 10:22:20 GMT 58.492676 -9.093047 40,975 137 526 -64
2022-09-24 10:22:16 GMT 58.500008 -9.105927 41,000 137 526 -64
2022-09-24 10:22:14 GMT 58.502476 -9.110321 40,975 137 525 -64
2022-09-24 10:22:10 GMT 58.510345 -9.124054 41,000 137 525 0
2022-09-24 10:22:06 GMT 58.517303 -9.136284 41,000 137 525 0
2022-09-24 10:22:04 GMT 58.520508 -9.141865 40,975 137 524 0
2022-09-24 10:22:00 GMT 58.528919 -9.156555 40,975 137 524 0
2022-09-24 10:21:53 GMT 58.541348 -9.178436 40,975 137 523 -64
2022-09-24 10:21:49 GMT 58.546875 -9.188114 40,975 137 523 -64
2022-09-24 10:21:44 GMT 58.557175 -9.206277 41,000 137 522 -64
2022-09-24 10:21:39 GMT 58.564762 -9.219635 40,975 137 521 -64
2022-09-24 10:21:33 GMT 58.576820 -9.240875 41,000 137 520 -64
2022-09-24 10:21:30 GMT 58.582081 -9.250214 41,000 137 520 -64
2022-09-24 10:21:21 GMT 58.596725 -9.276005 41,000 137 519 -64
2022-09-24 10:21:19 GMT 58.600937 -9.283447 41,000 137 518 -64
2022-09-24 10:21:13 GMT 58.611832 -9.302762 40,975 137 517 -64
2022-09-24 10:21:10 GMT 58.617275 -9.312378 40,975 137 517 -64
2022-09-24 10:21:03 GMT 58.628998 -9.333152 41,000 137 517 -64
2022-09-24 10:20:59 GMT 58.635315 -9.344315 41,000 137 516 -64
2022-09-24 10:20:53 GMT 58.647171 -9.365402 40,975 137 516 0
2022-09-24 10:20:50 GMT 58.652233 -9.374359 40,975 137 516 0
2022-09-24 10:20:40 GMT 58.670242 -9.406335 41,000 137 515 -64
2022-09-24 10:20:30 GMT 58.687523 -9.437073 41,000 137 515 -64
2022-09-24 10:20:20 GMT 58.705257 -9.468658 41,000 137 515 0
2022-09-24 10:20:10 GMT 58.722519 -9.499453 40,975 137 515 0
2022-09-24 10:20:00 GMT 58.740280 -9.531083 41,000 137 515 -64
2022-09-24 10:19:49 GMT 58.757862 -9.562408 40,975 137 514 -64
2022-09-24 10:19:40 GMT 58.774529 -9.592255 41,000 137 513 -128
2022-09-24 10:19:29 GMT 58.792496 -9.624573 41,000 136 512 -64
2022-09-24 10:19:20 GMT 58.809441 -9.654968 41,000 136 511 -64
2022-09-24 10:19:10 GMT 58.826843 -9.686309 41,000 136 510 -64
2022-09-24 10:18:59 GMT 58.843689 -9.716610 40,975 136 509 0
2022-09-24 10:18:49 GMT 58.860973 -9.747904 41,000 136 507 -64
2022-09-24 10:18:39 GMT 58.878433 -9.779442 40,975 136 507 -64
2022-09-24 10:18:29 GMT 58.895515 -9.810317 41,000 136 507 -64
2022-09-24 10:18:18 GMT 58.913040 -9.842285 41,000 136 507 -64
2022-09-24 10:18:09 GMT 58.928989 -9.872258 41,000 135 507 0
2022-09-24 10:17:59 GMT 58.945587 -9.904724 41,000 134 507 -64
2022-09-24 10:17:49 GMT 58.962067 -9.938049 41,000 133 506 -64
2022-09-24 10:17:38 GMT 58.978821 -9.973206 40,975 132 505 -64
2022-09-24 10:17:29 GMT 58.993835 -10.005988 41,000 130 504 -64
2022-09-24 10:17:18 GMT 59.009354 -10.041321 40,975 129 503 -64
2022-09-24 10:17:08 GMT 59.024513 -10.077115 41,000 130 503 -64
2022-09-24 10:16:58 GMT 59.039970 -10.111968 41,000 131 505 0
2022-09-24 10:16:48 GMT 59.055908 -10.145691 40,975 133 507 0
2022-09-24 10:16:39 GMT 59.070145 -10.174622 41,000 133 507 -64
2022-09-24 10:16:37 GMT 59.072880 -10.180159 40,975 133 507 -64
2022-09-24 10:16:29 GMT 59.086102 -10.207246 40,975 133 508 -128
2022-09-24 10:16:27 GMT 59.088867 -10.212891 41,000 133 508 -64
2022-09-24 10:16:19 GMT 59.102692 -10.241272 40,975 133 508 0
2022-09-24 10:16:17 GMT 59.105621 -10.247223 40,975 133 508 64
2022-09-24 10:16:09 GMT 59.118362 -10.273353 41,000 133 508 0
2022-09-24 10:16:07 GMT 59.122375 -10.281647 41,000 133 508 0
2022-09-24 10:15:59 GMT 59.134472 -10.306502 40,975 133 508 0
2022-09-24 10:15:56 GMT 59.138660 -10.315120 41,000 133 508 -64
2022-09-24 10:15:49 GMT 59.150436 -10.339325 41,000 133 508 -64
2022-09-24 10:15:46 GMT 59.155140 -10.348932 41,000 133 508 -64
2022-09-24 10:15:38 GMT 59.167381 -10.374030 41,000 133 508 -64
2022-09-24 10:15:36 GMT 59.171768 -10.382996 41,000 133 508 -64
2022-09-24 10:15:29 GMT 59.183395 -10.406891 40,975 133 509 0
2022-09-24 10:15:26 GMT 59.188248 -10.416779 41,000 133 510 -64
2022-09-24 10:15:19 GMT 59.199688 -10.440421 41,000 133 509 -64
2022-09-24 10:15:16 GMT 59.204407 -10.450104 41,000 133 510 0
2022-09-24 10:15:09 GMT 59.215237 -10.472433 41,000 133 510 0
2022-09-24 10:15:05 GMT 59.221058 -10.484461 40,975 133 510 -64
2022-09-24 10:14:59 GMT 59.231552 -10.506134 41,000 133 511 -64
2022-09-24 10:14:55 GMT 59.237862 -10.519220 40,975 133 511 -64
2022-09-24 10:14:49 GMT 59.247871 -10.539961 41,000 133 511 -64
2022-09-24 10:14:45 GMT 59.254341 -10.553315 41,000 133 511 -64
2022-09-24 10:14:39 GMT 59.264027 -10.573488 41,000 133 511 -64
2022-09-24 10:14:35 GMT 59.270775 -10.587600 40,975 133 511 0
2022-09-24 10:14:29 GMT 59.280132 -10.607110 40,975 133 511 -64
2022-09-24 10:14:25 GMT 59.286926 -10.621222 40,975 133 512 -64
2022-09-24 10:14:19 GMT 59.296463 -10.640991 41,000 133 512 -64
2022-09-24 10:14:14 GMT 59.303455 -10.655412 41,000 133 512 -64
2022-09-24 10:14:09 GMT 59.312347 -10.673950 40,975 133 512 -64
2022-09-24 10:14:04 GMT 59.320404 -10.690796 41,000 133 512 0
2022-09-24 10:13:59 GMT 59.328506 -10.707642 40,975 133 512 -64
2022-09-24 10:13:54 GMT 59.336609 -10.724487 41,000 133 512 0
2022-09-24 10:13:49 GMT 59.345032 -10.742065 40,975 133 513 -64
2022-09-24 10:13:39 GMT 59.361691 -10.776925 40,975 133 512 -64
2022-09-24 10:13:29 GMT 59.377518 -10.810073 41,000 133 512 -64
2022-09-24 10:13:19 GMT 59.393299 -10.843316 41,000 133 512 -64
2022-09-24 10:13:09 GMT 59.409943 -10.878204 41,000 133 512 -64
2022-09-24 10:12:59 GMT 59.425888 -10.911886 40,975 133 512 0
2022-09-24 10:12:48 GMT 59.443298 -10.948539 41,000 132 513 0
2022-09-24 10:12:39 GMT 59.458328 -10.980194 41,000 132 515 -64
2022-09-24 10:12:29 GMT 59.474487 -11.014343 41,000 132 515 -64
2022-09-24 10:12:18 GMT 59.491852 -11.051015 41,000 132 517 -64
2022-09-24 10:12:09 GMT 59.507446 -11.084069 40,975 132 518 -64
2022-09-24 10:11:59 GMT 59.523926 -11.118896 41,000 132 519 -64
2022-09-24 10:11:49 GMT 59.539581 -11.152039 40,975 132 520 0
2022-09-24 10:11:39 GMT 59.555923 -11.186646 40,975 132 520 0
2022-09-24 10:11:28 GMT 59.573036 -11.223102 40,975 132 520 -64
2022-09-24 10:11:18 GMT 59.588745 -11.256775 40,975 132 519 -64
2022-09-24 10:11:08 GMT 59.604950 -11.291565 41,000 132 518 -64
2022-09-24 10:10:58 GMT 59.621475 -11.326996 41,000 132 519 -64
2022-09-24 10:10:48 GMT 59.637680 -11.361786 40,975 132 518 -64
2022-09-24 10:10:38 GMT 59.654366 -11.397558 41,000 132 518 0
2022-09-24 10:10:28 GMT 59.670319 -11.432007 40,975 132 518 0
2022-09-24 10:10:18 GMT 59.686478 -11.466888 41,000 132 518 -64
2022-09-24 10:10:08 GMT 59.702778 -11.502023 41,000 132 518 -64
2022-09-24 10:09:58 GMT 59.718513 -11.536213 40,975 132 517 -64
2022-09-24 10:09:48 GMT 59.734772 -11.571442 41,000 132 517 -64
2022-09-24 10:09:38 GMT 59.750885 -11.606323 41,000 132 517 -64
2022-09-24 10:09:27 GMT 59.768093 -11.643708 41,000 132 518 0
2022-09-24 10:09:18 GMT 59.783268 -11.676573 40,975 132 518 -64
2022-09-24 10:09:08 GMT 59.799702 -11.712373 40,975 132 519 0
2022-09-24 10:08:58 GMT 59.815704 -11.747223 41,000 132 520 -64
2022-09-24 10:08:48 GMT 59.831818 -11.782471 41,000 132 521 -64
2022-09-24 10:08:38 GMT 59.848118 -11.818164 40,975 132 521 0
2022-09-24 10:08:28 GMT 59.864456 -11.853882 41,000 132 521 -64
2022-09-24 10:08:18 GMT 59.880249 -11.888672 41,000 131 521 -64
2022-09-24 10:08:08 GMT 59.896484 -11.924523 40,975 132 521 0
2022-09-24 10:07:58 GMT 59.913242 -11.961459 41,000 132 521 -128
2022-09-24 10:07:48 GMT 59.928864 -11.995880 41,000 132 521 -64
2022-09-24 10:07:38 GMT 59.944977 -12.031403 40,975 132 522 0
2022-09-24 10:07:27 GMT 59.962097 -12.069239 40,975 131 522 -64
2022-09-24 10:07:18 GMT 59.977890 -12.104376 41,000 131 524 -64
2022-09-24 10:07:07 GMT 59.994003 -12.140271 40,975 131 524 -64
2022-09-24 10:06:47 GMT 60.026688 -12.212914 40,975 131 526 -64
2022-09-24 10:06:36 GMT 60.043167 -12.249756 40,975 131 526 -64
2022-09-24 10:06:27 GMT 60.058533 -12.284088 41,000 131 526 -64
2022-09-24 10:06:17 GMT 60.075058 -12.320971 40,975 131 526 -64
2022-09-24 10:06:07 GMT 60.091461 -12.357536 40,975 131 528 -64
2022-09-24 10:05:57 GMT 60.107666 -12.393904 41,000 131 528 -64
2022-09-24 10:05:47 GMT 60.123707 -12.430147 41,000 131 530 -64
2022-09-24 10:05:36 GMT 60.140808 -12.468630 41,000 131 531 -64
2022-09-24 10:05:27 GMT 60.156570 -12.504305 41,000 131 532 0
2022-09-24 10:05:17 GMT 60.172714 -12.540704 41,000 131 533 -64
2022-09-24 10:05:07 GMT 60.188599 -12.576501 40,975 131 534 -64
2022-09-24 10:04:57 GMT 60.205399 -12.614672 41,000 131 534 -64
2022-09-24 10:04:46 GMT 60.222816 -12.654288 41,000 131 533 -64
2022-09-24 10:04:37 GMT 60.237804 -12.688424 41,000 131 533 0
2022-09-24 10:04:27 GMT 60.254704 -12.726974 41,000 131 532 -64
2022-09-24 10:04:17 GMT 60.270447 -12.762893 41,000 131 532 -64
2022-09-24 10:04:07 GMT 60.286823 -12.800347 40,975 131 532 0
2022-09-24 10:03:56 GMT 60.303543 -12.838566 41,000 131 532 -128
2022-09-24 10:03:47 GMT 60.319225 -12.874603 41,000 131 532 -64
2022-09-24 10:03:37 GMT 60.335705 -12.912467 40,975 131 530 64
2022-09-24 10:03:26 GMT 60.352341 -12.950703 40,975 131 531 -64
2022-09-24 10:03:17 GMT 60.368179 -12.986976 40,975 131 530 -64
2022-09-24 10:03:07 GMT 60.384445 -13.024488 41,000 131 530 -64
2022-09-24 10:02:57 GMT 60.400360 -13.061418 40,975 131 530 0
2022-09-24 10:02:46 GMT 60.417114 -13.100060 41,000 131 530 -64
2022-09-24 10:02:37 GMT 60.432220 -13.135102 40,975 131 529 0
2022-09-24 10:02:27 GMT 60.448406 -13.172706 41,000 131 530 -64
2022-09-24 10:02:17 GMT 60.464584 -13.210397 40,975 130 529 -64
2022-09-24 10:02:07 GMT 60.480560 -13.247712 40,975 131 528 64
2022-09-24 10:01:57 GMT 60.496857 -13.285786 41,000 131 529 -128
2022-09-24 10:01:47 GMT 60.512878 -13.323101 40,975 130 528 0
2022-09-24 10:01:37 GMT 60.528488 -13.359659 41,000 130 527 -64
2022-09-24 10:01:26 GMT 60.545288 -13.399248 40,975 130 526 -64
2022-09-24 10:01:16 GMT 60.561668 -13.437653 41,000 130 526 0
2022-09-24 10:00:45 GMT 60.608685 -13.548791 41,000 130 524 -64
2022-09-24 10:00:44 GMT 60.610268 -13.552519 41,000 130 524 0
2022-09-24 10:00:35 GMT 60.625900 -13.589425 41,000 130 525 -64
We lost coverage of the aircraft here for a total of 17 minutes
2022-09-24 09:43:19 GMT 62.234013 -17.756124 40,975 126 537 0
2022-09-24 09:43:14 GMT 62.241180 -17.776407 41,000 126 537 0
2022-09-24 09:43:08 GMT 62.250072 -17.801867 40,975 126 537 -64
2022-09-24 09:43:04 GMT 62.256355 -17.819719 41,000 126 537 -64
2022-09-24 09:42:59 GMT 62.263962 -17.841492 41,000 126 538 0
2022-09-24 09:41:51 GMT 62.365860 -18.133951 40,975 126 542 -64
2022-09-24 09:41:43 GMT 62.376663 -18.164978 41,000 126 543 -64
2022-09-24 09:41:37 GMT 62.384445 -18.187460 41,000 126 542 -64
2022-09-24 09:41:32 GMT 62.392010 -18.209522 41,000 126 542 -64
2022-09-24 09:41:27 GMT 62.399597 -18.231607 41,000 126 542 64
2022-09-24 09:41:23 GMT 62.406906 -18.252832 41,000 126 543 64
2022-09-24 09:41:18 GMT 62.414352 -18.274488 40,975 126 543 0
2022-09-24 09:41:12 GMT 62.422577 -18.298340 40,975 126 544 -64
2022-09-24 09:41:07 GMT 62.430038 -18.320108 40,975 126 542 -128
2022-09-24 09:41:03 GMT 62.436699 -18.339561 41,000 126 542 -64
2022-09-24 09:40:58 GMT 62.444427 -18.362062 41,000 126 542 -64
2022-09-24 09:40:53 GMT 62.452156 -18.384668 41,000 126 542 0
2022-09-24 09:40:48 GMT 62.459324 -18.405479 40,975 126 543 64
2022-09-24 09:40:42 GMT 62.467609 -18.429777 40,975 126 542 64
2022-09-24 09:40:38 GMT 62.474174 -18.449003 40,975 126 542 -64
2022-09-24 09:40:32 GMT 62.482590 -18.473715 41,000 126 542 -128
2022-09-24 09:40:26 GMT 62.491306 -18.499392 41,000 126 541 -64
2022-09-24 09:40:23 GMT 62.496658 -18.515026 41,000 126 542 0
2022-09-24 09:40:17 GMT 62.503876 -18.536377 41,000 126 542 64
2022-09-24 09:40:12 GMT 62.511566 -18.558960 40,975 126 542 64
2022-09-24 09:40:07 GMT 62.518818 -18.580311 40,975 126 542 0
2022-09-24 09:40:02 GMT 62.526352 -18.602497 40,975 126 541 -64
2022-09-24 09:39:57 GMT 62.533295 -18.622988 41,000 126 540 -64
2022-09-24 09:39:52 GMT 62.540771 -18.645224 41,000 126 541 0
2022-09-24 09:39:47 GMT 62.548096 -18.666992 41,000 126 540 0
2022-09-24 09:39:42 GMT 62.555641 -18.689222 40,975 126 541 -64
2022-09-24 09:39:37 GMT 62.562881 -18.710531 40,975 126 540 0
2022-09-24 09:39:32 GMT 62.571003 -18.734436 40,975 126 541 -64
2022-09-24 09:39:27 GMT 62.577621 -18.754068 41,000 125 541 -64
2022-09-24 09:39:21 GMT 62.586960 -18.782043 41,000 125 541 -64
2022-09-24 09:39:16 GMT 62.593254 -18.800882 41,000 125 541 -64
2022-09-24 09:39:12 GMT 62.600609 -18.822748 40,975 126 541 0
2022-09-24 09:39:06 GMT 62.607964 -18.844723 40,975 126 541 64
2022-09-24 09:39:02 GMT 62.615433 -18.867086 40,975 126 541 -128
2022-09-24 09:38:57 GMT 62.621742 -18.885921 41,000 125 541 -128
2022-09-24 09:38:52 GMT 62.630127 -18.910929 41,000 125 541 -128
2022-09-24 09:38:47 GMT 62.636688 -18.930605 41,025 125 540 0
2022-09-24 09:38:42 GMT 62.644135 -18.952942 41,000 125 541 64
2022-09-24 09:38:40 GMT 62.647209 -18.962191 41,000 125 541 64
2022-09-24 09:38:37 GMT 62.651459 -18.974915 40,975 125 542 64
2022-09-24 09:38:31 GMT 62.659779 -19.000010 40,975 125 541 0
2022-09-24 09:38:27 GMT 62.665512 -19.017132 40,975 125 541 64
2022-09-24 09:38:21 GMT 62.676769 -19.050926 40,975 125 540 0
2022-09-24 09:38:17 GMT 62.680538 -19.062336 40,975 125 539 -64
2022-09-24 09:38:11 GMT 62.689339 -19.088638 41,000 126 540 -64
2022-09-24 09:38:07 GMT 62.695206 -19.106174 40,975 125 539 -128
2022-09-24 09:38:01 GMT 62.704102 -19.132792 41,000 126 539 -128
2022-09-24 09:37:56 GMT 62.710556 -19.152121 41,000 125 539 -64
2022-09-24 09:37:51 GMT 62.718704 -19.176636 41,000 125 539 -64
2022-09-24 09:37:47 GMT 62.724068 -19.192904 40,975 125 539 0
2022-09-24 09:37:42 GMT 62.731888 -19.216673 40,975 125 539 -64
2022-09-24 09:37:40 GMT 62.734215 -19.223749 40,975 125 539 0
2022-09-24 09:37:37 GMT 62.738663 -19.237366 41,000 125 539 0
2022-09-24 09:37:32 GMT 62.746319 -19.260723 41,000 125 539 -64
2022-09-24 09:37:30 GMT 62.748367 -19.266956 41,000 125 539 -64
2022-09-24 09:37:27 GMT 62.753403 -19.282328 40,975 125 539 -64
2022-09-24 09:37:22 GMT 62.760635 -19.304403 40,975 125 539 -64
2022-09-24 09:37:20 GMT 62.763245 -19.312338 41,000 125 539 0
2022-09-24 09:37:17 GMT 62.768013 -19.326958 41,000 125 539 -64
2022-09-24 09:37:11 GMT 62.778030 -19.357403 41,000 125 540 -64
2022-09-24 09:37:07 GMT 62.782211 -19.370270 40,975 125 540 -64
2022-09-24 09:37:02 GMT 62.789612 -19.392801 40,975 125 540 0
2022-09-24 09:37:00 GMT 62.792358 -19.401222 41,000 125 540 -64
2022-09-24 09:36:57 GMT 62.796570 -19.414062 40,975 125 540 -64
2022-09-24 09:36:52 GMT 62.804230 -19.437561 40,975 125 541 -64
2022-09-24 09:36:50 GMT 62.806835 -19.445589 41,000 125 541 -64
2022-09-24 09:36:47 GMT 62.811630 -19.460245 40,975 125 542 -64
2022-09-24 09:36:42 GMT 62.818588 -19.481506 40,975 125 542 -64
2022-09-24 09:36:40 GMT 62.821640 -19.490908 41,000 125 542 -64
2022-09-24 09:36:37 GMT 62.826096 -19.504700 40,975 125 543 0
2022-09-24 09:36:32 GMT 62.833233 -19.526613 41,000 125 544 64
2022-09-24 09:36:27 GMT 62.840492 -19.548903 40,975 125 544 0
2022-09-24 09:36:22 GMT 62.847801 -19.571299 41,000 125 546 0
2022-09-24 09:36:20 GMT 62.851013 -19.581123 40,975 125 546 0
2022-09-24 09:36:17 GMT 62.855064 -19.593695 41,000 125 547 -64
2022-09-24 09:36:10 GMT 62.865585 -19.626123 41,000 125 547 -64
2022-09-24 09:36:07 GMT 62.869682 -19.638802 40,975 125 548 -64
2022-09-24 09:36:02 GMT 62.877136 -19.661764 40,975 125 548 -64
2022-09-24 09:35:57 GMT 62.884022 -19.683064 40,975 125 549 0
2022-09-24 09:35:52 GMT 62.891464 -19.706116 41,000 125 549 0
2022-09-24 09:35:50 GMT 62.895702 -19.719297 41,000 125 550 64
2022-09-24 09:35:47 GMT 62.898743 -19.728903 41,000 125 550 -64
2022-09-24 09:35:41 GMT 62.906616 -19.753418 41,000 125 550 -64
2022-09-24 09:35:37 GMT 62.913486 -19.774757 41,000 125 550 64
2022-09-24 09:35:31 GMT 62.921959 -19.801062 40,975 125 550 -64
2022-09-24 09:35:27 GMT 62.928268 -19.820658 40,975 125 551 -128
2022-09-24 09:35:22 GMT 62.935867 -19.844259 41,000 125 550 -64
2022-09-24 09:35:17 GMT 62.942768 -19.865604 41,000 125 550 -64
2022-09-24 09:35:12 GMT 62.950516 -19.889730 41,000 124 550 -64
2022-09-24 09:35:07 GMT 62.957748 -19.912619 41,000 124 550 0
2022-09-24 09:35:01 GMT 62.964973 -19.936171 40,975 123 550 -64
2022-09-24 09:34:57 GMT 62.971680 -19.958462 40,975 123 549 -64
2022-09-24 09:34:52 GMT 62.978336 -19.980749 41,000 122 549 -64
2022-09-24 09:34:46 GMT 62.985691 -20.006104 41,000 122 549 -64
2022-09-24 09:34:42 GMT 62.992115 -20.028709 41,000 121 548 -64
2022-09-24 09:34:37 GMT 62.998726 -20.052479 40,975 121 548 0
2022-09-24 09:34:32 GMT 63.005585 -20.077820 41,000 120 548 0
2022-09-24 09:34:26 GMT 63.012596 -20.104136 40,975 119 548 0
2022-09-24 09:34:22 GMT 63.017811 -20.124523 41,000 119 548 -64
2022-09-24 09:34:17 GMT 63.023849 -20.148214 41,000 118 548 -64
2022-09-24 09:34:12 GMT 63.030052 -20.173117 40,975 118 547 -64
2022-09-24 09:34:07 GMT 63.036530 -20.198874 41,000 118 548 -64
2022-09-24 09:34:01 GMT 63.043076 -20.225220 41,000 118 548 -64
2022-09-24 09:33:57 GMT 63.048256 -20.246325 40,975 118 548 0
2022-09-24 09:33:52 GMT 63.054153 -20.270285 40,975 118 549 64
2022-09-24 09:33:47 GMT 63.060593 -20.296185 40,950 118 548 0
2022-09-24 09:33:42 GMT 63.066410 -20.319530 40,975 118 548 -64
2022-09-24 09:33:37 GMT 63.072788 -20.344885 41,000 118 548 -64
2022-09-24 09:33:32 GMT 63.078888 -20.369286 41,000 118 547 -64
2022-09-24 09:33:27 GMT 63.084938 -20.393688 40,975 118 548 0
2022-09-24 09:33:22 GMT 63.090992 -20.418196 41,000 118 549 -64
2022-09-24 09:33:17 GMT 63.096809 -20.441648 40,975 118 549 -64
2022-09-24 09:33:12 GMT 63.103096 -20.467108 40,975 118 549 -64
2022-09-24 09:33:07 GMT 63.108994 -20.491232 41,000 118 549 -64
2022-09-24 09:33:02 GMT 63.114918 -20.515278 41,000 118 549 -64
2022-09-24 09:32:57 GMT 63.121391 -20.541794 41,000 118 548 0
2022-09-24 09:32:52 GMT 63.127258 -20.565899 41,000 118 549 0
2022-09-24 09:32:47 GMT 63.133255 -20.590515 40,975 118 548 0
2022-09-24 09:32:42 GMT 63.139206 -20.615133 41,000 118 548 0
2022-09-24 09:32:37 GMT 63.145317 -20.640247 40,975 118 549 0
2022-09-24 09:32:32 GMT 63.151321 -20.664862 40,975 118 547 0
2022-09-24 09:32:26 GMT 63.157425 -20.689901 40,975 118 547 0
2022-09-24 09:32:22 GMT 63.163055 -20.712927 40,975 118 547 0
2022-09-24 09:32:16 GMT 63.169525 -20.739441 40,975 118 547 -64
2022-09-24 09:32:12 GMT 63.175297 -20.762999 41,000 118 548 -128
2022-09-24 09:32:07 GMT 63.181301 -20.787613 40,975 118 547 -64
2022-09-24 09:32:02 GMT 63.187454 -20.812683 41,000 118 547 -128
2022-09-24 09:31:57 GMT 63.193176 -20.836283 41,000 118 547 -128
2022-09-24 09:31:52 GMT 63.198994 -20.860395 40,975 117 548 -128
2022-09-24 09:31:46 GMT 63.205994 -20.889551 41,000 117 548 -64
2022-09-24 09:31:41 GMT 63.211330 -20.911816 41,000 118 548 -64
2022-09-24 09:31:36 GMT 63.217850 -20.938992 41,000 118 548 -64
2022-09-24 09:31:32 GMT 63.222839 -20.959696 41,000 117 548 -64
2022-09-24 09:31:26 GMT 63.229343 -20.986853 41,000 117 547 64
2022-09-24 09:31:21 GMT 63.234879 -21.010191 41,000 117 547 64
2022-09-24 09:31:16 GMT 63.241470 -21.037868 40,975 117 547 128
2022-09-24 09:31:11 GMT 63.246521 -21.059143 40,950 117 547 64
2022-09-24 09:31:05 GMT 63.253510 -21.088257 40,975 118 547 -64
2022-09-24 09:31:01 GMT 63.258270 -21.108011 41,000 118 546 -128
2022-09-24 09:30:56 GMT 63.265747 -21.139013 41,025 118 547 -64
2022-09-24 09:30:50 GMT 63.270729 -21.159779 41,000 118 547 -64
2022-09-24 09:30:45 GMT 63.277573 -21.188452 41,000 117 547 -64
2022-09-24 09:30:41 GMT 63.282440 -21.208790 41,000 117 548 -64
2022-09-24 09:30:35 GMT 63.289261 -21.237629 41,000 117 548 0
2022-09-24 09:30:31 GMT 63.294331 -21.258875 40,975 117 548 64
2022-09-24 09:30:25 GMT 63.301804 -21.290236 40,975 117 548 0
2022-09-24 09:30:21 GMT 63.306290 -21.309040 40,975 117 549 -64
2022-09-24 09:30:15 GMT 63.313232 -21.338526 40,975 117 549 -64
2022-09-24 09:30:11 GMT 63.317932 -21.358412 40,950 117 549 -64
2022-09-24 09:30:05 GMT 63.325104 -21.388903 40,975 117 550 -64
2022-09-24 09:30:01 GMT 63.329712 -21.408398 40,975 117 550 -64
2022-09-24 09:29:56 GMT 63.335541 -21.432846 40,975 117 551 -64
2022-09-24 09:29:54 GMT 63.337578 -21.441357 40,975 117 551 0
2022-09-24 09:29:51 GMT 63.341583 -21.458277 40,975 117 551 0
2022-09-24 09:29:46 GMT 63.347397 -21.482815 40,975 117 551 -64
2022-09-24 09:29:44 GMT 63.349682 -21.492334 40,975 117 551 64
2022-09-24 09:29:40 GMT 63.353806 -21.509857 40,975 117 551 0
2022-09-24 09:29:35 GMT 63.361542 -21.542921 40,975 117 551 -64
2022-09-24 09:29:31 GMT 63.365295 -21.559084 40,975 117 551 -64
2022-09-24 09:29:26 GMT 63.371155 -21.584227 41,000 117 551 -64
2022-09-24 09:29:24 GMT 63.373489 -21.594261 41,000 117 552 -64
2022-09-24 09:29:21 GMT 63.376869 -21.608898 40,975 117 552 64
2022-09-24 09:29:14 GMT 63.384781 -21.643066 41,000 117 551 64
2022-09-24 09:29:11 GMT 63.388412 -21.658701 40,975 117 552 -64
2022-09-24 09:29:06 GMT 63.394272 -21.683844 40,975 117 551 0
2022-09-24 09:29:04 GMT 63.396980 -21.695471 41,000 117 551 -64
2022-09-24 09:29:01 GMT 63.400517 -21.710522 40,975 117 551 -64
2022-09-24 09:28:56 GMT 63.405991 -21.734232 41,000 117 551 0
2022-09-24 09:28:54 GMT 63.408554 -21.745218 40,975 117 551 0
2022-09-24 09:28:51 GMT 63.412033 -21.760324 40,975 117 551 64
2022-09-24 09:28:46 GMT 63.417973 -21.786108 40,975 117 551 0
2022-09-24 09:28:44 GMT 63.420303 -21.796106 40,975 117 551 0
2022-09-24 09:28:41 GMT 63.423794 -21.811268 41,000 117 551 0
2022-09-24 09:28:35 GMT 63.429977 -21.837862 41,000 117 550 -64
2022-09-24 09:28:31 GMT 63.435432 -21.861584 41,000 117 551 0
2022-09-24 09:28:26 GMT 63.441250 -21.886744 40,975 117 551 0
2022-09-24 09:28:24 GMT 63.444122 -21.899343 40,975 117 551 0
2022-09-24 09:28:21 GMT 63.446915 -21.911386 40,975 117 551 0
2022-09-24 09:28:16 GMT 63.452843 -21.937061 40,975 117 550 0
2022-09-24 09:28:11 GMT 63.459000 -21.963783 40,975 117 550 -64
2022-09-24 09:28:06 GMT 63.464355 -21.986917 41,000 117 550 -64
2022-09-24 09:28:01 GMT 63.470531 -22.013636 41,000 117 550 -64
2022-09-24 09:27:56 GMT 63.476440 -22.039419 41,000 117 550 0
2022-09-24 09:27:51 GMT 63.481979 -22.063610 41,000 116 550 0
2022-09-24 09:27:46 GMT 63.487976 -22.089914 40,975 116 550 0
2022-09-24 09:27:41 GMT 63.493809 -22.115698 40,975 116 550 0
2022-09-24 09:27:36 GMT 63.499466 -22.140514 41,000 116 551 -64
2022-09-24 09:27:31 GMT 63.505188 -22.165869 41,000 116 551 -64
2022-09-24 09:27:26 GMT 63.511311 -22.192713 41,000 116 551 -64
2022-09-24 09:27:21 GMT 63.516724 -22.216574 40,975 116 551 -64
2022-09-24 09:27:16 GMT 63.522812 -22.243469 40,975 116 552 0
2022-09-24 09:27:11 GMT 63.528442 -22.268442 41,000 116 552 0
2022-09-24 09:27:06 GMT 63.534210 -22.293901 40,975 116 552 64
2022-09-24 09:27:01 GMT 63.539703 -22.318302 40,975 116 551 0
2022-09-24 09:26:56 GMT 63.545574 -22.344213 40,975 116 551 -64
2022-09-24 09:26:51 GMT 63.551468 -22.370066 40,975 116 551 -64
2022-09-24 09:26:46 GMT 63.556885 -22.393982 41,000 116 551 -64
2022-09-24 09:26:41 GMT 63.562729 -22.419928 41,000 116 551 -64
2022-09-24 09:26:36 GMT 63.568569 -22.445948 40,975 116 551 0
2022-09-24 09:26:32 GMT 63.572899 -22.465282 41,000 116 551 -64
2022-09-24 09:26:29 GMT 63.574585 -22.472958 40,975 116 551 -64
2022-09-24 09:26:24 GMT 63.580441 -22.498901 40,975 116 551 0
2022-09-24 09:26:20 GMT 63.585468 -22.521423 40,975 116 552 0
2022-09-24 09:26:15 GMT 63.591614 -22.549000 40,975 116 552 -64
2022-09-24 09:26:10 GMT 63.597198 -22.573946 41,000 116 552 -64
2022-09-24 09:26:05 GMT 63.602692 -22.598560 40,975 116 552 -64
2022-09-24 09:26:00 GMT 63.608978 -22.626562 40,975 116 552 0
2022-09-24 09:25:55 GMT 63.614426 -22.651173 41,000 116 552 -64
2022-09-24 09:25:50 GMT 63.620152 -22.676769 41,000 116 552 0
2022-09-24 09:25:45 GMT 63.626175 -22.703880 40,975 116 553 64
2022-09-24 09:25:39 GMT 63.631973 -22.730055 40,975 116 552 0
2022-09-24 09:25:35 GMT 63.637527 -22.755116 41,000 116 552 0
2022-09-24 09:25:30 GMT 63.642700 -22.778671 40,975 116 551 0
2022-09-24 09:25:25 GMT 63.648685 -22.805859 41,000 116 551 -64
2022-09-24 09:25:20 GMT 63.654007 -22.829906 41,000 116 551 0
2022-09-24 09:25:15 GMT 63.659866 -22.856527 41,000 116 550 0
2022-09-24 09:25:10 GMT 63.665398 -22.881556 40,975 116 550 0
2022-09-24 09:25:05 GMT 63.670898 -22.906706 41,000 116 550 -64
2022-09-24 09:25:00 GMT 63.677086 -22.934839 40,975 116 550 -64
2022-09-24 09:24:55 GMT 63.682388 -22.958891 40,975 116 550 0
2022-09-24 09:24:50 GMT 63.687885 -22.983948 41,000 116 549 0
2022-09-24 09:24:45 GMT 63.693935 -23.011522 40,975 116 549 0
2022-09-24 09:24:40 GMT 63.699188 -23.035688 40,975 116 549 0
2022-09-24 09:24:35 GMT 63.704773 -23.061253 41,000 116 548 0
2022-09-24 09:24:30 GMT 63.710274 -23.086229 40,975 116 548 -64
2022-09-24 09:24:25 GMT 63.716095 -23.112818 40,975 116 548 0
2022-09-24 09:24:20 GMT 63.721680 -23.138416 41,000 116 548 0
2022-09-24 09:24:15 GMT 63.727112 -23.163511 41,000 116 547 0
2022-09-24 09:24:10 GMT 63.732651 -23.188971 41,000 116 547 -64
2022-09-24 09:24:05 GMT 63.738647 -23.216646 40,975 116 546 -64
2022-09-24 09:24:00 GMT 63.743885 -23.240587 41,000 116 546 0
2022-09-24 09:23:55 GMT 63.749428 -23.266188 41,000 116 547 -64
2022-09-24 09:23:50 GMT 63.755264 -23.293234 41,000 115 546 0
2022-09-24 09:23:45 GMT 63.760460 -23.317272 41,000 115 546 0
2022-09-24 09:23:40 GMT 63.766251 -23.344467 41,000 115 546 -64
2022-09-24 09:23:35 GMT 63.771446 -23.368469 41,000 115 546 -64
2022-09-24 09:23:29 GMT 63.777466 -23.396652 41,000 115 546 -64
2022-09-24 09:23:25 GMT 63.782433 -23.419666 41,000 115 546 -64
2022-09-24 09:23:20 GMT 63.788761 -23.449438 40,975 115 547 0
2022-09-24 09:23:15 GMT 63.793839 -23.473059 40,975 115 546 0
2022-09-24 09:23:09 GMT 63.799850 -23.501234 40,975 115 547 64
2022-09-24 09:23:05 GMT 63.804474 -23.522785 40,975 115 547 0
2022-09-24 09:22:59 GMT 63.811199 -23.554138 40,975 115 547 64
2022-09-24 09:22:55 GMT 63.815689 -23.575287 40,975 115 548 0
2022-09-24 09:22:49 GMT 63.822281 -23.606133 40,975 115 548 0
2022-09-24 09:22:45 GMT 63.826447 -23.625675 40,975 115 548 -64
2022-09-24 09:22:40 GMT 63.833908 -23.660748 41,000 115 549 0
2022-09-24 09:22:34 GMT 63.837967 -23.679932 41,000 115 550 0
2022-09-24 09:22:30 GMT 63.848721 -23.730579 41,000 115 550 0
2022-09-24 09:22:25 GMT 63.848721 -23.730579 40,975 115 551 0
2022-09-24 09:22:20 GMT 63.854168 -23.756506 40,975 115 551 -64
2022-09-24 09:22:14 GMT 63.860313 -23.785620 41,000 115 551 -64
2022-09-24 09:22:10 GMT 63.864922 -23.807373 41,000 115 551 0
2022-09-24 09:22:08 GMT 63.867111 -23.817810 40,975 115 551 0
2022-09-24 09:22:05 GMT 63.870483 -23.833887 40,975 115 551 64
2022-09-24 09:21:59 GMT 63.877350 -23.866699 40,975 115 551 64
2022-09-24 09:21:55 GMT 63.881496 -23.886475 40,975 115 551 64
2022-09-24 09:21:50 GMT 63.886940 -23.912512 40,975 115 551 0
2022-09-24 09:21:45 GMT 63.892731 -23.940054 40,975 115 551 -64
2022-09-24 09:21:39 GMT 63.897949 -23.964985 41,000 115 551 0
2022-09-24 09:21:34 GMT 63.903702 -23.992603 41,000 115 551 0
2022-09-24 09:21:28 GMT 63.910767 -24.026466 41,000 115 550 0
2022-09-24 09:21:24 GMT 63.914360 -24.043579 41,000 115 550 -64
2022-09-24 09:21:18 GMT 63.921249 -24.076979 41,000 115 550 -64
2022-09-24 09:21:14 GMT 63.925049 -24.095236 41,000 115 550 0
2022-09-24 09:21:08 GMT 63.932468 -24.131140 41,000 115 550 0
2022-09-24 09:21:04 GMT 63.935913 -24.147839 40,975 115 550 64
2022-09-24 09:20:59 GMT 63.941547 -24.174976 40,975 115 549 0
2022-09-24 09:20:57 GMT 63.943687 -24.185303 40,975 115 549 0
2022-09-24 09:20:54 GMT 63.946838 -24.200451 41,000 115 549 -64
2022-09-24 09:20:48 GMT 63.954487 -24.237377 40,975 115 548 0
2022-09-24 09:20:44 GMT 63.957703 -24.252979 40,975 115 548 0
2022-09-24 09:20:39 GMT 63.963181 -24.279573 41,000 115 548 0
2022-09-24 09:20:37 GMT 63.965103 -24.288977 40,975 115 548 0
2022-09-24 09:20:34 GMT 63.968452 -24.305054 40,975 115 548 64
2022-09-24 09:20:29 GMT 63.973995 -24.332190 41,000 115 548 0
2022-09-24 09:20:27 GMT 63.976135 -24.342518 41,000 115 548 -64
2022-09-24 09:20:24 GMT 63.979248 -24.357639 40,975 115 548 -64
2022-09-24 09:20:19 GMT 63.984467 -24.383167 41,000 114 548 0
2022-09-24 09:20:17 GMT 63.986710 -24.394085 41,000 114 548 -64
2022-09-24 09:20:14 GMT 63.990009 -24.410303 41,000 114 548 -64
2022-09-24 09:20:09 GMT 63.995224 -24.435812 41,000 114 548 -64
2022-09-24 09:20:07 GMT 63.997456 -24.446777 41,000 114 548 -64
2022-09-24 09:20:04 GMT 64.000534 -24.461905 41,000 114 548 0
2022-09-24 09:19:59 GMT 64.006165 -24.489624 40,975 114 548 64
2022-09-24 09:19:54 GMT 64.011383 -24.515146 40,975 114 548 64
2022-09-24 09:19:49 GMT 64.016693 -24.541344 40,975 114 548 0
2022-09-24 09:19:44 GMT 64.021896 -24.566858 41,000 114 548 -64
2022-09-24 09:19:39 GMT 64.027313 -24.593529 40,975 114 548 -64
2022-09-24 09:19:34 GMT 64.032623 -24.619621 41,000 114 547 -64
2022-09-24 09:19:28 GMT 64.038239 -24.647388 41,000 114 547 -64
2022-09-24 09:19:24 GMT 64.043541 -24.673534 41,000 114 547 0
2022-09-24 09:19:19 GMT 64.048691 -24.699060 41,000 114 547 0
2022-09-24 09:19:14 GMT 64.053772 -24.724203 40,975 114 548 0
2022-09-24 09:19:09 GMT 64.059135 -24.750879 41,000 114 547 0
2022-09-24 09:19:03 GMT 64.065239 -24.781200 40,975 114 547 0
2022-09-24 09:18:59 GMT 64.069565 -24.802692 40,975 114 546 0
2022-09-24 09:18:54 GMT 64.074829 -24.828785 40,975 114 546 -64
2022-09-24 09:18:49 GMT 64.079948 -24.854481 41,000 114 546 -64
2022-09-24 09:18:45 GMT 64.083618 -24.872835 41,000 114 546 0
2022-09-24 09:18:42 GMT 64.086884 -24.888977 41,000 114 546 0
2022-09-24 09:18:38 GMT 64.091492 -24.912048 41,000 114 547 -64
2022-09-24 09:18:34 GMT 64.095871 -24.934021 41,000 114 546 0
2022-09-24 09:18:29 GMT 64.101196 -24.960726 40,975 114 546 -64
2022-09-24 09:18:24 GMT 64.106415 -24.986923 41,000 114 545 -64
2022-09-24 09:18:18 GMT 64.112686 -25.018404 41,000 114 545 -64
2022-09-24 09:18:14 GMT 64.116623 -25.038263 41,000 114 545 0
2022-09-24 09:18:09 GMT 64.121704 -25.063879 41,000 114 545 64
2022-09-24 09:18:04 GMT 64.127106 -25.091234 40,975 114 546 64
2022-09-24 09:17:59 GMT 64.132507 -25.118481 41,000 114 546 0
2022-09-24 09:17:54 GMT 64.137589 -25.144218 40,975 114 546 0
2022-09-24 09:17:49 GMT 64.142883 -25.170885 41,000 114 546 0
2022-09-24 09:17:43 GMT 64.148575 -25.199783 40,975 114 546 0
2022-09-24 09:17:38 GMT 64.153450 -25.224501 41,000 114 546 0
2022-09-24 09:17:34 GMT 64.158386 -25.249767 40,975 114 546 0
2022-09-24 09:17:29 GMT 64.163788 -25.277124 41,000 114 546 0
2022-09-24 09:17:24 GMT 64.168907 -25.303381 41,000 114 546 0
2022-09-24 09:17:19 GMT 64.173798 -25.328135 40,975 114 546 0
2022-09-24 09:17:14 GMT 64.178825 -25.354029 41,000 114 546 0
2022-09-24 09:17:09 GMT 64.184174 -25.381384 41,000 114 547 0
2022-09-24 09:17:04 GMT 64.189110 -25.406763 41,000 114 547 0
2022-09-24 09:16:59 GMT 64.194695 -25.435328 40,975 114 547 0
2022-09-24 09:16:54 GMT 64.199707 -25.461239 40,975 114 547 0
2022-09-24 09:16:48 GMT 64.205017 -25.488705 41,000 113 548 0
2022-09-24 09:16:43 GMT 64.209961 -25.514057 40,975 113 548 0
2022-09-24 09:16:38 GMT 64.215317 -25.541628 41,000 113 548 0
2022-09-24 09:16:33 GMT 64.220581 -25.568701 41,000 114 549 -64
2022-09-24 09:16:28 GMT 64.225327 -25.593090 41,000 114 549 0
2022-09-24 09:16:23 GMT 64.230560 -25.620222 41,000 113 550 0
2022-09-24 09:16:18 GMT 64.235802 -25.647364 41,000 113 551 64
2022-09-24 09:16:13 GMT 64.240738 -25.672960 40,975 113 550 0
2022-09-24 09:16:08 GMT 64.246048 -25.700756 40,975 113 551 0
2022-09-24 09:16:03 GMT 64.251350 -25.728552 40,975 113 551 0
2022-09-24 09:15:58 GMT 64.256470 -25.755249 40,975 113 552 0
2022-09-24 09:15:53 GMT 64.261360 -25.780956 40,975 113 552 -64
2022-09-24 09:15:48 GMT 64.266586 -25.808313 40,975 113 552 0
2022-09-24 09:15:43 GMT 64.271896 -25.836218 40,975 113 553 0
2022-09-24 09:15:38 GMT 64.277328 -25.864677 40,975 113 553 -64
2022-09-24 09:15:33 GMT 64.282333 -25.891041 40,975 113 554 0
2022-09-24 09:15:27 GMT 64.288239 -25.922241 41,000 113 554 0
We lost coverage of the aircraft here for a total of 77 minutes
2022-09-24 07:58:20 GMT 63.799999 -54.183334 41,000 81 560
2022-09-24 07:57:20 GMT 63.766666 -54.566666 41,000 81 560
2022-09-24 07:56:19 GMT 63.750000 -54.900002 41,000 74 560
2022-09-24 07:55:20 GMT 63.733334 -55.266666 41,000 71 560
2022-09-24 07:54:20 GMT 63.700001 -55.599998 41,000 74 550
2022-09-24 07:53:44 GMT 63.666668 -55.583332 41,000 81 560
2022-09-24 07:52:45 GMT 63.633331 -55.950001 41,000 83 550
2022-09-24 07:51:45 GMT 63.616669 -56.283333 41,000 77 550
2022-09-24 07:50:55 GMT 63.599998 -56.666668 41,000 76 550
2022-09-24 07:50:19 GMT 63.583332 -57.000000 41,000 79 550
2022-09-24 07:49:44 GMT 63.549999 -56.983334 41,000 80 550
2022-09-24 07:48:56 GMT 63.533333 -57.316666 41,000 80 550
2022-09-24 07:48:20 GMT 63.533333 -57.650002 41,000 83 550
2022-09-24 07:47:44 GMT 63.500000 -57.650002 41,000 89 540
2022-09-24 07:46:45 GMT 63.483334 -58.000000 41,000 91 530
2022-09-24 07:45:45 GMT 63.500000 -58.299999 41,000 89 530
2022-09-24 07:44:44 GMT 63.500000 -58.650002 41,000 93 530
2022-09-24 07:43:44 GMT 63.500000 -58.983334 41,000 93 530
2022-09-24 07:42:44 GMT 63.500000 -59.299999 41,000 92 530
2022-09-24 07:41:44 GMT 63.533333 -59.633331 41,000 89 530
2022-09-24 07:40:45 GMT 63.533333 -59.966667 41,000 89 530
2022-09-24 07:39:19 GMT 63.533333 -60.633331 41,000 89 530
2022-09-24 07:38:19 GMT 63.533333 -60.983334 41,000 89 530
2022-09-24 07:37:20 GMT 63.533333 -61.316666 41,000 89 530
2022-09-24 07:36:20 GMT 63.533333 -61.616669 41,000 89 530
2022-09-24 07:35:19 GMT 63.533333 -61.983334 41,000 89 520
2022-09-24 07:34:19 GMT 63.533333 -62.283333 41,000 87 520
2022-09-24 07:33:19 GMT 63.533333 -62.633331 41,000 89 520
2022-09-24 07:32:20 GMT 63.533333 -62.933334 41,000 91 520
2022-09-24 07:31:20 GMT 63.516666 -63.266666 41,000 63 520
2022-09-24 07:30:20 GMT 63.533333 -63.583332 41,000 64 520
2022-09-24 07:29:19 GMT 63.549999 -63.900002 41,000 61 520
2022-09-24 07:28:46 GMT 63.433334 -63.650002 41,000 91 520
2022-09-24 07:27:46 GMT 63.450001 -63.983334 41,000 91 520
2022-09-24 07:26:47 GMT 63.450001 -64.316666 41,000 91 520
2022-09-24 07:25:46 GMT 63.450001 -64.633331 41,000 91 520
2022-09-24 07:24:46 GMT 63.466667 -64.966667 41,000 89 520
2022-09-24 07:23:46 GMT 63.466667 -65.283333 41,000 97 520
2022-09-24 07:22:46 GMT 63.466667 -65.616669 41,000 97 520
2022-09-24 07:21:46 GMT 63.466667 -65.933334 41,000 96 520
2022-09-24 07:20:20 GMT 63.566666 -66.883331 41,000 87 520
2022-09-24 07:19:19 GMT 63.566666 -67.199997 41,000 89 520
2022-09-24 07:18:19 GMT 63.549999 -67.500000 41,000 92 520
2022-09-24 07:17:19 GMT 63.549999 -67.816666 41,000 93 520
2022-09-24 07:16:44 GMT 63.566666 -67.833336 41,000 87 520
2022-09-24 07:15:44 GMT 63.566666 -68.166664 41,000 87 520
2022-09-24 07:14:44 GMT 63.566666 -68.466667 41,000 85 520
2022-09-24 07:13:44 GMT 63.549999 -68.816666 41,000 87 520
2022-09-24 07:12:43 GMT 63.549999 -69.116669 41,000 85 510
2022-09-24 07:11:44 GMT 63.533333 -69.466667 41,000 85 510
2022-09-24 07:10:55 GMT 63.533333 -69.766670 41,000 82 510
2022-09-24 07:09:55 GMT 63.516666 -70.099998 41,000 80 510
2022-09-24 07:08:55 GMT 63.500000 -70.416664 41,000 80 510
2022-09-24 07:07:55 GMT 63.483334 -70.716667 41,000 78 510
2022-09-24 07:06:55 GMT 63.450001 -71.033333 41,000 80 510
2022-09-24 07:06:19 GMT 63.433334 -71.333336 41,000 80 510
2022-09-24 07:05:19 GMT 63.400002 -71.666664 41,000 80 510
2022-09-24 07:04:19 GMT 63.383331 -71.966667 41,000 78 510
2022-09-24 07:03:19 GMT 63.366669 -72.266670 41,000 78 510
2022-09-24 07:02:19 GMT 63.333332 -72.599998 41,000 78 510
2022-09-24 07:01:19 GMT 63.299999 -72.900002 41,000 80 510
2022-09-24 07:00:19 GMT 63.283333 -73.233330 41,000 77 510
2022-09-24 06:59:19 GMT 63.250000 -73.516670 41,000 78 510
2022-09-24 06:58:19 GMT 63.233334 -73.816666 41,000 76 510
2022-09-24 06:57:18 GMT 63.200001 -74.116669 41,000 78 500
2022-09-24 06:56:19 GMT 63.166668 -74.433334 41,000 78 500
2022-09-24 06:55:19 GMT 63.133331 -74.766670 41,000 49 500
2022-09-24 06:54:19 GMT 63.116669 -75.066666 41,000 43 500
2022-09-24 06:53:19 GMT 63.083332 -75.349998 41,000 42 500
2022-09-24 06:52:45 GMT 63.016666 -75.066666 41,000 75 510
2022-09-24 06:51:46 GMT 62.983334 -75.349998 41,000 69 510
2022-09-24 06:50:46 GMT 62.933334 -75.650002 41,000 83 510
We lost coverage of the aircraft here for a total of 66 minutes
2022-09-24 05:44:45 GMT 59.283333 -93.699997 39,000 57 520
2022-09-24 05:43:45 GMT 59.200001 -93.966667 39,000 56 520
2022-09-24 05:41:44 GMT 59.033333 -94.433334 39,000 56 520
2022-09-24 05:40:45 GMT 58.966667 -94.666664 39,000 54 520
2022-09-24 05:39:45 GMT 58.883331 -94.900002 39,000 54 520
2022-09-24 05:38:45 GMT 58.799999 -95.116669 39,000 55 520
2022-09-24 05:37:44 GMT 58.716667 -95.349998 39,000 57 520
2022-09-24 05:36:44 GMT 58.633331 -95.583336 39,000 55 520
2022-09-24 05:35:45 GMT 58.549999 -95.816666 39,000 55 520
2022-09-24 05:34:45 GMT 58.483334 -96.050003 39,000 53 520
2022-09-24 05:33:45 GMT 58.383331 -96.283333 39,000 54 520
2022-09-24 05:32:45 GMT 58.299999 -96.516670 39,000 53 520
2022-09-24 05:31:44 GMT 58.216667 -96.733330 39,000 52 520
2022-09-24 05:30:44 GMT 58.133331 -96.966667 39,000 53 520
2022-09-24 05:29:44 GMT 58.049999 -97.166664 39,000 54 520
2022-09-24 05:28:45 GMT 57.950001 -97.400002 39,000 56 520
2022-09-24 05:27:45 GMT 57.866669 -97.650002 39,000 53 520
2022-09-24 05:26:44 GMT 57.783333 -97.866669 39,000 52 520
2022-09-24 05:25:44 GMT 57.716667 -98.066666 39,000 50 520
2022-09-24 05:24:44 GMT 57.616669 -98.300003 39,000 52 520
2022-09-24 05:23:45 GMT 57.516666 -98.516670 39,000 54 520
2022-09-24 05:22:45 GMT 57.433334 -98.716667 39,000 54 520
2022-09-24 05:21:45 GMT 57.366669 -98.916664 39,000 51 520
2022-09-24 05:20:44 GMT 57.266666 -99.166664 39,000 51 520
2022-09-24 05:19:44 GMT 57.183334 -99.366669 39,000 50 520
2022-09-24 05:18:44 GMT 57.083332 -99.583336 39,000 51 520
2022-09-24 05:17:45 GMT 57.000000 -99.783333 39,000 49 520
2022-09-24 05:16:45 GMT 56.900002 -100.000000 39,000 53 520
2022-09-24 05:15:44 GMT 56.816666 -100.199997 39,000 50 520
2022-09-24 05:14:44 GMT 56.716667 -100.400002 39,000 54 520
2022-09-24 05:13:44 GMT 56.650002 -100.633331 39,000 49 520
2022-09-24 05:12:44 GMT 56.549999 -100.800003 39,000 50 520
2022-09-24 05:11:45 GMT 56.466667 -101.033333 39,000 49 520
2022-09-24 05:10:45 GMT 56.366669 -101.250000 39,000 48 520
2022-09-24 05:09:44 GMT 56.266666 -101.433334 39,000 58 520
2022-09-24 05:08:44 GMT 56.183334 -101.633331 39,000 57 520
2022-09-24 05:07:44 GMT 56.083332 -101.833336 39,000 58 520
2022-09-24 05:06:54 GMT 56.033333 -102.116669 39,000 48 520
We lost coverage of the aircraft here for a total of 7 minutes
2022-09-24 04:59:47 GMT 55.371826 -103.482887 39,000 48 522 -64
2022-09-24 04:59:43 GMT 55.364017 -103.498451 38,975 48 522 -64
2022-09-24 04:59:20 GMT 55.328156 -103.569893 39,000 48 522 0
2022-09-24 04:59:07 GMT 55.308701 -103.608505 39,000 48 522 0
2022-09-24 04:58:03 GMT 55.204903 -103.813141 39,000 48 524 -64
2022-09-24 04:57:56 GMT 55.194443 -103.833649 38,975 48 524 0
2022-09-24 04:57:03 GMT 55.107468 -104.003738 38,975 48 521 0
2022-09-24 04:56:54 GMT 55.093689 -104.030624 39,000 48 521 -64
2022-09-24 04:56:43 GMT 55.077164 -104.062660 39,000 48 520 0
2022-09-24 04:56:31 GMT 55.058212 -104.099419 38,975 48 520 -64
2022-09-24 04:56:08 GMT 55.020035 -104.173416 38,975 48 520 -64
2022-09-24 04:56:01 GMT 55.009415 -104.193848 39,000 47 519 -64
2022-09-24 04:55:51 GMT 54.992432 -104.226730 39,000 47 519 -64
2022-09-24 04:55:40 GMT 54.976238 -104.257919 39,000 47 519 -64
2022-09-24 04:55:30 GMT 54.959526 -104.290047 38,975 47 518 -64
2022-09-24 04:55:20 GMT 54.942581 -104.322762 39,000 47 518 -64
2022-09-24 04:54:17 GMT 54.840500 -104.518433 38,975 47 521 0
2022-09-24 04:54:05 GMT 54.823975 -104.549858 38,975 47 521 -64
2022-09-24 04:53:56 GMT 54.807449 -104.581284 38,975 47 521 -64
2022-09-24 04:53:45 GMT 54.790283 -104.613914 39,000 47 522 -64
2022-09-24 04:53:35 GMT 54.772617 -104.647522 39,000 47 522 -64
2022-09-24 04:53:23 GMT 54.756046 -104.678902 39,000 47 523 -64
2022-09-24 04:53:14 GMT 54.738773 -104.711609 39,000 47 523 0
2022-09-24 04:53:03 GMT 54.722305 -104.742683 38,975 47 524 0
2022-09-24 04:52:53 GMT 54.705116 -104.775032 39,000 47 524 -64
2022-09-24 04:52:41 GMT 54.687332 -104.808601 39,000 47 523 0
2022-09-24 04:52:32 GMT 54.670204 -104.840866 38,975 47 523 0
2022-09-24 04:52:20 GMT 54.652679 -104.873711 38,975 47 524 -64
2022-09-24 04:52:10 GMT 54.635849 -104.905365 39,000 47 523 -64
2022-09-24 04:52:00 GMT 54.618073 -104.938744 39,000 47 523 0
2022-09-24 04:51:48 GMT 54.600769 -104.971130 38,975 47 523 0
2022-09-24 04:51:39 GMT 54.583786 -105.002960 39,000 47 523 -64
2022-09-24 04:51:27 GMT 54.565693 -105.036789 39,000 47 522 -64
2022-09-24 04:51:18 GMT 54.549866 -105.066292 38,975 47 521 64
2022-09-24 04:51:07 GMT 54.532734 -105.098213 38,975 47 522 -64
2022-09-24 04:50:57 GMT 54.514767 -105.131668 39,000 47 522 -64
2022-09-24 04:50:45 GMT 54.498100 -105.162712 39,000 47 522 0
2022-09-24 04:50:36 GMT 54.480881 -105.194572 38,975 47 522 0
2022-09-24 04:50:24 GMT 54.463531 -105.226730 38,975 47 522 -64
2022-09-24 04:50:15 GMT 54.446335 -105.258598 39,000 47 522 -64
2022-09-24 04:50:04 GMT 54.429295 -105.290054 39,000 47 522 -64
2022-09-24 04:49:53 GMT 54.411713 -105.322456 38,975 47 522 0
2022-09-24 04:49:43 GMT 54.394150 -105.354805 39,000 47 522 0
2022-09-24 04:49:32 GMT 54.377563 -105.385384 39,000 47 522 -64
2022-09-24 04:49:22 GMT 54.360443 -105.416809 39,000 47 522 -64
2022-09-24 04:49:12 GMT 54.342682 -105.449440 39,000 47 523 -64
2022-09-24 04:49:00 GMT 54.325928 -105.480301 39,000 47 523 0
2022-09-24 04:48:50 GMT 54.307800 -105.513504 38,975 46 523 -64
2022-09-24 04:48:39 GMT 54.290802 -105.544487 39,000 46 523 -64
2022-09-24 04:48:30 GMT 54.274109 -105.574928 39,000 46 524 -64
2022-09-24 04:48:18 GMT 54.256256 -105.607414 38,975 46 523 0
2022-09-24 04:48:09 GMT 54.238895 -105.639038 39,000 46 524 0
2022-09-24 04:47:57 GMT 54.221512 -105.670662 38,975 46 524 0
2022-09-24 04:47:48 GMT 54.204449 -105.701645 39,000 46 524 -64
2022-09-24 04:47:37 GMT 54.186676 -105.733833 38,975 46 526 0
2022-09-24 04:47:26 GMT 54.168835 -105.766029 38,975 46 526 -64
2022-09-24 04:47:16 GMT 54.151703 -105.797005 38,975 46 525 0
2022-09-24 04:47:04 GMT 54.133503 -105.829681 38,975 46 526 64
2022-09-24 04:46:55 GMT 54.116364 -105.860573 38,975 46 525 -64
2022-09-24 04:46:43 GMT 54.098373 -105.892982 38,975 46 524 -64
2022-09-24 04:46:34 GMT 54.080944 -105.924362 38,975 46 524 -64
2022-09-24 04:46:23 GMT 54.064178 -105.954422 39,000 46 524 -64
2022-09-24 04:46:13 GMT 54.046730 -105.985832 39,000 46 524 -64
2022-09-24 04:46:01 GMT 54.028156 -106.019196 38,975 46 523 0
2022-09-24 04:45:52 GMT 54.011536 -106.049004 39,000 46 523 -64
2022-09-24 04:45:40 GMT 53.993938 -106.080589 38,975 46 523 -64
2022-09-24 04:45:31 GMT 53.976295 -106.112099 39,000 46 524 0
2022-09-24 04:45:20 GMT 53.959488 -106.142136 39,000 46 523 -64
2022-09-24 04:45:10 GMT 53.941864 -106.173523 38,975 46 523 -64
2022-09-24 04:44:58 GMT 53.923874 -106.205460 38,975 46 523 -64
2022-09-24 04:44:49 GMT 53.906845 -106.235672 38,975 46 522 -64
2022-09-24 04:44:37 GMT 53.888729 -106.267845 38,975 46 522 -64
2022-09-24 04:44:28 GMT 53.871231 -106.298843 39,000 46 522 -64
2022-09-24 04:44:17 GMT 53.854568 -106.328270 39,000 46 521 -64
2022-09-24 04:44:07 GMT 53.836945 -106.359428 38,975 46 521 -64
2022-09-24 04:43:56 GMT 53.820007 -106.389328 39,000 46 520 -64
2022-09-24 04:43:46 GMT 53.801910 -106.421326 39,000 46 520 0
2022-09-24 04:43:35 GMT 53.784641 -106.451782 39,000 46 520 -64
2022-09-24 04:43:25 GMT 53.767181 -106.482552 39,000 46 521 -64
2022-09-24 04:43:13 GMT 53.749306 -106.513908 39,000 46 521 -64
2022-09-24 04:43:04 GMT 53.732594 -106.543144 38,975 46 521 64
2022-09-24 04:42:53 GMT 53.714581 -106.574738 38,975 46 521 0
2022-09-24 04:42:42 GMT 53.697495 -106.604546 39,000 45 521 -64
2022-09-24 04:42:33 GMT 53.679611 -106.635735 38,975 46 521 -64
2022-09-24 04:42:22 GMT 53.661942 -106.666573 39,000 46 519 -64
2022-09-24 04:42:11 GMT 53.644318 -106.697334 39,000 46 519 -64
2022-09-24 04:42:01 GMT 53.627609 -106.726295 39,000 45 519 -64
2022-09-24 04:41:50 GMT 53.610115 -106.756737 39,000 45 520 -64
2022-09-24 04:41:40 GMT 53.592590 -106.787186 38,975 45 520 -64
2022-09-24 04:41:30 GMT 53.574509 -106.818420 39,000 45 520 -64
2022-09-24 04:41:18 GMT 53.556953 -106.848747 38,975 45 519 -64
2022-09-24 04:41:09 GMT 53.539913 -106.878227 38,975 45 519 -64
2022-09-24 04:40:57 GMT 53.521683 -106.909683 38,975 45 520 0
2022-09-24 04:40:48 GMT 53.503922 -106.940369 39,000 45 521 0
2022-09-24 04:40:36 GMT 53.486332 -106.970726 38,975 45 521 -64
2022-09-24 04:40:26 GMT 53.468506 -107.001427 39,000 45 522 -128
2022-09-24 04:40:16 GMT 53.451187 -107.031166 39,000 45 521 -64
2022-09-24 04:40:05 GMT 53.433544 -107.061447 39,000 45 521 0
2022-09-24 04:39:55 GMT 53.416367 -107.090851 38,975 45 521 64
2022-09-24 04:39:45 GMT 53.397995 -107.122192 38,975 45 521 -64
2022-09-24 04:39:34 GMT 53.380379 -107.152405 39,000 45 521 -64
2022-09-24 04:39:23 GMT 53.362553 -107.182861 38,975 45 521 -64
2022-09-24 04:39:12 GMT 53.345261 -107.212517 39,000 45 520 -64
2022-09-24 04:39:03 GMT 53.327915 -107.241989 39,000 45 521 -64
2022-09-24 04:38:52 GMT 53.309555 -107.273178 39,000 45 520 -64
2022-09-24 04:38:40 GMT 53.291702 -107.303543 38,975 45 521 0
2022-09-24 04:38:31 GMT 53.274055 -107.333519 39,000 45 520 0
2022-09-24 04:38:20 GMT 53.255482 -107.364944 38,975 45 520 0
2022-09-24 04:38:08 GMT 53.237823 -107.394890 38,975 45 520 0
2022-09-24 04:37:59 GMT 53.220100 -107.424805 39,000 45 520 -64
2022-09-24 04:37:47 GMT 53.202393 -107.454689 39,000 45 520 -64
2022-09-24 04:37:38 GMT 53.184956 -107.483932 38,975 45 521 -64
2022-09-24 04:37:26 GMT 53.167076 -107.514069 39,000 45 520 0
2022-09-24 04:37:17 GMT 53.149658 -107.543282 38,975 45 519 0
2022-09-24 04:37:06 GMT 53.131805 -107.573257 38,975 45 518 -64
2022-09-24 04:36:55 GMT 53.114147 -107.602844 39,000 45 518 -64
2022-09-24 04:36:46 GMT 53.097153 -107.631332 39,000 45 517 -64
2022-09-24 04:36:34 GMT 53.079140 -107.661461 38,975 45 517 0
2022-09-24 04:36:25 GMT 53.061310 -107.691284 38,975 45 516 -64
2022-09-24 04:36:14 GMT 53.043320 -107.721329 39,000 45 516 -64
2022-09-24 04:36:08 GMT 53.035263 -107.734756 38,975 45 516 -64
2022-09-24 04:36:03 GMT 53.026520 -107.749329 39,000 45 516 -64
2022-09-24 04:35:53 GMT 53.009033 -107.778473 39,000 45 516 -64
2022-09-24 04:35:43 GMT 52.991390 -107.807899 39,000 45 516 -64
2022-09-24 04:35:31 GMT 52.973236 -107.838188 39,000 45 516 -64
2022-09-24 04:35:26 GMT 52.963989 -107.853546 39,000 45 516 -64
2022-09-24 04:35:22 GMT 52.956207 -107.866440 39,000 45 516 0
2022-09-24 04:35:17 GMT 52.948284 -107.879539 39,000 45 516 -64
2022-09-24 04:35:10 GMT 52.938034 -107.896576 38,975 45 516 0
2022-09-24 04:35:01 GMT 52.920822 -107.925034 38,975 45 516 -64
2022-09-24 04:34:49 GMT 52.902328 -107.955627 39,000 44 515 -64
2022-09-24 04:34:44 GMT 52.892700 -107.971436 38,975 44 515 -64
2022-09-24 04:34:40 GMT 52.884972 -107.984230 38,975 44 515 -64
2022-09-24 04:34:34 GMT 52.877426 -107.996674 39,000 44 514 -64
2022-09-24 04:34:28 GMT 52.867142 -108.013573 39,000 44 514 -64
2022-09-24 04:34:19 GMT 52.849358 -108.042923 39,000 44 513 0
2022-09-24 04:34:07 GMT 52.832062 -108.071289 39,000 44 513 -64
2022-09-24 04:33:58 GMT 52.814724 -108.099739 39,000 44 513 -64
2022-09-24 04:33:47 GMT 52.797089 -108.128738 39,000 44 513 -64
2022-09-24 04:33:37 GMT 52.779282 -108.157883 39,000 44 512 0
2022-09-24 04:33:33 GMT 52.773712 -108.166916 39,000 44 512 64
2022-09-24 04:33:26 GMT 52.761608 -108.186691 39,000 44 512 -64
2022-09-24 04:33:16 GMT 52.744198 -108.215256 39,000 44 512 -64
2022-09-24 04:33:12 GMT 52.738312 -108.224869 39,000 44 512 -64
2022-09-24 04:33:05 GMT 52.726547 -108.244095 39,000 44 512 -64
2022-09-24 04:32:58 GMT 52.716110 -108.261032 39,000 44 512 0
2022-09-24 04:32:55 GMT 52.708694 -108.273087 39,000 44 513 -64
2022-09-24 04:32:49 GMT 52.699951 -108.287354 39,000 44 513 0
2022-09-24 04:32:41 GMT 52.686493 -108.309250 38,975 44 513 0
2022-09-24 04:32:34 GMT 52.673676 -108.330078 38,975 44 513 0
2022-09-24 04:32:30 GMT 52.668457 -108.338615 38,975 44 513 -64
2022-09-24 04:32:23 GMT 52.655655 -108.359489 39,000 44 514 -64
2022-09-24 04:32:13 GMT 52.637779 -108.388527 38,975 44 514 -64
2022-09-24 04:32:09 GMT 52.633358 -108.395668 39,000 44 514 -64
2022-09-24 04:32:01 GMT 52.619705 -108.417816 39,000 44 514 -64
2022-09-24 04:31:52 GMT 52.601807 -108.446732 38,975 44 513 -64
2022-09-24 04:31:41 GMT 52.584595 -108.474579 39,000 44 513 -64
2022-09-24 04:31:38 GMT 52.581207 -108.480072 39,000 44 513 -64
2022-09-24 04:31:30 GMT 52.566879 -108.503250 39,000 44 513 -64
2022-09-24 04:31:20 GMT 52.548634 -108.532677 39,000 44 513 -64
2022-09-24 04:31:11 GMT 52.534286 -108.555832 38,975 44 514 -64
2022-09-24 04:31:07 GMT 52.528152 -108.565674 38,975 44 514 -64
2022-09-24 04:30:59 GMT 52.513439 -108.589340 38,975 44 514 0
2022-09-24 04:30:48 GMT 52.495651 -108.617935 38,975 44 514 -64
2022-09-24 04:30:44 GMT 52.488720 -108.629128 38,975 44 514 -64
2022-09-24 04:30:36 GMT 52.475647 -108.650055 39,000 44 514 -64
2022-09-24 04:30:26 GMT 52.459530 -108.675896 39,000 44 514 0
2022-09-24 04:30:23 GMT 52.454269 -108.684311 38,975 44 514 -64
2022-09-24 04:30:17 GMT 52.442368 -108.703384 38,975 44 514 0
2022-09-24 04:30:05 GMT 52.422474 -108.735222 38,975 44 515 -64
2022-09-24 04:29:56 GMT 52.406136 -108.761353 39,000 44 516 -64
2022-09-24 04:29:45 GMT 52.383278 -108.797768 38,975 44 516 -64
2022-09-24 04:29:35 GMT 52.370132 -108.818665 39,000 44 516 -64
2022-09-24 04:29:32 GMT 52.363998 -108.828506 39,000 44 516 0
2022-09-24 04:29:22 GMT 52.349625 -108.851318 38,975 44 517 0
2022-09-24 04:29:13 GMT 52.332184 -108.879089 39,000 44 517 -64
2022-09-24 04:29:01 GMT 52.314522 -108.907082 39,000 44 517 -64
2022-09-24 04:28:52 GMT 52.296413 -108.935875 39,000 44 516 -64
2022-09-24 04:28:41 GMT 52.278629 -108.964127 38,975 44 517 -64
2022-09-24 04:28:31 GMT 52.259949 -108.993683 39,000 44 516 -64
2022-09-24 04:28:19 GMT 52.241295 -109.023216 39,000 44 516 -64
2022-09-24 04:28:10 GMT 52.224335 -109.049911 38,975 44 517 0
2022-09-24 04:27:58 GMT 52.205795 -109.079132 38,975 44 517 0
2022-09-24 04:27:49 GMT 52.187622 -109.107742 38,975 44 517 -64
2022-09-24 04:27:39 GMT 52.173374 -109.130104 38,975 44 517 -64
2022-09-24 04:27:36 GMT 52.167755 -109.139023 39,000 44 517 -64
2022-09-24 04:27:29 GMT 52.155396 -109.158478 39,000 43 516 -64
2022-09-24 04:27:26 GMT 52.149902 -109.167099 39,000 43 516 -64
2022-09-24 04:27:21 GMT 52.141663 -109.180069 39,000 43 516 -64
2022-09-24 04:27:17 GMT 52.134968 -109.190529 39,000 43 516 -64
2022-09-24 04:27:11 GMT 52.123444 -109.208527 39,000 43 516 -64
2022-09-24 04:27:07 GMT 52.119141 -109.215248 39,000 43 516 -64
2022-09-24 04:27:04 GMT 52.111450 -109.227371 38,975 43 516 0
2022-09-24 04:26:57 GMT 52.100613 -109.244278 38,975 43 517 0
2022-09-24 04:26:46 GMT 52.083061 -109.271667 38,975 43 517 -64
2022-09-24 04:26:40 GMT 52.071053 -109.290421 38,975 43 516 -64
2022-09-24 04:26:36 GMT 52.065033 -109.299850 39,000 43 518 -128
2022-09-24 04:26:28 GMT 52.050568 -109.322510 39,000 43 518 -64
2022-09-24 04:26:25 GMT 52.046448 -109.328995 39,000 43 518 -64
2022-09-24 04:26:20 GMT 52.036469 -109.344559 39,000 43 518 -64
2022-09-24 04:26:15 GMT 52.028690 -109.356651 39,000 43 519 -64
2022-09-24 04:26:04 GMT 52.010605 -109.384918 38,975 43 518 -64
2022-09-24 04:25:55 GMT 51.992474 -109.413078 38,975 43 517 0
2022-09-24 04:25:43 GMT 51.974304 -109.441223 38,975 43 518 -64
2022-09-24 04:25:34 GMT 51.956535 -109.468712 38,975 43 517 -64
2022-09-24 04:25:23 GMT 51.938610 -109.496498 39,000 43 517 -64
2022-09-24 04:25:17 GMT 51.926056 -109.515991 38,975 43 516 -64
2022-09-24 04:25:13 GMT 51.920517 -109.524536 38,975 43 516 -64
2022-09-24 04:25:10 GMT 51.914497 -109.533852 39,000 43 516 -64
2022-09-24 04:25:03 GMT 51.904163 -109.549858 39,000 43 517 0
2022-09-24 04:24:59 GMT 51.897446 -109.560165 38,975 43 516 0
2022-09-24 04:24:52 GMT 51.884144 -109.580688 38,975 43 516 0
2022-09-24 04:24:40 GMT 51.865356 -109.609634 38,975 43 516 -64
2022-09-24 04:24:36 GMT 51.858444 -109.620247 39,000 43 517 -64
2022-09-24 04:24:28 GMT 51.842064 -109.645462 39,000 43 516 -64
2022-09-24 04:24:19 GMT 51.829632 -109.664612 38,975 43 516 -64
2022-09-24 04:24:15 GMT 51.822369 -109.675751 38,975 43 516 -64
2022-09-24 04:24:10 GMT 51.811291 -109.692688 38,975 43 516 -64
2022-09-24 04:24:07 GMT 51.806824 -109.699631 38,975 43 516 -64
2022-09-24 04:24:01 GMT 51.797138 -109.714432 39,000 43 517 -64
2022-09-24 04:23:58 GMT 51.792622 -109.721375 38,975 43 517 -64
2022-09-24 04:23:52 GMT 51.780716 -109.739609 38,975 43 516 -64
2022-09-24 04:23:48 GMT 51.775024 -109.748383 39,000 43 516 0
2022-09-24 04:23:44 GMT 51.767578 -109.759804 39,000 43 516 -64
2022-09-24 04:23:40 GMT 51.761898 -109.768524 38,975 43 516 -64
2022-09-24 04:23:36 GMT 51.752216 -109.783325 39,000 43 516 -64
2022-09-24 04:23:30 GMT 51.743931 -109.795990 38,975 43 516 -64
2022-09-24 04:23:27 GMT 51.738762 -109.803925 39,000 43 516 -64
2022-09-24 04:23:18 GMT 51.721817 -109.829865 39,000 43 516 -64
2022-09-24 04:23:15 GMT 51.716278 -109.838333 39,000 43 517 -64
2022-09-24 04:23:07 GMT 51.702621 -109.859200 39,000 43 517 -64
2022-09-24 04:23:03 GMT 51.697937 -109.866333 39,000 43 517 -64
2022-09-24 04:22:54 GMT 51.679779 -109.894012 38,975 43 517 0
2022-09-24 04:22:46 GMT 51.667603 -109.912498 39,000 43 517 -64
2022-09-24 04:22:43 GMT 51.662430 -109.920441 39,000 43 517 -64
2022-09-24 04:22:33 GMT 51.644394 -109.947830 39,000 43 517 -64
2022-09-24 04:22:24 GMT 51.629150 -109.970993 39,000 43 517 -64
2022-09-24 04:22:14 GMT 51.611115 -109.998383 38,975 43 517 0
2022-09-24 04:22:03 GMT 51.592869 -110.026016 39,000 43 517 -64
2022-09-24 04:21:53 GMT 51.574432 -110.053787 38,975 43 517 0
2022-09-24 04:21:43 GMT 51.559490 -110.076370 38,975 43 516 0
2022-09-24 04:21:40 GMT 51.552551 -110.086899 38,975 43 516 -64
2022-09-24 04:21:32 GMT 51.537460 -110.109657 38,975 43 516 -64
2022-09-24 04:21:29 GMT 51.533340 -110.115967 38,975 43 516 -64
2022-09-24 04:21:19 GMT 51.517365 -110.140015 39,000 43 515 -64
2022-09-24 04:21:13 GMT 51.507164 -110.155411 38,975 43 515 -64
2022-09-24 04:21:10 GMT 51.499855 -110.166321 38,975 43 514 -64
2022-09-24 04:21:04 GMT 51.491898 -110.178299 39,000 43 512 -64
2022-09-24 04:20:58 GMT 51.481339 -110.194206 38,975 43 514 -64
2022-09-24 04:20:52 GMT 51.468567 -110.213432 38,975 43 512 -64
2022-09-24 04:20:49 GMT 51.463547 -110.220947 38,975 43 512 -64
2022-09-24 04:20:42 GMT 51.454056 -110.235184 39,000 43 512 -64
2022-09-24 04:20:36 GMT 51.440598 -110.255447 39,000 43 512 -64
2022-09-24 04:20:33 GMT 51.438034 -110.259323 39,000 43 512 -64
2022-09-24 04:20:28 GMT 51.426453 -110.276604 39,000 43 512 -64
2022-09-24 04:20:23 GMT 51.420437 -110.285645 39,000 43 512 -64
2022-09-24 04:20:17 GMT 51.409035 -110.302734 38,975 43 511 0
2022-09-24 04:20:13 GMT 51.402470 -110.312500 38,975 43 511 0
2022-09-24 04:20:10 GMT 51.395416 -110.323074 38,975 43 511 -64
2022-09-24 04:20:06 GMT 51.391251 -110.329231 38,975 43 511 -64
2022-09-24 04:20:02 GMT 51.384338 -110.339554 38,975 43 511 -64
2022-09-24 04:19:57 GMT 51.373840 -110.355301 38,975 43 511 -64
2022-09-24 04:19:54 GMT 51.368301 -110.363541 38,975 43 511 -64
2022-09-24 04:19:50 GMT 51.361408 -110.373840 39,000 42 510 -64
2022-09-24 04:19:45 GMT 51.355217 -110.383072 39,000 43 511 -64
2022-09-24 04:19:41 GMT 51.348495 -110.393074 39,000 42 510 -64
2022-09-24 04:19:36 GMT 51.336777 -110.410522 39,000 43 511 -64
2022-09-24 04:19:28 GMT 51.324493 -110.428772 39,000 43 511 -64
2022-09-24 04:19:25 GMT 51.319153 -110.436798 39,000 43 511 -64
2022-09-24 04:19:21 GMT 51.313133 -110.445786 38,975 43 511 -64
2022-09-24 04:19:15 GMT 51.302055 -110.462265 39,000 43 512 -64
2022-09-24 04:19:10 GMT 51.294983 -110.472801 39,000 43 512 -64
2022-09-24 04:19:04 GMT 51.283714 -110.489502 39,000 42 512 -64
2022-09-24 04:19:00 GMT 51.277477 -110.498734 39,000 42 513 0
2022-09-24 04:18:54 GMT 51.265503 -110.516525 38,975 42 513 -64
2022-09-24 04:18:50 GMT 51.258957 -110.526245 38,975 42 513 0
2022-09-24 04:18:43 GMT 51.247147 -110.543762 39,000 42 513 -64
2022-09-24 04:18:39 GMT 51.241074 -110.552750 39,000 42 513 -64
2022-09-24 04:18:33 GMT 51.228924 -110.570755 39,000 42 513 -64
2022-09-24 04:18:29 GMT 51.222683 -110.580063 38,975 42 513 -64
2022-09-24 04:18:21 GMT 51.210022 -110.598770 39,000 42 513 -64
2022-09-24 04:18:18 GMT 51.204994 -110.606232 39,000 42 514 -64
2022-09-24 04:18:12 GMT 51.191940 -110.625572 39,000 42 514 -64
2022-09-24 04:18:08 GMT 51.186886 -110.633011 39,000 42 514 0
2022-09-24 04:18:00 GMT 51.173664 -110.652542 38,975 42 515 64
2022-09-24 04:17:57 GMT 51.168449 -110.660248 38,975 42 515 0
2022-09-24 04:17:51 GMT 51.155182 -110.679779 38,975 42 515 0
2022-09-24 04:17:47 GMT 51.150833 -110.686218 38,975 42 515 0
2022-09-24 04:17:40 GMT 51.137192 -110.706329 38,975 42 515 -64
2022-09-24 04:17:37 GMT 51.131973 -110.714050 38,975 42 516 -64
2022-09-24 04:17:30 GMT 51.118698 -110.733574 39,000 42 516 -64
2022-09-24 04:17:26 GMT 51.113937 -110.740509 39,000 42 516 -64
2022-09-24 04:17:19 GMT 51.100479 -110.760300 39,000 42 515 -64
2022-09-24 04:17:16 GMT 51.096107 -110.766678 39,000 42 515 -64
2022-09-24 04:17:09 GMT 51.082142 -110.787201 39,000 42 515 -64
2022-09-24 04:17:05 GMT 51.077579 -110.793839 39,000 42 515 -64
2022-09-24 04:16:59 GMT 51.065708 -110.811234 39,000 42 514 0
2022-09-24 04:16:55 GMT 51.059101 -110.820923 38,975 42 514 0
2022-09-24 04:16:48 GMT 51.044586 -110.842102 38,975 42 514 -64
2022-09-24 04:16:45 GMT 51.041107 -110.847229 38,975 42 513 -64
2022-09-24 04:16:38 GMT 51.028748 -110.865326 38,975 42 514 -64
2022-09-24 04:16:34 GMT 51.023346 -110.873283 38,975 42 513 -64
2022-09-24 04:16:27 GMT 51.008545 -110.894928 39,000 42 514 -64
2022-09-24 04:16:24 GMT 51.005585 -110.899261 39,000 42 513 -64
2022-09-24 04:16:18 GMT 50.992676 -110.918114 39,000 42 513 -64
2022-09-24 04:16:14 GMT 50.987457 -110.925766 39,000 42 513 -64
2022-09-24 04:16:06 GMT 50.971710 -110.948624 39,000 42 513 -64
2022-09-24 04:16:02 GMT 50.964706 -110.958794 38,975 42 513 -64
2022-09-24 04:15:55 GMT 50.954033 -110.974274 38,975 42 513 0
2022-09-24 04:15:52 GMT 50.950214 -110.979843 38,975 42 513 0
2022-09-24 04:15:46 GMT 50.938477 -110.996803 38,975 42 513 -64
2022-09-24 04:15:43 GMT 50.930786 -111.007935 38,975 42 513 -64
2022-09-24 04:15:35 GMT 50.913712 -111.032806 38,975 42 513 -64
2022-09-24 04:15:32 GMT 50.913712 -111.032806 38,975 42 513 -64
2022-09-24 04:15:22 GMT 50.894352 -111.060944 39,000 42 512 -64
2022-09-24 04:15:14 GMT 50.882309 -111.078384 39,000 42 513 -64
2022-09-24 04:15:10 GMT 50.876038 -111.087440 39,000 42 513 -64
2022-09-24 04:15:01 GMT 50.858917 -111.112236 38,975 42 512 -64
2022-09-24 04:14:50 GMT 50.839931 -111.139679 38,975 42 512 -64
2022-09-24 04:14:42 GMT 50.825642 -111.160355 39,000 42 511 -64
2022-09-24 04:14:39 GMT 50.820602 -111.167686 39,000 42 511 -64
2022-09-24 04:14:33 GMT 50.810650 -111.182022 39,000 42 511 -64
2022-09-24 04:14:30 GMT 50.806320 -111.188324 38,975 42 511 -64
2022-09-24 04:14:27 GMT 50.800224 -111.197052 38,975 42 511 -64
2022-09-24 04:14:22 GMT 50.790119 -111.211624 39,000 42 511 -64
2022-09-24 04:14:19 GMT 50.780067 -111.226196 39,000 42 509 -64
2022-09-24 04:14:11 GMT 50.766312 -111.245926 39,000 42 509 -64
2022-09-24 04:14:07 GMT 50.766312 -111.245926 38,975 42 509 -64
2022-09-24 04:14:00 GMT 50.747387 -111.273117 39,000 42 509 0
2022-09-24 04:13:57 GMT 50.747387 -111.273117 39,000 42 509 0
2022-09-24 04:13:52 GMT 50.737839 -111.286827 39,000 42 509 -64
2022-09-24 04:13:48 GMT 50.733837 -111.292572 39,000 42 509 -64
2022-09-24 04:13:45 GMT 50.726856 -111.302567 38,975 42 508 -64
2022-09-24 04:13:39 GMT 50.716644 -111.317261 39,000 42 508 -64
2022-09-24 04:13:36 GMT 50.711262 -111.324997 39,000 42 508 -64
2022-09-24 04:13:25 GMT 50.680023 -111.369781 39,000 42 508 -64
2022-09-24 04:13:17 GMT 50.680023 -111.369781 39,000 42 508 -64
2022-09-24 04:13:10 GMT 50.664707 -111.391640 39,000 42 509 -64
2022-09-24 04:13:07 GMT 50.661915 -111.395576 38,975 42 509 -64
2022-09-24 04:13:04 GMT 50.655853 -111.404327 38,975 42 508 -64
2022-09-24 04:12:57 GMT 50.643482 -111.421852 38,975 42 508 0
2022-09-24 04:12:53 GMT 50.636353 -111.432014 38,975 42 509 0
2022-09-24 04:12:43 GMT 50.619133 -111.456596 38,975 42 508 -64
2022-09-24 04:12:39 GMT 50.610992 -111.468224 39,000 42 508 -64
2022-09-24 04:12:33 GMT 50.602142 -111.480873 39,000 42 508 -64
2022-09-24 04:12:27 GMT 50.592590 -111.494461 39,000 42 508 -64
2022-09-24 04:12:18 GMT 50.574306 -111.520432 38,975 42 508 0
2022-09-24 04:12:11 GMT 50.564949 -111.533798 38,975 42 508 -64
2022-09-24 04:12:07 GMT 50.556427 -111.545853 38,975 42 507 -64
2022-09-24 04:12:01 GMT 50.545990 -111.560669 38,975 42 507 -64
2022-09-24 04:11:57 GMT 50.539032 -111.570496 38,975 42 507 -64
2022-09-24 04:11:51 GMT 50.528076 -111.586060 39,000 42 506 -64
2022-09-24 04:11:46 GMT 50.520817 -111.596375 39,000 42 506 -64
2022-09-24 04:11:39 GMT 50.507080 -111.615814 39,000 42 506 -64
2022-09-24 04:11:35 GMT 50.501907 -111.623192 39,000 42 506 -64
2022-09-24 04:11:29 GMT 50.489906 -111.640099 38,975 42 505 -64
2022-09-24 04:11:25 GMT 50.483826 -111.648705 39,000 42 506 -64
2022-09-24 04:11:19 GMT 50.472588 -111.664665 38,975 42 505 -64
2022-09-24 04:11:15 GMT 50.466156 -111.673782 39,000 42 505 -64
2022-09-24 04:11:05 GMT 50.447636 -111.700005 39,000 42 506 -64
2022-09-24 04:10:59 GMT 50.438606 -111.712692 39,000 41 505 -64
2022-09-24 04:10:54 GMT 50.429573 -111.725388 38,975 41 505 0
2022-09-24 04:10:47 GMT 50.418449 -111.741051 38,975 41 505 -64
2022-09-24 04:10:44 GMT 50.411186 -111.751297 38,975 41 505 -64
2022-09-24 04:10:37 GMT 50.401657 -111.764709 39,000 42 504 -64
2022-09-24 04:10:33 GMT 50.393692 -111.775986 39,000 42 504 -64
2022-09-24 04:10:22 GMT 50.375015 -111.802299 39,000 42 503 -64
2022-09-24 04:10:13 GMT 50.357391 -111.827087 39,000 42 503 0
2022-09-24 04:10:08 GMT 50.349270 -111.838448 39,000 42 503 -64
2022-09-24 04:10:01 GMT 50.340134 -111.851303 39,000 41 503 -64
2022-09-24 04:09:52 GMT 50.322510 -111.876022 39,000 41 502 0
2022-09-24 04:09:47 GMT 50.314030 -111.887810 38,975 41 500 0
2022-09-24 04:09:41 GMT 50.304565 -111.901100 38,975 41 500 0
2022-09-24 04:09:37 GMT 50.295086 -111.914307 39,000 41 500 -64
2022-09-24 04:09:31 GMT 50.285660 -111.927551 38,975 41 500 -64
2022-09-24 04:09:22 GMT 50.271881 -111.946777 38,975 41 500 -64
2022-09-24 04:09:19 GMT 50.267200 -111.953285 39,000 41 500 0
2022-09-24 04:09:16 GMT 50.261009 -111.961891 38,975 41 500 0
2022-09-24 04:09:09 GMT 50.250023 -111.977257 38,975 41 500 -64
2022-09-24 04:09:05 GMT 50.242435 -111.987877 39,000 41 500 -64
2022-09-24 04:09:00 GMT 50.232098 -112.002274 38,975 41 500 -64
2022-09-24 04:08:55 GMT 50.226105 -112.010674 38,975 41 500 -64
2022-09-24 04:08:49 GMT 50.214020 -112.027443 39,000 41 500 -64
2022-09-24 04:08:46 GMT 50.208527 -112.035179 39,000 41 500 -64
2022-09-24 04:08:39 GMT 50.195435 -112.053391 39,000 41 501 0
2022-09-24 04:08:34 GMT 50.187836 -112.063942 38,975 41 501 0
2022-09-24 04:08:28 GMT 50.178177 -112.077385 38,975 41 501 -64
2022-09-24 04:08:22 GMT 50.168324 -112.091057 39,000 41 500 -64
2022-09-24 04:08:18 GMT 50.160408 -112.102043 38,975 41 500 0
2022-09-24 04:08:13 GMT 50.151798 -112.114067 38,975 41 500 -64
2022-09-24 04:08:07 GMT 50.142487 -112.126984 39,000 41 500 -64
2022-09-24 04:08:04 GMT 50.136295 -112.135521 38,975 41 499 -64
2022-09-24 04:07:56 GMT 50.123539 -112.153191 39,000 41 499 0
2022-09-24 04:07:53 GMT 50.117523 -112.161522 38,975 41 499 0
2022-09-24 04:07:47 GMT 50.105942 -112.177536 38,975 41 500 -64
2022-09-24 04:07:41 GMT 50.097004 -112.189934 38,975 41 500 -64
2022-09-24 04:07:36 GMT 50.088181 -112.202065 38,975 41 500 -64
2022-09-24 04:07:30 GMT 50.078709 -112.215172 38,975 41 500 -64
2022-09-24 04:07:26 GMT 50.070423 -112.226601 39,000 41 499 -64
2022-09-24 04:07:21 GMT 50.061630 -112.238716 39,000 41 499 -64
2022-09-24 04:07:13 GMT 50.050079 -112.254662 39,000 41 498 -64
2022-09-24 04:07:10 GMT 50.043888 -112.263199 39,000 41 498 -64
2022-09-24 04:07:05 GMT 50.034439 -112.276222 39,000 41 498 -64
2022-09-24 04:07:01 GMT 50.029083 -112.283615 38,975 41 498 -64
2022-09-24 04:06:54 GMT 50.015678 -112.302025 38,975 41 497 -64
2022-09-24 04:06:50 GMT 50.009113 -112.311005 39,000 41 497 -64
2022-09-24 04:06:42 GMT 49.995895 -112.329208 39,000 41 495 -64
2022-09-24 04:06:39 GMT 49.988865 -112.338844 39,000 41 495 -64
2022-09-24 04:06:34 GMT 49.980148 -112.350891 39,000 41 496 0
2022-09-24 04:06:31 GMT 49.976528 -112.355766 38,975 41 496 -64
2022-09-24 04:06:21 GMT 49.959351 -112.379295 38,975 41 495 -64
2022-09-24 04:06:11 GMT 49.942017 -112.403000 39,000 41 495 -64
2022-09-24 04:06:01 GMT 49.925411 -112.425766 39,000 41 494 -64
2022-09-24 04:05:59 GMT 49.920292 -112.432823 39,000 41 494 -64
2022-09-24 04:05:51 GMT 49.908001 -112.449669 39,000 41 493 -64
2022-09-24 04:05:49 GMT 49.904556 -112.454346 38,975 41 493 0
2022-09-24 04:05:41 GMT 49.891243 -112.472534 38,975 41 494 -64
2022-09-24 04:05:38 GMT 49.886261 -112.479324 39,000 41 494 -64
2022-09-24 04:05:30 GMT 49.872940 -112.497612 39,000 41 494 -64
2022-09-24 04:05:27 GMT 49.867268 -112.505272 39,000 41 494 -64
2022-09-24 04:05:21 GMT 49.855633 -112.521233 39,000 41 494 -64
2022-09-24 04:05:18 GMT 49.851013 -112.527534 39,000 41 494 -64
2022-09-24 04:05:10 GMT 49.838127 -112.544983 39,000 41 495 -64
2022-09-24 04:05:05 GMT 49.828720 -112.557823 39,000 41 495 -64
2022-09-24 04:04:58 GMT 49.817924 -112.572525 38,975 41 494 -64
2022-09-24 04:04:54 GMT 49.811035 -112.581802 39,000 41 495 -64
2022-09-24 04:04:49 GMT 49.801769 -112.594421 38,975 41 494 0
2022-09-24 04:04:46 GMT 49.797501 -112.600182 38,975 41 494 0
2022-09-24 04:04:40 GMT 49.787567 -112.613693 38,975 41 495 -64
2022-09-24 04:04:38 GMT 49.783447 -112.619331 39,000 41 495 -128
2022-09-24 04:04:35 GMT 49.777424 -112.627533 39,000 41 495 -128
2022-09-24 04:04:29 GMT 49.768486 -112.639633 38,975 41 495 -64
2022-09-24 04:04:26 GMT 49.762482 -112.647812 39,000 41 496 -64
2022-09-24 04:04:20 GMT 49.753510 -112.660027 39,000 41 495 -64
2022-09-24 04:04:17 GMT 49.747696 -112.667976 39,000 41 495 -64
2022-09-24 04:04:14 GMT 49.741837 -112.675858 39,000 41 495 -64
2022-09-24 04:04:08 GMT 49.729988 -112.691963 39,000 41 495 -64
2022-09-24 04:04:05 GMT 49.726543 -112.696640 39,000 41 495 -64
2022-09-24 04:03:55 GMT 49.708878 -112.720596 39,000 41 494 0
2022-09-24 04:03:46 GMT 49.694935 -112.739326 38,975 41 494 -64
2022-09-24 04:03:41 GMT 49.683426 -112.754852 38,975 41 494 -64
2022-09-24 04:03:36 GMT 49.678082 -112.762039 38,975 41 493 0
2022-09-24 04:03:34 GMT 49.673080 -112.768730 38,975 41 493 0
2022-09-24 04:03:31 GMT 49.666214 -112.777985 38,975 41 493 -64
2022-09-24 04:03:26 GMT 49.659348 -112.787231 39,000 41 493 -64
2022-09-24 04:03:21 GMT 49.648891 -112.801308 39,000 41 493 -64
2022-09-24 04:03:13 GMT 49.638279 -112.815636 39,000 41 492 -64
2022-09-24 04:03:03 GMT 49.621101 -112.838646 38,975 41 492 -64
2022-09-24 04:02:55 GMT 49.600899 -112.865814 39,000 41 492 -64
2022-09-24 04:02:52 GMT 49.600899 -112.865814 39,000 41 492 -64
2022-09-24 04:02:43 GMT 49.587166 -112.884300 39,000 41 493 -64
2022-09-24 04:02:33 GMT 49.570034 -112.907310 39,000 41 493 0
2022-09-24 04:02:31 GMT 49.565002 -112.914009 39,000 40 494 -64
2022-09-24 04:02:21 GMT 49.546616 -112.938637 38,975 41 494 0
2022-09-24 04:02:12 GMT 49.529205 -112.961861 38,975 40 494 -64
2022-09-24 04:02:10 GMT 49.529205 -112.961861 38,975 40 494 -64
2022-09-24 04:02:03 GMT 49.515793 -112.979782 39,000 40 494 -64
2022-09-24 04:01:59 GMT 49.510818 -112.986443 39,000 40 494 -64
2022-09-24 04:01:51 GMT 49.495148 -113.007324 39,000 40 493 -64
2022-09-24 04:01:42 GMT 49.479164 -113.028603 38,975 40 492 -64
2022-09-24 04:01:32 GMT 49.465755 -113.046417 38,975 40 492 -64
2022-09-24 04:01:30 GMT 49.461823 -113.051704 38,975 40 491 -64
2022-09-24 04:01:23 GMT 49.447926 -113.070099 39,000 40 490 -64
2022-09-24 04:01:21 GMT 49.443459 -113.076042 39,000 40 490 -64
2022-09-24 04:01:18 GMT 49.440903 -113.079460 38,975 40 489 -64
2022-09-24 04:01:12 GMT 49.431122 -113.092369 38,975 40 490 -64
2022-09-24 04:01:10 GMT 49.426327 -113.098686 39,000 40 489 -64
2022-09-24 04:01:07 GMT 49.420834 -113.105911 38,975 41 489 -64
2022-09-24 04:00:59 GMT 49.406113 -113.125938 39,000 42 490 -64
2022-09-24 04:00:53 GMT 49.398148 -113.137276 39,000 43 491 -64
2022-09-24 04:00:48 GMT 49.389084 -113.150436 39,000 44 492 -64
2022-09-24 04:00:42 GMT 49.380985 -113.162651 39,000 44 492 -64
2022-09-24 04:00:37 GMT 49.371826 -113.176788 39,000 45 493 -128
2022-09-24 04:00:29 GMT 49.357803 -113.199295 39,000 47 496 0
2022-09-24 04:00:22 GMT 49.348663 -113.214462 39,000 47 497 64
2022-09-24 04:00:16 GMT 49.339508 -113.230171 38,975 49 499 64
2022-09-24 04:00:11 GMT 49.332104 -113.243240 38,975 49 499 -64
2022-09-24 04:00:07 GMT 49.324612 -113.256760 38,975 50 502 -128
2022-09-24 04:00:01 GMT 49.317581 -113.269981 39,000 50 503 -64
2022-09-24 03:59:55 GMT 49.308609 -113.286789 38,975 50 503 -64
2022-09-24 03:59:46 GMT 49.288651 -113.324188 39,000 50 501 0
2022-09-24 03:59:37 GMT 49.279686 -113.340889 39,000 50 501 128
2022-09-24 03:59:25 GMT 49.264370 -113.369225 39,000 50 501 -64
2022-09-24 03:59:16 GMT 49.249336 -113.397194 39,000 50 504 -64
2022-09-24 03:59:04 GMT 49.232250 -113.429359 39,000 51 507 -192
2022-09-24 03:58:55 GMT 49.219116 -113.454117 39,000 50 508 64
2022-09-24 03:58:44 GMT 49.202595 -113.485085 38,975 50 512 64
2022-09-24 03:58:33 GMT 49.187164 -113.513985 39,000 50 515 64
2022-09-24 03:58:21 GMT 49.167160 -113.551163 38,975 50 517 64
2022-09-24 03:58:13 GMT 49.156219 -113.571449 38,975 50 517 64
2022-09-24 03:58:03 GMT 49.139557 -113.602364 38,975 50 515 64
2022-09-24 03:57:51 GMT 49.123737 -113.631805 38,975 50 513 -64
2022-09-24 03:57:39 GMT 49.105865 -113.664902 39,000 50 510 -128
2022-09-24 03:57:30 GMT 49.092270 -113.690063 39,000 50 509 -64
2022-09-24 03:57:23 GMT 49.081795 -113.709366 39,000 50 508 -128
2022-09-24 03:57:20 GMT 49.077324 -113.717674 39,000 50 508 -64
2022-09-24 03:57:09 GMT 49.059494 -113.750710 38,975 50 506 0
2022-09-24 03:57:00 GMT 49.046646 -113.774200 38,975 50 504 0
2022-09-24 03:56:51 GMT 49.033447 -113.798500 38,975 50 503 -64
2022-09-24 03:56:40 GMT 49.017746 -113.827377 39,000 50 502 -128
2022-09-24 03:56:30 GMT 49.003281 -113.853996 39,000 50 498 -64
2022-09-24 03:56:28 GMT 49.000187 -113.859703 39,000 50 500 -64
2022-09-24 03:56:17 GMT 48.984638 -113.888397 39,000 50 498 -64
2022-09-24 03:56:14 GMT 48.979477 -113.897797 39,000 50 497 -64
2022-09-24 03:56:09 GMT 48.972023 -113.911530 39,000 50 497 -64
2022-09-24 03:56:05 GMT 48.964390 -113.925476 38,975 50 497 0
2022-09-24 03:55:58 GMT 48.954147 -113.944199 38,975 50 497 0
2022-09-24 03:55:48 GMT 48.940796 -113.968643 39,000 50 497 -64
2022-09-24 03:55:44 GMT 48.934223 -113.980698 39,000 50 497 -64
2022-09-24 03:55:37 GMT 48.923611 -114.000069 38,975 50 498 -64
2022-09-24 03:55:32 GMT 48.918457 -114.009491 38,975 50 498 -64
2022-09-24 03:55:25 GMT 48.908012 -114.028542 38,975 50 498 -64
2022-09-24 03:55:15 GMT 48.892979 -114.055862 39,000 50 497 -64
2022-09-24 03:55:00 GMT 48.870529 -114.096680 39,000 50 495 -64
2022-09-24 03:54:56 GMT 48.865093 -114.106606 39,000 50 495 -64
2022-09-24 03:54:51 GMT 48.857941 -114.119637 38,975 50 494 -64
2022-09-24 03:54:44 GMT 48.846268 -114.140907 39,000 50 494 -64
2022-09-24 03:54:26 GMT 48.820961 -114.186905 39,000 50 494 -64
2022-09-24 03:54:25 GMT 48.819672 -114.189285 39,000 50 494 -64
2022-09-24 03:54:22 GMT 48.813931 -114.199631 39,000 50 494 -64
2022-09-24 03:54:15 GMT 48.804855 -114.216110 39,000 50 495 -64
2022-09-24 03:54:12 GMT 48.800903 -114.223305 38,975 50 495 -64
2022-09-24 03:54:02 GMT 48.786255 -114.249855 39,000 50 494 0
2022-09-24 03:53:55 GMT 48.776131 -114.268150 38,975 50 494 0
2022-09-24 03:53:51 GMT 48.768951 -114.281120 39,000 50 494 0
2022-09-24 03:53:47 GMT 48.762959 -114.292000 38,975 50 494 0
2022-09-24 03:53:43 GMT 48.756485 -114.303635 38,975 50 494 0
2022-09-24 03:53:38 GMT 48.749908 -114.315491 38,975 50 494 0
2022-09-24 03:53:35 GMT 48.746246 -114.322144 38,975 49 495 -64
2022-09-24 03:53:32 GMT 48.742859 -114.328239 38,975 50 494 -64
2022-09-24 03:53:26 GMT 48.731094 -114.349434 38,975 49 496 -64
2022-09-24 03:53:22 GMT 48.727997 -114.354958 38,975 49 496 -64
2022-09-24 03:53:14 GMT 48.716080 -114.376411 38,975 50 495 -64
2022-09-24 03:53:11 GMT 48.711239 -114.385170 38,975 50 494 -64
2022-09-24 03:53:07 GMT 48.702717 -114.400490 38,975 50 494 -64
2022-09-24 03:53:04 GMT 48.699646 -114.406059 38,975 50 494 -64
2022-09-24 03:53:00 GMT 48.693741 -114.416618 39,000 50 494 -64
2022-09-24 03:52:53 GMT 48.684238 -114.433807 38,975 50 494 -64
2022-09-24 03:52:50 GMT 48.680698 -114.440170 38,975 50 494 -64
2022-09-24 03:52:44 GMT 48.669708 -114.460007 39,000 50 494 -64
2022-09-24 03:52:41 GMT 48.664993 -114.468452 39,000 50 494 -64
2022-09-24 03:52:36 GMT 48.657669 -114.481697 39,000 50 494 -64
2022-09-24 03:52:32 GMT 48.654144 -114.488029 39,000 49 495 -64
2022-09-24 03:52:29 GMT 48.648834 -114.497543 38,975 49 495 -64
2022-09-24 03:52:23 GMT 48.638943 -114.515266 38,975 49 496 -64
2022-09-24 03:52:20 GMT 48.635284 -114.521835 38,975 49 496 -64
2022-09-24 03:52:17 GMT 48.630524 -114.530357 38,975 49 496 -64
2022-09-24 03:52:11 GMT 48.623154 -114.543526 39,000 49 496 -64
2022-09-24 03:52:07 GMT 48.616653 -114.555222 39,000 49 496 -64
2022-09-24 03:52:02 GMT 48.607819 -114.571068 38,975 49 496 -64
2022-09-24 03:51:58 GMT 48.603699 -114.578461 39,000 49 496 -64
2022-09-24 03:51:52 GMT 48.593033 -114.597473 38,975 49 496 -64
2022-09-24 03:51:48 GMT 48.588154 -114.606125 39,000 49 496 -64
2022-09-24 03:51:40 GMT 48.576607 -114.626648 39,000 49 495 -64
2022-09-24 03:51:36 GMT 48.571301 -114.636116 39,000 49 495 -64
2022-09-24 03:51:27 GMT 48.555542 -114.664238 38,975 49 493 -64
2022-09-24 03:51:19 GMT 48.545650 -114.681801 39,000 49 493 0
2022-09-24 03:51:16 GMT 48.542114 -114.688087 38,975 49 493 0
2022-09-24 03:51:07 GMT 48.526703 -114.715508 38,975 49 491 -64
2022-09-24 03:50:58 GMT 48.514507 -114.737160 38,975 49 491 -64
2022-09-24 03:50:55 GMT 48.495468 -114.770988 39,000 49 491 -64
2022-09-24 03:50:46 GMT 48.495468 -114.770988 39,000 49 490 -64
2022-09-24 03:50:35 GMT 48.480804 -114.797012 38,975 49 491 -64
2022-09-24 03:50:25 GMT 48.465408 -114.824387 39,000 49 491 -64
2022-09-24 03:50:16 GMT 48.453415 -114.845795 39,000 49 491 -64
2022-09-24 03:50:13 GMT 48.449295 -114.853043 39,000 49 491 0
2022-09-24 03:50:04 GMT 48.434601 -114.879036 38,975 49 492 64
2022-09-24 03:49:59 GMT 48.428375 -114.890022 38,975 49 492 0
2022-09-24 03:49:55 GMT 48.421600 -114.901993 38,975 49 493 0
2022-09-24 03:49:52 GMT 48.418518 -114.907448 38,975 49 493 64
2022-09-24 03:49:43 GMT 48.403156 -114.934555 38,975 49 493 0
2022-09-24 03:49:34 GMT 48.387909 -114.961357 38,975 49 493 -64
2022-09-24 03:49:31 GMT 48.387909 -114.961357 38,975 49 492 -64
2022-09-24 03:49:22 GMT 48.372429 -114.988693 39,000 49 492 -64
2022-09-24 03:49:11 GMT 48.357513 -115.014954 39,000 49 492 -64
2022-09-24 03:49:03 GMT 48.344032 -115.038567 38,975 49 492 0
2022-09-24 03:49:00 GMT 48.341984 -115.042175 39,000 49 492 -64
2022-09-24 03:48:50 GMT 48.326019 -115.070221 39,000 49 492 -64
2022-09-24 03:48:42 GMT 48.313263 -115.092628 39,000 49 493 -64
2022-09-24 03:48:39 GMT 48.310455 -115.097565 39,000 49 493 -64
2022-09-24 03:48:30 GMT 48.294754 -115.125099 38,975 49 494 -64
2022-09-24 03:48:19 GMT 48.278629 -115.153412 38,975 49 493 -64
2022-09-24 03:48:11 GMT 48.268661 -115.170807 38,975 49 494 0
2022-09-24 03:48:08 GMT 48.262848 -115.180878 38,975 49 494 -64
2022-09-24 03:48:00 GMT 48.250977 -115.201622 38,975 49 494 -64
2022-09-24 03:47:57 GMT 48.247391 -115.207916 38,975 49 494 -64
2022-09-24 03:47:50 GMT 48.237614 -115.224968 38,975 49 494 -64
2022-09-24 03:47:47 GMT 48.232086 -115.234612 38,975 49 494 -64
2022-09-24 03:47:38 GMT 48.219181 -115.257133 38,975 49 493 -64
2022-09-24 03:47:35 GMT 48.215595 -115.263275 39,000 49 493 -128
2022-09-24 03:47:28 GMT 48.203400 -115.284531 39,000 49 492 -64
2022-09-24 03:47:25 GMT 48.200142 -115.290237 39,000 49 492 -64
2022-09-24 03:47:19 GMT 48.191986 -115.304398 39,000 49 492 -64
2022-09-24 03:47:14 GMT 48.184731 -115.317055 39,000 49 491 -64
2022-09-24 03:47:06 GMT 48.170860 -115.341270 39,000 49 491 -64
2022-09-24 03:47:03 GMT 48.168484 -115.345390 39,000 49 491 -64
2022-09-24 03:46:59 GMT 48.159164 -115.361595 39,000 49 491 -64
2022-09-24 03:46:56 GMT 48.157104 -115.365234 39,000 49 492 -64
2022-09-24 03:46:53 GMT 48.152191 -115.373695 39,000 49 492 -64
2022-09-24 03:46:48 GMT 48.145248 -115.385834 39,000 49 492 0
2022-09-24 03:46:45 GMT 48.139618 -115.395584 39,000 49 493 0
2022-09-24 03:46:42 GMT 48.137512 -115.399223 39,000 49 493 0
2022-09-24 03:46:37 GMT 48.129616 -115.412857 39,000 49 494 64
2022-09-24 03:46:33 GMT 48.121994 -115.426071 38,975 49 495 64
2022-09-24 03:46:25 GMT 48.110046 -115.446808 38,975 49 496 64
2022-09-24 03:46:22 GMT 48.106430 -115.452988 38,975 49 497 64
2022-09-24 03:46:15 GMT 48.096935 -115.469337 38,975 49 499 64
2022-09-24 03:46:12 GMT 48.089859 -115.481552 38,975 49 499 64
2022-09-24 03:46:04 GMT 48.078049 -115.501945 38,975 49 501 -64
2022-09-24 03:46:00 GMT 48.074112 -115.508743 38,975 49 500 -64
2022-09-24 03:45:56 GMT 48.067608 -115.519974 38,975 49 501 -128
2022-09-24 03:45:50 GMT 48.058365 -115.535866 38,975 49 501 -128
2022-09-24 03:45:43 GMT 48.046146 -115.557014 38,975 49 499 -128
2022-09-24 03:45:40 GMT 48.042191 -115.563774 38,975 49 499 -128
2022-09-24 03:45:35 GMT 48.036465 -115.573639 38,975 49 499 -128
2022-09-24 03:45:32 GMT 48.029709 -115.585304 39,000 49 498 -128
2022-09-24 03:45:29 GMT 48.025337 -115.592865 39,000 49 497 -128
2022-09-24 03:45:25 GMT 48.020218 -115.601669 39,000 49 494 -128
2022-09-24 03:45:21 GMT 48.014210 -115.611946 39,000 49 496 -128
2022-09-24 03:45:17 GMT 48.009247 -115.620461 39,000 49 494 -128
2022-09-24 03:45:14 GMT 48.004017 -115.629486 39,000 49 494 -64
2022-09-24 03:45:11 GMT 47.998215 -115.639481 39,000 49 494 -128
2022-09-24 03:45:08 GMT 47.993542 -115.647446 39,000 49 492 -64
2022-09-24 03:45:04 GMT 47.989517 -115.654312 39,000 49 492 -64
2022-09-24 03:45:00 GMT 47.982834 -115.665894 39,000 49 492 -64
2022-09-24 03:44:56 GMT 47.977760 -115.674553 39,000 49 492 0
2022-09-24 03:44:53 GMT 47.973244 -115.682236 39,000 49 492 -64
2022-09-24 03:44:50 GMT 47.967007 -115.693008 38,975 49 493 -64
2022-09-24 03:44:46 GMT 47.962051 -115.701416 38,975 49 493 -64
2022-09-24 03:44:42 GMT 47.957462 -115.709343 39,000 48 491 -64
2022-09-24 03:44:39 GMT 47.951458 -115.719627 38,975 48 493 -64
2022-09-24 03:44:35 GMT 47.946533 -115.728058 39,000 48 493 -64
2022-09-24 03:44:29 GMT 47.935909 -115.746178 39,000 48 493 -64
2022-09-24 03:44:25 GMT 47.931164 -115.754349 39,000 48 491 -64
2022-09-24 03:44:18 GMT 47.920689 -115.772240 39,000 48 491 -64
2022-09-24 03:44:15 GMT 47.914856 -115.782166 39,000 48 491 -64
2022-09-24 03:44:08 GMT 47.903549 -115.801529 39,000 48 491 -64
2022-09-24 03:44:03 GMT 47.899063 -115.809151 39,000 48 491 0
2022-09-24 03:43:54 GMT 47.883072 -115.836395 39,000 48 493 -64
2022-09-24 03:43:47 GMT 47.872879 -115.853790 39,000 48 494 64
2022-09-24 03:43:42 GMT 47.866920 -115.863998 38,975 48 494 64
2022-09-24 03:43:36 GMT 47.857727 -115.879601 38,975 48 494 0
2022-09-24 03:43:33 GMT 47.851730 -115.889832 38,975 49 495 -64
2022-09-24 03:43:26 GMT 47.841522 -115.907272 39,000 49 495 -64
2022-09-24 03:43:21 GMT 47.835526 -115.917572 39,000 48 496 -64
2022-09-24 03:43:15 GMT 47.825867 -115.933983 39,000 48 496 0
2022-09-24 03:43:10 GMT 47.819229 -115.945244 39,000 48 496 0
2022-09-24 03:43:05 GMT 47.810165 -115.960693 39,000 48 497 64
2022-09-24 03:43:01 GMT 47.803848 -115.971474 38,975 48 498 64
2022-09-24 03:42:53 GMT 47.793694 -115.988724 38,975 48 498 0
2022-09-24 03:42:49 GMT 47.787735 -115.998734 39,000 48 498 -64
2022-09-24 03:42:44 GMT 47.777538 -116.015976 38,975 48 500 -64
2022-09-24 03:42:40 GMT 47.772217 -116.024963 38,975 48 500 -64
2022-09-24 03:42:33 GMT 47.762035 -116.042175 38,975 48 499 -64
2022-09-24 03:42:28 GMT 47.755463 -116.053253 39,000 48 498 0
2022-09-24 03:42:23 GMT 47.745277 -116.070419 38,975 48 498 -64
2022-09-24 03:42:19 GMT 47.739349 -116.080444 38,975 48 498 -64
2022-09-24 03:42:12 GMT 47.730103 -116.096054 39,000 48 497 -64
2022-09-24 03:42:07 GMT 47.723724 -116.106827 39,000 48 497 -64
2022-09-24 03:42:02 GMT 47.713623 -116.123909 39,000 48 496 -64
2022-09-24 03:41:57 GMT 47.707855 -116.133659 39,000 48 496 -64
2022-09-24 03:41:53 GMT 47.700123 -116.146614 39,000 48 496 -64
2022-09-24 03:41:50 GMT 47.698029 -116.150208 39,000 48 496 -64
2022-09-24 03:41:47 GMT 47.691696 -116.160912 39,000 48 496 0
2022-09-24 03:41:44 GMT 47.688065 -116.167038 39,000 48 496 0
2022-09-24 03:41:41 GMT 47.682293 -116.176689 39,000 48 496 0
2022-09-24 03:41:35 GMT 47.672333 -116.193520 38,975 48 496 -64
2022-09-24 03:41:29 GMT 47.665955 -116.204224 38,975 48 496 -64
2022-09-24 03:41:24 GMT 47.657639 -116.218254 38,975 48 495 -64
2022-09-24 03:41:20 GMT 47.650360 -116.230476 38,975 48 495 -64
2022-09-24 03:41:14 GMT 47.641422 -116.245422 39,000 48 495 -64
2022-09-24 03:41:08 GMT 47.634613 -116.256912 39,000 48 495 -64
2022-09-24 03:41:03 GMT 47.625126 -116.272888 38,975 48 495 0
2022-09-24 03:40:59 GMT 47.618469 -116.284012 39,000 48 494 -64
2022-09-24 03:40:52 GMT 47.609112 -116.299789 39,000 48 494 -64
2022-09-24 03:40:47 GMT 47.602341 -116.311157 39,000 48 494 -64
2022-09-24 03:40:41 GMT 47.593552 -116.325851 39,000 48 494 -64
2022-09-24 03:40:37 GMT 47.586769 -116.337257 39,000 48 494 0
2022-09-24 03:40:31 GMT 47.578297 -116.351410 39,000 48 495 0
2022-09-24 03:40:26 GMT 47.569218 -116.366623 38,975 48 495 -64
2022-09-24 03:40:21 GMT 47.561954 -116.378738 39,000 48 495 -64
2022-09-24 03:40:16 GMT 47.553764 -116.392403 39,000 48 494 -64
2022-09-24 03:40:09 GMT 47.544250 -116.408318 39,000 48 494 -64
2022-09-24 03:40:05 GMT 47.538528 -116.417931 39,000 48 493 0
2022-09-24 03:40:00 GMT 47.528996 -116.433739 38,975 48 493 0
2022-09-24 03:39:55 GMT 47.522617 -116.444305 38,975 48 492 0
2022-09-24 03:39:50 GMT 47.515358 -116.456345 38,975 48 492 0
2022-09-24 03:39:44 GMT 47.506325 -116.471420 38,975 48 491 -64
2022-09-24 03:39:40 GMT 47.499111 -116.483459 39,000 48 491 -64
2022-09-24 03:39:34 GMT 47.490509 -116.497719 39,000 48 490 -64
2022-09-24 03:39:28 GMT 47.483143 -116.510010 39,000 48 490 -64
2022-09-24 03:39:22 GMT 47.474392 -116.524513 39,000 48 490 0
2022-09-24 03:39:19 GMT 47.468105 -116.535011 38,975 48 490 -64
2022-09-24 03:39:15 GMT 47.461624 -116.545784 38,975 48 490 -64
2022-09-24 03:39:11 GMT 47.457413 -116.552788 38,975 48 491 -64
2022-09-24 03:39:07 GMT 47.452011 -116.561783 39,000 48 490 -64
2022-09-24 03:39:01 GMT 47.441570 -116.579025 39,000 48 490 -64
2022-09-24 03:38:58 GMT 47.436172 -116.588043 39,000 48 490 -64
2022-09-24 03:38:54 GMT 47.430447 -116.597481 39,000 48 490 -64
2022-09-24 03:38:51 GMT 47.426102 -116.604698 39,000 48 490 -64
2022-09-24 03:38:47 GMT 47.420105 -116.614723 39,000 48 489 -64
2022-09-24 03:38:43 GMT 47.414803 -116.623390 39,000 48 490 -64
2022-09-24 03:38:40 GMT 47.410172 -116.631134 39,000 48 489 -64
2022-09-24 03:38:36 GMT 47.398605 -116.650223 39,000 48 488 -64
2022-09-24 03:38:33 GMT 47.398605 -116.650223 39,000 48 489 -64
2022-09-24 03:38:30 GMT 47.394241 -116.657433 39,000 48 489 0
2022-09-24 03:38:26 GMT 47.388199 -116.667389 39,000 48 489 64
2022-09-24 03:38:19 GMT 47.378906 -116.682701 38,975 48 488 64
2022-09-24 03:38:15 GMT 47.372723 -116.692902 38,975 48 488 0
2022-09-24 03:38:12 GMT 47.367188 -116.702065 38,975 48 488 -64
2022-09-24 03:38:09 GMT 47.361919 -116.710793 38,975 48 488 -64
2022-09-24 03:38:05 GMT 47.356800 -116.719246 38,975 48 490 -64
2022-09-24 03:38:01 GMT 47.351120 -116.728683 39,000 48 490 -64
2022-09-24 03:37:57 GMT 47.345673 -116.737625 39,000 48 489 -64
2022-09-24 03:37:53 GMT 47.340599 -116.746002 38,975 48 488 -64
2022-09-24 03:37:48 GMT 47.331570 -116.760933 39,000 48 488 -64
2022-09-24 03:37:44 GMT 47.325119 -116.771553 39,000 48 488 -64
2022-09-24 03:37:40 GMT 47.319992 -116.779999 39,000 48 488 0
2022-09-24 03:37:37 GMT 47.315369 -116.787697 39,000 48 487 -64
2022-09-24 03:37:32 GMT 47.308914 -116.798332 38,975 48 487 0
2022-09-24 03:37:29 GMT 47.304241 -116.805939 39,000 48 488 -64
2022-09-24 03:37:26 GMT 47.297150 -116.817558 38,975 48 488 0
2022-09-24 03:37:22 GMT 47.293396 -116.823753 38,975 48 488 0
2022-09-24 03:37:19 GMT 47.288727 -116.831429 38,975 48 488 0
2022-09-24 03:37:15 GMT 47.282597 -116.841576 38,975 48 488 0
2022-09-24 03:37:12 GMT 47.276871 -116.850937 38,975 48 488 -64
2022-09-24 03:37:08 GMT 47.272522 -116.858070 38,975 48 488 -64
2022-09-24 03:37:02 GMT 47.262589 -116.874344 39,000 48 487 -64
2022-09-24 03:36:59 GMT 47.257317 -116.882980 39,000 48 487 -64
2022-09-24 03:36:51 GMT 47.245586 -116.902138 39,000 47 487 0
2022-09-24 03:36:47 GMT 47.241070 -116.909531 38,975 48 487 -64
2022-09-24 03:36:41 GMT 47.231323 -116.925499 39,000 48 486 -64
2022-09-24 03:36:38 GMT 47.225803 -116.934601 38,975 48 486 0
2022-09-24 03:36:30 GMT 47.213928 -116.953995 39,000 48 486 -64
2022-09-24 03:36:26 GMT 47.210037 -116.960381 38,975 48 486 0
2022-09-24 03:36:21 GMT 47.200150 -116.976517 38,975 48 485 -64
2022-09-24 03:36:17 GMT 47.194008 -116.986580 39,000 48 485 -64
2022-09-24 03:36:09 GMT 47.182480 -117.005424 39,000 48 485 -64
2022-09-24 03:36:06 GMT 47.178738 -117.011581 39,000 48 485 0
2022-09-24 03:35:59 GMT 47.167465 -117.029869 38,975 47 485 64
2022-09-24 03:35:56 GMT 47.162979 -117.037216 38,975 47 485 0
2022-09-24 03:35:47 GMT 47.149475 -117.059189 39,000 48 485 0
2022-09-24 03:35:44 GMT 47.146454 -117.064064 38,975 48 485 0
2022-09-24 03:35:38 GMT 47.137028 -117.079468 38,975 48 485 -64
2022-09-24 03:35:35 GMT 47.131165 -117.088989 38,975 48 485 -64
2022-09-24 03:35:29 GMT 47.118687 -117.109261 38,975 48 485 -64
2022-09-24 03:35:26 GMT 47.118687 -117.109261 39,000 48 485 -64
2022-09-24 03:35:23 GMT 47.115707 -117.114120 39,000 48 485 -64
2022-09-24 03:35:18 GMT 47.106216 -117.129501 38,975 48 485 -64
2022-09-24 03:35:14 GMT 47.099350 -117.140694 39,000 48 485 -64
2022-09-24 03:35:06 GMT 47.089588 -117.156509 39,000 48 485 -64
2022-09-24 03:35:03 GMT 47.084335 -117.165070 39,000 47 485 -64
2022-09-24 03:34:56 GMT 47.073532 -117.182648 38,975 47 485 0
2022-09-24 03:34:53 GMT 47.068726 -117.190407 39,000 47 485 -64
2022-09-24 03:34:45 GMT 47.057796 -117.208206 39,000 47 485 -64
2022-09-24 03:34:42 GMT 47.052567 -117.216705 39,000 47 485 0
2022-09-24 03:34:35 GMT 47.041443 -117.234695 39,000 47 485 -64
2022-09-24 03:34:31 GMT 47.037125 -117.241730 38,975 47 485 -64
2022-09-24 03:34:24 GMT 47.026001 -117.259689 39,000 48 484 -64
2022-09-24 03:34:21 GMT 47.021393 -117.267242 39,000 48 484 -64
2022-09-24 03:34:14 GMT 47.010452 -117.284966 38,975 47 483 -64
2022-09-24 03:34:10 GMT 47.005657 -117.292717 39,000 47 483 0
2022-09-24 03:34:04 GMT 46.996674 -117.307220 38,975 47 483 0
2022-09-24 03:34:01 GMT 46.989944 -117.318123 38,975 47 483 0
2022-09-24 03:33:53 GMT 46.978378 -117.336731 38,975 47 483 -64
2022-09-24 03:33:49 GMT 46.974468 -117.343002 38,975 47 483 -64
2022-09-24 03:33:43 GMT 46.964676 -117.358704 39,000 47 483 -64
2022-09-24 03:33:40 GMT 46.958359 -117.368797 39,000 47 483 -128
2022-09-24 03:33:32 GMT 46.946915 -117.387062 39,000 48 483 64
2022-09-24 03:33:28 GMT 46.942345 -117.394691 39,000 49 484 128
2022-09-24 03:33:19 GMT 46.927689 -117.420639 38,950 52 485 320
2022-09-24 03:33:11 GMT 46.917389 -117.440483 38,900 54 487 576
2022-09-24 03:33:07 GMT 46.913727 -117.447968 38,875 54 487 640
2022-09-24 03:33:00 GMT 46.904221 -117.468353 38,800 56 489 640
2022-09-24 03:32:57 GMT 46.900406 -117.476944 38,775 57 489 576
2022-09-24 03:32:50 GMT 46.891708 -117.497818 38,700 59 490 384
2022-09-24 03:32:47 GMT 46.887741 -117.507866 38,675 60 491 384
2022-09-24 03:32:38 GMT 46.879669 -117.529747 38,650 62 492 384
2022-09-24 03:32:35 GMT 46.876705 -117.538361 38,625 63 492 512
2022-09-24 03:32:29 GMT 46.869736 -117.559616 38,550 65 493 640
2022-09-24 03:32:26 GMT 46.866745 -117.568954 38,525 64 494 704
2022-09-24 03:32:18 GMT 46.859344 -117.592232 38,400 64 494 960
2022-09-24 03:32:14 GMT 46.856232 -117.601875 38,375 65 495 1024
2022-09-24 03:32:08 GMT 46.849380 -117.623337 38,225 65 496 960
2022-09-24 03:32:05 GMT 46.846264 -117.633018 38,175 64 496 896
2022-09-24 03:31:56 GMT 46.838905 -117.656021 38,050 64 496 768
2022-09-24 03:31:53 GMT 46.835907 -117.665451 38,050 64 496 768
2022-09-24 03:31:47 GMT 46.828903 -117.687225 37,950 64 496 576
2022-09-24 03:31:43 GMT 46.825500 -117.697838 37,925 64 496 448
2022-09-24 03:31:33 GMT 46.815258 -117.729904 37,850 65 495 576
2022-09-24 03:31:26 GMT 46.808693 -117.750435 37,775 64 494 768
2022-09-24 03:31:22 GMT 46.805389 -117.760666 37,725 64 494 768
2022-09-24 03:31:17 GMT 46.800659 -117.775444 37,675 64 494 768
2022-09-24 03:31:12 GMT 46.794914 -117.793213 37,600 64 494 704
2022-09-24 03:31:03 GMT 46.786102 -117.820663 37,500 64 494 768
2022-09-24 03:31:00 GMT 46.784180 -117.826691 37,475 64 494 768
2022-09-24 03:30:57 GMT 46.780884 -117.836945 37,425 64 494 832
2022-09-24 03:30:51 GMT 46.774433 -117.857140 37,325 65 495 896
2022-09-24 03:30:44 GMT 46.767609 -117.878548 37,225 65 495 960
2022-09-24 03:30:41 GMT 46.765400 -117.885498 37,175 65 495 896
2022-09-24 03:30:35 GMT 46.760239 -117.901459 37,100 64 495 960
2022-09-24 03:30:30 GMT 46.755615 -117.915993 37,025 64 495 832
2022-09-24 03:30:25 GMT 46.749802 -117.934082 36,950 64 495 832
2022-09-24 03:30:21 GMT 46.745430 -117.947708 36,900 64 495 832
2022-09-24 03:30:14 GMT 46.739502 -117.966103 36,825 64 496 768
2022-09-24 03:30:10 GMT 46.735142 -117.979706 36,750 64 496 768
2022-09-24 03:30:05 GMT 46.729649 -117.996597 36,675 64 496 768
2022-09-24 03:30:00 GMT 46.725266 -118.010178 36,625 64 496 704
2022-09-24 03:29:57 GMT 46.722748 -118.018021 36,575 64 496 640
2022-09-24 03:29:54 GMT 46.720001 -118.026459 36,575 64 496 640
2022-09-24 03:29:49 GMT 46.715218 -118.041229 36,525 64 496 640
2022-09-24 03:29:45 GMT 46.711121 -118.053864 36,475 64 495 576
2022-09-24 03:29:39 GMT 46.704697 -118.073708 36,400 64 494 576
2022-09-24 03:29:33 GMT 46.699356 -118.090233 36,350 64 494 576
2022-09-24 03:29:30 GMT 46.696503 -118.098907 36,325 64 493 640
2022-09-24 03:29:27 GMT 46.694176 -118.106117 36,300 64 493 704
2022-09-24 03:29:24 GMT 46.689892 -118.119301 36,250 64 493 768
2022-09-24 03:29:19 GMT 46.685898 -118.131561 36,175 64 493 768
2022-09-24 03:29:16 GMT 46.682007 -118.143486 36,150 64 492 768
2022-09-24 03:29:09 GMT 46.675735 -118.162651 36,075 64 492 832
2022-09-24 03:29:05 GMT 46.671249 -118.176384 36,000 64 492 768
2022-09-24 03:28:57 GMT 46.663731 -118.199295 35,900 64 492 896
2022-09-24 03:28:52 GMT 46.658752 -118.214500 35,825 64 492 1216
2022-09-24 03:28:46 GMT 46.653488 -118.230644 35,700 64 492 1408
2022-09-24 03:28:40 GMT 46.648323 -118.246468 35,575 64 493 1408
2022-09-24 03:28:35 GMT 46.643326 -118.261726 35,450 64 494 1472
2022-09-24 03:28:32 GMT 46.640579 -118.270103 35,400 64 495 1472
2022-09-24 03:28:27 GMT 46.634079 -118.289932 35,225 64 496 1472
2022-09-24 03:28:23 GMT 46.630737 -118.300110 35,150 64 497 1280
2022-09-24 03:28:18 GMT 46.626907 -118.311836 35,075 64 497 1280
2022-09-24 03:28:14 GMT 46.622864 -118.324226 35,000 64 497 1216
2022-09-24 03:28:11 GMT 46.620018 -118.332985 34,925 64 498 1152
2022-09-24 03:28:05 GMT 46.611786 -118.357994 34,775 64 498 1152
2022-09-24 03:28:02 GMT 46.609818 -118.364021 34,750 64 498 1152
2022-09-24 03:27:58 GMT 46.606750 -118.373360 34,675 64 499 1152
2022-09-24 03:27:53 GMT 46.602127 -118.387604 34,625 64 498 1152
2022-09-24 03:27:49 GMT 46.597137 -118.402672 34,500 64 500 1280
2022-09-24 03:27:44 GMT 46.591553 -118.419624 34,375 64 500 1216
2022-09-24 03:27:39 GMT 46.586826 -118.433784 34,275 64 500 1280
2022-09-24 03:27:33 GMT 46.581528 -118.449837 34,175 64 501 1280
2022-09-24 03:27:30 GMT 46.578445 -118.459259 34,100 64 500 1280
2022-09-24 03:27:26 GMT 46.575348 -118.468658 34,050 64 501 1152
2022-09-24 03:27:23 GMT 46.570541 -118.483192 33,950 64 502 1216
2022-09-24 03:27:16 GMT 46.564911 -118.500214 33,825 64 502 1280
2022-09-24 03:27:12 GMT 46.560104 -118.514748 33,750 64 503 1216
2022-09-24 03:27:06 GMT 46.554192 -118.532661 33,650 64 503 1280
2022-09-24 03:27:02 GMT 46.549351 -118.547287 33,500 64 503 1280
2022-09-24 03:26:56 GMT 46.543301 -118.565552 33,400 64 504 1344
2022-09-24 03:26:51 GMT 46.539551 -118.576843 33,300 64 505 1280
2022-09-24 03:26:46 GMT 46.533432 -118.595421 33,175 64 505 1280
2022-09-24 03:26:41 GMT 46.528217 -118.611351 33,075 64 506 1344
2022-09-24 03:26:30 GMT 46.517807 -118.642830 32,825 64 508 1472
2022-09-24 03:26:24 GMT 46.510994 -118.663399 32,675 64 509 1536
2022-09-24 03:26:20 GMT 46.506943 -118.675690 32,575 64 510 1536
2022-09-24 03:26:12 GMT 46.499962 -118.696632 32,400 64 511 1536
2022-09-24 03:26:08 GMT 46.495789 -118.709282 32,300 64 512 1408
2022-09-24 03:26:02 GMT 46.489719 -118.727531 32,125 64 513 1344
2022-09-24 03:25:58 GMT 46.486225 -118.738106 32,100 64 513 1344
2022-09-24 03:25:51 GMT 46.477985 -118.762894 31,925 64 515 1344
2022-09-24 03:25:48 GMT 46.475288 -118.770927 31,850 64 515 1280
2022-09-24 03:25:38 GMT 46.464485 -118.803200 31,650 64 516 1152
2022-09-24 03:25:28 GMT 46.453453 -118.836227 31,450 64 517 1152
2022-09-24 03:25:16 GMT 46.442459 -118.868919 31,250 64 518 1280
2022-09-24 03:25:06 GMT 46.430878 -118.903587 31,025 64 520 1280
2022-09-24 03:24:56 GMT 46.419704 -118.936752 30,800 64 521 1280
2022-09-24 03:24:44 GMT 46.407692 -118.972458 30,550 64 521 1280
2022-09-24 03:24:34 GMT 46.396820 -119.004776 30,350 64 522 1280
2022-09-24 03:24:23 GMT 46.385906 -119.037140 30,150 64 523 1216
2022-09-24 03:24:13 GMT 46.374454 -119.071129 29,925 64 524 1152
2022-09-24 03:24:08 GMT 46.369801 -119.084999 29,850 64 525 1152
2022-09-24 03:24:04 GMT 46.364822 -119.099838 29,750 64 525 1152
2022-09-24 03:24:01 GMT 46.363312 -119.104256 29,725 64 525 1152
2022-09-24 03:23:56 GMT 46.357464 -119.121597 29,625 63 526 1152
2022-09-24 03:23:51 GMT 46.352234 -119.137085 29,525 63 526 1088
2022-09-24 03:23:47 GMT 46.346466 -119.154099 29,450 63 526 1088
2022-09-24 03:23:40 GMT 46.340611 -119.171516 29,350 64 527 1152
2022-09-24 03:23:30 GMT 46.329803 -119.203400 29,150 63 527 1152
2022-09-24 03:23:20 GMT 46.318081 -119.237915 28,925 63 529 1216
2022-09-24 03:23:09 GMT 46.307236 -119.269920 28,750 63 529 1088
2022-09-24 03:22:59 GMT 46.295921 -119.303146 28,600 63 528 704
2022-09-24 03:22:50 GMT 46.285542 -119.333496 28,500 63 527 640
2022-09-24 03:22:47 GMT 46.283936 -119.338249 28,475 63 527 704
2022-09-24 03:22:44 GMT 46.279301 -119.351761 28,425 63 525 896
2022-09-24 03:22:39 GMT 46.274788 -119.365013 28,375 63 525 960
2022-09-24 03:22:36 GMT 46.270924 -119.376343 28,350 63 525 896
2022-09-24 03:22:30 GMT 46.263977 -119.396736 28,225 63 525 768
2022-09-24 03:22:25 GMT 46.259033 -119.411201 28,175 63 525 768
2022-09-24 03:22:15 GMT 46.249603 -119.438805 28,050 63 524 832
2022-09-24 03:22:09 GMT 46.241547 -119.462242 27,950 63 524 768
2022-09-24 03:22:05 GMT 46.237919 -119.472885 27,900 63 524 640
2022-09-24 03:21:56 GMT 46.227722 -119.502579 27,800 63 522 704
2022-09-24 03:21:53 GMT 46.224106 -119.513161 27,775 63 522 704
2022-09-24 03:21:45 GMT 46.216923 -119.533997 27,700 63 521 704
2022-09-24 03:21:42 GMT 46.214218 -119.541763 27,650 63 521 704
2022-09-24 03:21:37 GMT 46.207397 -119.561661 27,575 63 520 832
2022-09-24 03:21:33 GMT 46.202682 -119.575333 27,525 63 520 832
2022-09-24 03:21:24 GMT 46.194485 -119.599159 27,425 63 520 832
2022-09-24 03:21:21 GMT 46.189781 -119.612823 27,350 63 519 832
2022-09-24 03:21:14 GMT 46.183090 -119.632339 27,275 63 518 832
2022-09-24 03:21:09 GMT 46.178421 -119.645935 27,075 63 517 832
2022-09-24 03:21:03 GMT 46.171906 -119.664734 27,125 63 517 896
2022-09-24 03:20:59 GMT 46.167572 -119.677422 27,075 63 517 832
2022-09-24 03:20:56 GMT 46.164368 -119.686668 27,025 63 517 832
2022-09-24 03:20:53 GMT 46.160339 -119.698387 26,975 63 516 832
2022-09-24 03:20:46 GMT 46.153240 -119.718979 26,900 63 516 832
2022-09-24 03:20:42 GMT 46.149490 -119.729744 26,850 63 516 832
2022-09-24 03:20:39 GMT 46.146210 -119.739304 26,800 63 516 832
2022-09-24 03:20:36 GMT 46.143768 -119.746353 26,775 63 516 832
2022-09-24 03:20:32 GMT 46.138458 -119.761696 26,700 63 515 832
2022-09-24 03:20:28 GMT 46.134338 -119.773636 26,550 63 513 896
2022-09-24 03:20:25 GMT 46.130939 -119.783455 26,600 63 515 832
2022-09-24 03:20:21 GMT 46.127308 -119.793892 26,550 63 514 768
2022-09-24 03:20:14 GMT 46.120094 -119.814697 26,475 63 513 832
2022-09-24 03:20:11 GMT 46.116089 -119.826302 26,425 63 512 896
2022-09-24 03:20:07 GMT 46.112041 -119.837837 26,350 63 512 896
2022-09-24 03:20:03 GMT 46.108978 -119.846703 26,300 63 512 832
2022-09-24 03:20:00 GMT 46.105133 -119.857620 26,275 63 512 832
2022-09-24 03:19:53 GMT 46.097702 -119.878555 26,175 63 510 960
2022-09-24 03:19:50 GMT 46.093697 -119.890091 26,100 64 511 960
2022-09-24 03:19:46 GMT 46.089935 -119.901367 26,025 65 510 960
2022-09-24 03:19:42 GMT 46.087006 -119.910683 26,000 65 511 896
2022-09-24 03:19:38 GMT 46.083084 -119.923393 25,950 67 510 896
2022-09-24 03:19:33 GMT 46.077576 -119.942497 25,850 68 510 896
2022-09-24 03:19:28 GMT 46.073868 -119.956078 25,800 69 510 960
2022-09-24 03:19:25 GMT 46.070606 -119.968781 25,750 70 510 960
2022-09-24 03:19:20 GMT 46.066681 -119.985107 25,650 71 510 896
2022-09-24 03:19:17 GMT 46.065491 -119.990196 25,650 72 510 896
2022-09-24 03:19:13 GMT 46.062790 -120.002525 25,600 73 510 832
2022-09-24 03:19:07 GMT 46.058716 -120.022621 25,500 74 509 704
2022-09-24 03:19:03 GMT 46.056015 -120.037689 25,450 76 508 768
2022-09-24 03:18:59 GMT 46.054176 -120.048500 25,375 77 508 960
2022-09-24 03:18:56 GMT 46.052673 -120.058060 25,300 77 507 960
2022-09-24 03:18:52 GMT 46.050499 -120.071571 25,225 77 507 896
2022-09-24 03:18:46 GMT 46.047134 -120.092896 25,200 77 507 896
2022-09-24 03:18:43 GMT 46.045006 -120.106384 25,100 77 507 832
2022-09-24 03:18:36 GMT 46.041641 -120.127724 25,050 77 506 832
2022-09-24 03:18:32 GMT 46.039810 -120.139519 25,025 77 506 960
2022-09-24 03:18:29 GMT 46.038162 -120.150330 24,975 77 505 960
2022-09-24 03:18:25 GMT 46.036285 -120.162498 24,925 77 505 960
2022-09-24 03:18:22 GMT 46.031132 -120.196198 24,650 77 503 1024
2022-09-24 03:18:15 GMT 46.031132 -120.196198 24,750 77 504 1024
2022-09-24 03:18:08 GMT 46.028339 -120.214531 24,650 77 503 1024
2022-09-24 03:18:04 GMT 46.025826 -120.230804 24,575 77 503 1088
2022-09-24 03:17:58 GMT 46.022938 -120.249756 24,475 77 502 1024
2022-09-24 03:17:53 GMT 46.020493 -120.265724 24,400 77 502 896
2022-09-24 03:17:49 GMT 46.018330 -120.279762 24,325 77 502 832
2022-09-24 03:17:43 GMT 46.015091 -120.301567 24,250 78 501 832
2022-09-24 03:17:37 GMT 46.012234 -120.320755 24,175 78 500 896
2022-09-24 03:17:34 GMT 46.011021 -120.329201 24,125 78 500 896
2022-09-24 03:17:31 GMT 46.010044 -120.335724 24,100 78 500 896
2022-09-24 03:17:27 GMT 46.007812 -120.351006 24,050 78 500 832
2022-09-24 03:17:22 GMT 46.005112 -120.369156 23,975 77 499 832
2022-09-24 03:17:11 GMT 46.000076 -120.402855 23,825 77 499 832
2022-09-24 03:17:01 GMT 45.994915 -120.437485 23,700 77 498 896
2022-09-24 03:16:52 GMT 45.990585 -120.466530 23,550 77 497 960
2022-09-24 03:16:49 GMT 45.989868 -120.471321 23,525 77 497 960
2022-09-24 03:16:40 GMT 45.984833 -120.504883 23,375 77 496 832
2022-09-24 03:16:35 GMT 45.982315 -120.521561 23,325 77 494 960
2022-09-24 03:16:29 GMT 45.979736 -120.538559 23,250 77 495 896
2022-09-24 03:16:24 GMT 45.977596 -120.552704 23,175 77 494 960
2022-09-24 03:16:19 GMT 45.974533 -120.572807 23,075 77 493 1088
2022-09-24 03:16:15 GMT 45.972473 -120.586273 23,000 77 492 1024
2022-09-24 03:16:10 GMT 45.969223 -120.607307 22,900 77 492 1024
2022-09-24 03:16:03 GMT 45.967358 -120.619102 22,825 76 491 1088
2022-09-24 03:15:58 GMT 45.964050 -120.638992 22,725 75 490 1216
2022-09-24 03:15:54 GMT 45.961899 -120.650986 22,650 74 489 1280
2022-09-24 03:15:48 GMT 45.958420 -120.668472 22,525 71 489 1216
2022-09-24 03:15:38 GMT 45.949768 -120.701828 22,175 65 487 1408
2022-09-24 03:15:32 GMT 45.944092 -120.720116 22,175 65 486 1408
2022-09-24 03:15:26 GMT 45.939743 -120.733582 22,050 65 486 1280
2022-09-24 03:15:20 GMT 45.934067 -120.751137 21,950 65 485 1152
2022-09-24 03:15:17 GMT 45.930580 -120.761993 21,900 65 485 1088
2022-09-24 03:15:11 GMT 45.924339 -120.781219 21,775 65 484 1152
2022-09-24 03:15:05 GMT 45.920105 -120.794342 21,700 65 484 1152
2022-09-24 03:14:59 GMT 45.914192 -120.812668 21,600 65 483 1024
2022-09-24 03:14:55 GMT 45.909908 -120.826057 21,525 65 483 1024
2022-09-24 03:14:50 GMT 45.905136 -120.840836 21,450 65 481 960
2022-09-24 03:14:44 GMT 45.900600 -120.855034 21,350 65 480 1216
2022-09-24 03:14:38 GMT 45.894928 -120.872719 21,250 65 480 1280
2022-09-24 03:14:33 GMT 45.890358 -120.886826 21,150 65 480 1280
2022-09-24 03:14:29 GMT 45.885269 -120.902733 21,025 65 480 1152
2022-09-24 03:14:24 GMT 45.881046 -120.915733 20,950 65 479 1216
2022-09-24 03:14:17 GMT 45.875694 -120.932419 20,850 65 478 1216
2022-09-24 03:14:12 GMT 45.871273 -120.946220 20,750 65 478 1280
2022-09-24 03:14:08 GMT 45.865814 -120.963226 20,625 65 477 1280
2022-09-24 03:14:03 GMT 45.861729 -120.976158 20,525 65 477 1280
2022-09-24 03:13:57 GMT 45.855927 -120.994240 20,400 65 476 1216
2022-09-24 03:13:51 GMT 45.851952 -121.006577 20,325 65 476 1216
2022-09-24 03:13:46 GMT 45.846313 -121.024048 20,200 65 476 1344
2022-09-24 03:13:42 GMT 45.842407 -121.036377 20,100 65 476 1344
2022-09-24 03:13:34 GMT 45.835007 -121.059555 19,925 65 475 1344
2022-09-24 03:13:31 GMT 45.832809 -121.066452 19,875 65 475 1344
2022-09-24 03:13:25 GMT 45.827278 -121.083893 19,750 65 474 1280
2022-09-24 03:13:21 GMT 45.823322 -121.096458 19,675 65 474 1344
2022-09-24 03:13:15 GMT 45.817505 -121.114723 19,525 65 473 1408
2022-09-24 03:13:10 GMT 45.813858 -121.126480 19,425 65 472 1408
2022-09-24 03:13:03 GMT 45.807724 -121.145836 19,275 65 472 1408
2022-09-24 03:13:00 GMT 45.804607 -121.155785 19,200 65 471 1280
2022-09-24 03:12:54 GMT 45.798752 -121.174309 19,075 65 471 1088
2022-09-24 03:12:47 GMT 45.793671 -121.190117 18,975 65 471 1088
2022-09-24 03:12:42 GMT 45.788689 -121.205704 18,875 65 470 1216
2022-09-24 03:12:39 GMT 45.785427 -121.215866 18,825 65 470 1280
2022-09-24 03:12:34 GMT 45.778770 -121.236122 18,675 64 469 1280
2022-09-24 03:12:31 GMT 45.778770 -121.236122 18,625 63 469 1152
2022-09-24 03:12:27 GMT 45.775040 -121.246925 18,575 63 468 1024
2022-09-24 03:12:22 GMT 45.768951 -121.263657 18,450 62 466 1152
2022-09-24 03:12:18 GMT 45.765060 -121.274323 18,425 64 466 1152
2022-09-24 03:12:12 GMT 45.760574 -121.288261 18,300 70 465 1280
2022-09-24 03:12:09 GMT 45.758148 -121.297165 18,250 72 465 1152
2022-09-24 03:12:06 GMT 45.756382 -121.304718 18,200 72 465 1152
2022-09-24 03:12:03 GMT 45.753960 -121.317215 18,125 77 465 768
2022-09-24 03:11:59 GMT 45.752144 -121.330467 18,100 82 465 192
2022-09-24 03:11:56 GMT 45.751556 -121.336891 18,100 84 464 192
2022-09-24 03:11:52 GMT 45.750778 -121.350891 18,075 88 461 320
2022-09-24 03:11:49 GMT 45.750595 -121.358803 18,050 88 461 384
2022-09-24 03:11:46 GMT 45.750515 -121.368233 18,050 89 459 384
2022-09-24 03:11:39 GMT 45.750366 -121.390884 18,000 89 456 448
2022-09-24 03:11:35 GMT 45.750282 -121.400848 17,975 89 455 576
2022-09-24 03:11:28 GMT 45.750137 -121.419762 17,875 89 453 1472
2022-09-24 03:11:25 GMT 45.750046 -121.432892 17,775 89 453 2112
2022-09-24 03:11:18 GMT 45.749863 -121.453583 17,450 89 456 3136
2022-09-24 03:11:14 GMT 45.749771 -121.463196 17,300 89 457 3008
2022-09-24 03:11:07 GMT 45.749588 -121.484138 16,975 89 460 1920
2022-09-24 03:11:04 GMT 45.749493 -121.495399 16,900 89 460 1408
2022-09-24 03:11:01 GMT 45.749443 -121.505081 16,850 89 454 704
2022-09-24 03:10:57 GMT 45.749359 -121.516289 16,800 89 458 448
2022-09-24 03:10:52 GMT 45.749268 -121.528351 16,775 89 456 448
2022-09-24 03:10:49 GMT 45.749176 -121.541008 16,750 89 454 704
2022-09-24 03:10:46 GMT 45.749130 -121.547577 16,725 89 454 832
2022-09-24 03:10:43 GMT 45.749039 -121.559570 16,675 89 453 1152
2022-09-24 03:10:40 GMT 45.748978 -121.568253 16,625 89 453 1344
2022-09-24 03:10:36 GMT 45.748901 -121.579933 16,525 89 453 1600
2022-09-24 03:10:31 GMT 45.748795 -121.590981 16,425 89 452 1600
2022-09-24 03:10:28 GMT 45.748718 -121.604454 16,300 89 452 1600
2022-09-24 03:10:25 GMT 45.748653 -121.611305 16,250 89 452 1536
2022-09-24 03:10:21 GMT 45.748562 -121.622635 16,175 89 452 1280
2022-09-24 03:10:14 GMT 45.748375 -121.641724 16,050 89 451 1088
2022-09-24 03:10:10 GMT 45.748169 -121.658043 15,950 88 449 1024
2022-09-24 03:10:07 GMT 45.748032 -121.666954 15,900 88 449 1024
2022-09-24 03:10:04 GMT 45.747955 -121.673172 15,875 88 448 1024
2022-09-24 03:10:00 GMT 45.747768 -121.685051 15,750 88 446 1152
2022-09-24 03:09:56 GMT 45.747620 -121.695961 15,750 88 445 1344
2022-09-24 03:09:53 GMT 45.747528 -121.704201 15,675 88 445 1280
2022-09-24 03:09:50 GMT 45.747349 -121.716843 15,575 89 445 1472
2022-09-24 03:09:47 GMT 45.747257 -121.724464 15,525 89 444 1472
2022-09-24 03:09:43 GMT 45.747162 -121.735039 15,450 89 444 1408
2022-09-24 03:09:36 GMT 45.746929 -121.756119 15,275 89 443 1408
2022-09-24 03:09:32 GMT 45.746883 -121.765457 15,200 89 443 1472
2022-09-24 03:09:26 GMT 45.746696 -121.787704 15,025 89 442 1472
2022-09-24 03:09:22 GMT 45.746658 -121.795570 14,975 89 441 1472
2022-09-24 03:09:18 GMT 45.746567 -121.809570 14,850 89 441 1408
2022-09-24 03:09:15 GMT 45.746521 -121.817146 14,800 89 440 1408
2022-09-24 03:09:11 GMT 45.746418 -121.827873 14,725 89 439 1344
2022-09-24 03:09:05 GMT 45.746338 -121.847893 14,575 89 438 1472
2022-09-24 03:09:01 GMT 45.746281 -121.856850 14,500 89 438 1600
2022-09-24 03:08:57 GMT 45.746185 -121.871338 14,375 89 438 1728
2022-09-24 03:08:54 GMT 45.746140 -121.878273 14,300 89 438 1728
2022-09-24 03:08:50 GMT 45.746109 -121.887817 14,025 89 437 1792
2022-09-24 03:08:44 GMT 45.745972 -121.909187 14,000 89 437 1792
2022-09-24 03:08:40 GMT 45.745743 -121.931694 13,150 88 437 1152
2022-09-24 03:08:36 GMT 45.745743 -121.931694 13,775 89 438 1792
2022-09-24 03:08:33 GMT 45.745674 -121.938972 13,725 88 438 1856
2022-09-24 03:08:29 GMT 45.745560 -121.948509 13,625 88 438 1920
2022-09-24 03:08:23 GMT 45.745239 -121.969879 13,350 88 439 1856
2022-09-24 03:08:20 GMT 45.745102 -121.978592 13,300 88 439 1856
2022-09-24 03:08:15 GMT 45.744835 -121.993355 13,150 88 438 1600
2022-09-24 03:08:09 GMT 45.744553 -122.007530 13,025 88 438 1280
2022-09-24 03:08:04 GMT 45.744183 -122.023430 12,900 88 436 1152
2022-09-24 03:08:01 GMT 45.743958 -122.033524 12,875 88 435 1216
2022-09-24 03:07:58 GMT 45.743774 -122.041557 12,275 88 428 1088
2022-09-24 03:07:53 GMT 45.743484 -122.053368 12,725 88 434 1344
2022-09-24 03:07:50 GMT 45.743271 -122.061653 12,600 88 433 1408
2022-09-24 03:07:47 GMT 45.743069 -122.071632 12,575 88 432 1408
2022-09-24 03:07:43 GMT 45.742767 -122.085037 12,450 88 431 1408
2022-09-24 03:07:40 GMT 45.742584 -122.093010 12,400 88 430 1344
2022-09-24 03:07:37 GMT 45.742493 -122.099304 12,350 88 430 1280
2022-09-24 03:07:30 GMT 45.742088 -122.120522 12,225 88 427 960
2022-09-24 03:07:27 GMT 45.741951 -122.128967 12,200 88 426 896
2022-09-24 03:07:19 GMT 45.741577 -122.150253 12,075 88 421 832
2022-09-24 03:07:16 GMT 45.741394 -122.161674 12,025 88 418 768
2022-09-24 03:07:09 GMT 45.741066 -122.179024 11,950 88 416 768
2022-09-24 03:07:05 GMT 45.740936 -122.188065 11,925 88 413 832
2022-09-24 03:07:00 GMT 45.740570 -122.205482 11,825 88 409 832
2022-09-24 03:06:56 GMT 45.740250 -122.221695 11,775 88 407 896
2022-09-24 03:06:53 GMT 45.740250 -122.221695 11,750 88 406 832
2022-09-24 03:06:48 GMT 45.739948 -122.237938 11,625 88 399 832
2022-09-24 03:06:44 GMT 45.739807 -122.245354 11,450 88 398 832
2022-09-24 03:06:39 GMT 45.739563 -122.259811 11,550 88 397 832
2022-09-24 03:06:33 GMT 45.739059 -122.284798 11,425 88 390 832
2022-09-24 03:06:27 GMT 45.738922 -122.291222 11,400 88 389 896
2022-09-24 03:06:24 GMT 45.738739 -122.299667 11,300 88 385 896
2022-09-24 03:06:18 GMT 45.738464 -122.314880 11,250 88 381 896
2022-09-24 03:06:15 GMT 45.738373 -122.318428 11,250 88 381 896
2022-09-24 03:06:12 GMT 45.738224 -122.327202 11,200 88 378 896
2022-09-24 03:06:07 GMT 45.737946 -122.340179 11,100 88 373 832
2022-09-24 03:06:04 GMT 45.737713 -122.349518 11,025 88 371 832
2022-09-24 03:06:01 GMT 45.737621 -122.353432 11,025 88 371 832
2022-09-24 03:05:57 GMT 45.737202 -122.375816 10,975 88 365 832
2022-09-24 03:05:53 GMT 45.737106 -122.380554 10,850 88 357 896
2022-09-24 03:05:46 GMT 45.736736 -122.399506 10,825 88 356 896
2022-09-24 03:05:43 GMT 45.736736 -122.399506 10,775 88 354 896
2022-09-24 03:05:40 GMT 45.736633 -122.403976 10,775 88 354 896
2022-09-24 03:05:35 GMT 45.736359 -122.418381 10,675 88 348 896
2022-09-24 03:05:31 GMT 45.736176 -122.427315 10,625 88 345 896
2022-09-24 03:05:24 GMT 45.735851 -122.443588 10,525 88 338 832
2022-09-24 03:05:20 GMT 45.735710 -122.450729 10,500 88 336 768
2022-09-24 03:05:16 GMT 45.735950 -122.463211 9,800 87 308 1824
2022-09-24 03:05:15 GMT 45.735889 -122.465240 9,800 87 308 1824
2022-09-24 03:05:14 GMT 45.735840 -122.467278 9,800 87 308 1824
2022-09-24 03:05:12 GMT 45.735729 -122.471336 9,800 87 308 1824
2022-09-24 03:05:11 GMT 45.735680 -122.473381 9,800 87 308 1824
2022-09-24 03:05:10 GMT 45.735619 -122.475410 9,800 87 308 1824
2022-09-24 03:05:09 GMT 45.735569 -122.477440 9,800 87 308 1824
2022-09-24 03:05:08 GMT 45.735458 -122.481506 9,800 87 308 1824
2022-09-24 03:05:06 GMT 45.735409 -122.483543 9,800 87 308 1824
2022-09-24 03:05:05 GMT 45.735352 -122.485573 9,800 87 308 1824
2022-09-24 03:05:04 GMT 45.735241 -122.489639 9,800 87 308 1824
2022-09-24 03:05:02 GMT 45.735191 -122.491669 9,800 87 308 1824
2022-09-24 03:05:01 GMT 45.735130 -122.493713 9,800 87 308 1824
2022-09-24 03:04:59 GMT 45.735020 -122.497772 9,800 87 308 1824
2022-09-24 03:04:58 GMT 45.734970 -122.499809 9,800 87 308 1824
2022-09-24 03:04:57 GMT 45.734921 -122.501839 9,800 87 308 1824
2022-09-24 03:04:56 GMT 45.734810 -122.505898 9,800 87 308 1824
2022-09-24 03:04:54 GMT 45.734749 -122.507942 9,800 87 308 1824
2022-09-24 03:04:53 GMT 45.734699 -122.509972 9,800 87 308 1824
2022-09-24 03:04:51 GMT 45.734589 -122.514038 9,800 87 308 1824
2022-09-24 03:04:50 GMT 45.734531 -122.516068 9,800 87 308 1824
2022-09-24 03:04:49 GMT 45.734421 -122.520142 9,800 87 308 1600
2022-09-24 03:04:47 GMT 45.734371 -122.522171 9,800 87 308 1600
2022-09-24 03:04:46 GMT 45.734310 -122.524200 9,800 87 308 1600
2022-09-24 03:04:45 GMT 45.734169 -122.526817 9,700 88 302 1600
2022-09-24 03:04:43 GMT 45.734081 -122.530807 9,700 88 302 1600
2022-09-24 03:04:42 GMT 45.734032 -122.532806 9,700 88 302 1600
2022-09-24 03:04:41 GMT 45.733990 -122.534813 9,700 88 302 1600
2022-09-24 03:04:39 GMT 45.733959 -122.538971 9,500 87 301 1600
2022-09-24 03:04:38 GMT 45.733860 -122.542953 9,500 87 301 1600
2022-09-24 03:04:36 GMT 45.733810 -122.544937 9,500 87 301 1600
2022-09-24 03:04:35 GMT 45.733768 -122.547157 9,400 87 300 1600
2022-09-24 03:04:34 GMT 45.733719 -122.549141 9,400 87 300 1600
2022-09-24 03:04:33 GMT 45.733631 -122.553101 9,400 87 300 1600
2022-09-24 03:04:31 GMT 45.733662 -122.555313 9,200 87 299 1600
2022-09-24 03:04:30 GMT 45.733608 -122.557281 9,200 87 299 1600
2022-09-24 03:04:28 GMT 45.733509 -122.561218 9,200 87 299 1600
2022-09-24 03:04:27 GMT 45.733459 -122.563202 9,200 87 299 1600
2022-09-24 03:04:26 GMT 45.733429 -122.565437 8,900 87 297 1600
2022-09-24 03:04:25 GMT 45.733379 -122.567413 8,900 87 297 1600
2022-09-24 03:04:24 GMT 45.733269 -122.571327 8,900 87 297 1600
2022-09-24 03:04:22 GMT 45.733421 -122.573067 8,900 87 300 1600
2022-09-24 03:04:21 GMT 45.733349 -122.575050 8,900 87 300 1600
2022-09-24 03:04:19 GMT 45.733219 -122.579010 8,900 87 300 1600
2022-09-24 03:04:18 GMT 45.733150 -122.580994 8,900 87 300 1600
2022-09-24 03:04:17 GMT 45.732861 -122.583107 8,800 87 298 1600
2022-09-24 03:04:15 GMT 45.732761 -122.587051 8,800 87 298 1600
2022-09-24 03:04:14 GMT 45.732712 -122.589020 8,800 87 298 1600
2022-09-24 03:04:13 GMT 45.732658 -122.590988 8,800 87 298 1600
2022-09-24 03:04:11 GMT 45.732540 -122.595093 8,500 87 297 1600
2022-09-24 03:04:10 GMT 45.732498 -122.597054 8,500 87 297 1600
2022-09-24 03:04:09 GMT 45.732449 -122.599007 8,500 87 297 1600
2022-09-24 03:04:07 GMT 45.732391 -122.602959 8,500 87 296 1600
2022-09-24 03:04:06 GMT 45.732330 -122.604912 8,500 87 296 1600
2022-09-24 03:04:05 GMT 45.732281 -122.606873 8,500 87 296 1600
2022-09-24 03:04:04 GMT 45.732128 -122.610840 8,300 87 296 1600
2022-09-24 03:04:02 GMT 45.732079 -122.612793 8,300 87 296 1600
2022-09-24 03:04:01 GMT 45.731991 -122.616699 8,300 87 296 1600
2022-09-24 03:03:59 GMT 45.731941 -122.618652 8,300 87 296 1600
2022-09-24 03:03:58 GMT 45.731930 -122.620819 8,000 87 294 1600
2022-09-24 03:03:57 GMT 45.731880 -122.622757 8,000 87 294 1600
2022-09-24 03:03:55 GMT 45.731781 -122.626640 8,000 87 294 1600
2022-09-24 03:03:54 GMT 45.731709 -122.628883 8,000 88 291 1600
2022-09-24 03:03:53 GMT 45.731659 -122.630798 8,000 88 291 1600
2022-09-24 03:03:51 GMT 45.731560 -122.634644 8,000 88 291 1600
2022-09-24 03:03:50 GMT 45.731499 -122.636559 8,000 88 291 1600
2022-09-24 03:03:49 GMT 45.731300 -122.638741 7,900 88 289 1952
2022-09-24 03:03:48 GMT 45.731220 -122.642548 7,900 88 289 1952
2022-09-24 03:03:46 GMT 45.731178 -122.644463 7,900 88 289 1952
2022-09-24 03:03:45 GMT 45.731140 -122.646362 7,900 88 289 1952
2022-09-24 03:03:44 GMT 45.731060 -122.650284 7,700 88 288 1952
2022-09-24 03:03:42 GMT 45.731022 -122.652184 7,700 88 288 1952
2022-09-24 03:03:41 GMT 45.730980 -122.654083 7,700 88 288 1952
2022-09-24 03:03:40 GMT 45.730881 -122.656151 7,600 88 286 1952
2022-09-24 03:03:38 GMT 45.730808 -122.659920 7,600 88 286 1952
2022-09-24 03:03:37 GMT 45.730782 -122.661812 7,600 88 286 1952
2022-09-24 03:03:36 GMT 45.730740 -122.663696 7,600 88 286 1952
2022-09-24 03:03:35 GMT 45.730621 -122.667503 7,500 88 286 1952
2022-09-24 03:03:33 GMT 45.730591 -122.669388 7,500 88 286 1952
2022-09-24 03:03:32 GMT 45.730549 -122.671280 7,500 88 286 1952
2022-09-24 03:03:31 GMT 45.730518 -122.673172 7,500 88 286 1952
2022-09-24 03:03:29 GMT 45.730389 -122.676987 7,300 89 285 1952
2022-09-24 03:03:28 GMT 45.730358 -122.678871 7,300 89 285 1952
2022-09-24 03:03:27 GMT 45.730339 -122.680763 7,300 89 285 1952
2022-09-24 03:03:25 GMT 45.730160 -122.684357 7,100 89 287 1952
2022-09-24 03:03:24 GMT 45.730141 -122.686256 7,100 89 287 1952
2022-09-24 03:03:23 GMT 45.730129 -122.688164 7,100 89 287 1952
2022-09-24 03:02:52 GMT 45.743561 -122.778160 5,000 9 269 2208
2022-09-24 03:02:51 GMT 45.742340 -122.778511 5,000 9 269 2208
2022-09-24 03:02:50 GMT 45.739899 -122.779198 5,000 9 269 2208
2022-09-24 03:02:46 GMT 45.736229 -122.780228 5,000 9 269 2400
2022-09-24 03:02:45 GMT 45.735008 -122.780579 5,000 9 269 2400
2022-09-24 03:02:44 GMT 45.733791 -122.780922 5,000 9 269 2400
2022-09-24 03:02:43 GMT 45.732571 -122.781273 5,000 9 269 2400
2022-09-24 03:02:42 GMT 45.731339 -122.781609 5,000 9 269 2400
2022-09-24 03:02:40 GMT 45.728901 -122.782303 5,000 9 269 2400
2022-09-24 03:02:39 GMT 45.727680 -122.782654 5,000 9 269 2400
2022-09-24 03:02:35 GMT 45.720108 -122.773621 5,000 9 269 2400
2022-09-24 03:02:32 GMT 45.717369 -122.777573 5,425 41 271 2240
2022-09-24 03:02:29 GMT 45.715462 -122.786087 5,000 9 269 2400
2022-09-24 03:02:28 GMT 45.714241 -122.786430 5,000 9 269 2400
2022-09-24 03:02:27 GMT 45.713020 -122.786781 5,000 9 269 2400
2022-09-24 03:02:25 GMT 45.710571 -122.787468 5,000 9 269 2400
2022-09-24 03:02:24 GMT 45.709351 -122.787811 5,000 9 269 2400
2022-09-24 03:02:23 GMT 45.708130 -122.788162 5,000 9 269 2400
2022-09-24 03:02:21 GMT 45.705841 -122.790283 4,900 4 271 2400
2022-09-24 03:02:20 GMT 45.703350 -122.790718 4,900 4 271 2400
2022-09-24 03:02:17 GMT 45.700859 -122.791161 4,900 4 271 2400
2022-09-24 03:02:16 GMT 45.699600 -122.792542 4,700 359 271 2400
2022-09-24 03:02:15 GMT 45.698349 -122.792633 4,700 359 271 2400
2022-09-24 03:02:14 GMT 45.697102 -122.792732 4,700 359 271 2400
2022-09-24 03:02:12 GMT 45.694221 -122.794960 4,500 350 266 2400
2022-09-24 03:02:11 GMT 45.693001 -122.794823 4,500 350 266 2400
2022-09-24 03:02:10 GMT 45.691769 -122.794678 4,500 350 266 2400
2022-09-24 03:02:07 GMT 45.687199 -122.796638 4,300 337 254 2400
2022-09-24 03:02:06 GMT 45.684940 -122.795708 4,300 337 254 2400
2022-09-24 03:02:04 GMT 45.683811 -122.795250 4,300 337 254 2400
2022-09-24 03:02:02 GMT 45.680000 -122.797348 4,100 321 245 2400
2022-09-24 03:02:00 GMT 45.678120 -122.795540 4,100 321 245 2400
2022-09-24 03:01:58 GMT 45.674599 -122.796638 4,000 310 251 2400
2022-09-24 03:01:57 GMT 45.674057 -122.789566 4,000 310 251 2400
2022-09-24 03:01:54 GMT 45.674057 -122.789566 3,900 336 259 2048
2022-09-24 03:01:50 GMT 45.669842 -122.786774 3,900 330 258 2048
2022-09-24 03:01:45 GMT 45.664993 -122.782066 3,675 315 257 2176
2022-09-24 03:01:42 GMT 45.660999 -122.777946 3,500 301 250 1504
2022-09-24 03:01:41 GMT 45.660400 -122.776543 3,500 301 250 1504
2022-09-24 03:01:39 GMT 45.659100 -122.773972 3,100 300 252 1504
2022-09-24 03:01:38 GMT 45.658501 -122.772552 3,100 300 252 1504
2022-09-24 03:01:37 GMT 45.657909 -122.771118 3,100 300 252 1504
2022-09-24 03:01:36 GMT 45.657310 -122.769691 3,100 300 252 1504
2022-09-24 03:01:34 GMT 45.655991 -122.766853 3,100 300 251 1504
2022-09-24 03:01:33 GMT 45.655399 -122.765419 3,100 300 251 1504
2022-09-24 03:01:32 GMT 45.654819 -122.764000 3,100 300 251 1504
2022-09-24 03:01:31 GMT 45.654240 -122.762573 3,100 300 251 1504
2022-09-24 03:01:29 GMT 45.653118 -122.759697 2,700 300 251 1504
2022-09-24 03:01:28 GMT 45.652531 -122.758278 2,700 300 251 1504
2022-09-24 03:01:27 GMT 45.651379 -122.755493 2,700 300 253 1504
2022-09-24 03:01:25 GMT 45.650791 -122.754059 2,700 300 253 1504
2022-09-24 03:01:24 GMT 45.650188 -122.752617 2,700 300 253 1504
2022-09-24 03:01:22 GMT 45.649010 -122.749748 2,700 300 253 1504
2022-09-24 03:01:21 GMT 45.648418 -122.748337 2,500 300 253 1504
2022-09-24 03:01:19 GMT 45.647240 -122.745461 2,500 300 253 1504
2022-09-24 03:01:18 GMT 45.646648 -122.744011 2,500 300 253 1504
2022-09-24 03:01:17 GMT 45.646061 -122.742569 2,500 300 253 1504
2022-09-24 03:01:16 GMT 45.645470 -122.741158 2,200 300 254 1504
2022-09-24 03:01:15 GMT 45.644852 -122.739693 2,200 300 253 1504
2022-09-24 03:01:13 GMT 45.643650 -122.736748 2,200 300 251 1504
2022-09-24 03:01:12 GMT 45.643082 -122.735352 2,200 300 252 1504
2022-09-24 03:01:11 GMT 45.642502 -122.733932 2,200 300 253 1504
2022-09-24 03:01:09 GMT 45.641338 -122.731087 2,200 300 256 1504
2022-09-24 03:01:08 GMT 45.640678 -122.729507 2,200 300 248 1504
2022-09-24 03:01:07 GMT 45.639488 -122.726578 2,175 299 245 1504
2022-09-24 03:01:05 GMT 45.638931 -122.725159 2,175 299 244 1504
2022-09-24 03:01:04 GMT 45.638340 -122.723732 2,100 299 243 1504
2022-09-24 03:01:03 GMT 45.637791 -122.722343 2,100 300 243 1504
2022-09-24 03:01:01 GMT 45.636639 -122.719498 2,100 299 241 1504
2022-09-24 03:01:00 GMT 45.636070 -122.718102 2,075 299 239 1504
2022-09-24 03:00:59 GMT 45.635521 -122.716721 2,075 299 239 1504
2022-09-24 03:00:57 GMT 45.634392 -122.713921 2,050 299 236 1504
2022-09-24 03:00:56 GMT 45.633839 -122.712563 2,025 299 236 1504
2022-09-24 03:00:55 GMT 45.633301 -122.711159 2,000 300 234 1504
2022-09-24 03:00:53 GMT 45.632179 -122.708458 1,975 299 231 1504
2022-09-24 03:00:52 GMT 45.631660 -122.707092 1,950 299 230 1504
2022-09-24 03:00:51 GMT 45.631142 -122.705856 1,950 299 234 1504
2022-09-24 03:00:50 GMT 45.630032 -122.703041 1,925 300 223 1504
2022-09-24 03:00:48 GMT 45.629509 -122.701736 1,925 300 223 2304
2022-09-24 03:00:47 GMT 45.628979 -122.700417 1,875 300 221 2304
2022-09-24 03:00:46 GMT 45.628460 -122.699150 1,875 300 221 2304
2022-09-24 03:00:45 GMT 45.627430 -122.696548 1,825 300 219 2304
2022-09-24 03:00:43 GMT 45.626900 -122.695267 1,800 300 218 2304
2022-09-24 03:00:42 GMT 45.626389 -122.694031 1,775 300 218 2304
2022-09-24 03:00:41 GMT 45.625870 -122.692757 1,725 300 217 2304
2022-09-24 03:00:39 GMT 45.624851 -122.690277 1,700 301 216 2304
2022-09-24 03:00:38 GMT 45.624329 -122.689034 1,675 301 215 2304
2022-09-24 03:00:37 GMT 45.623821 -122.687820 1,650 301 215 2304
2022-09-24 03:00:36 GMT 45.622780 -122.685318 1,600 301 213 2304
2022-09-24 03:00:34 GMT 45.622261 -122.684128 1,575 301 212 2304
2022-09-24 03:00:33 GMT 45.621761 -122.682922 1,550 301 212 2304
2022-09-24 03:00:31 GMT 45.620701 -122.680450 1,525 302 208 2304
2022-09-24 03:00:30 GMT 45.619671 -122.678040 1,500 302 204 2304
2022-09-24 03:00:28 GMT 45.619148 -122.676933 1,500 302 205 2304
2022-09-24 03:00:27 GMT 45.618610 -122.675743 1,475 302 202 2304
2022-09-24 03:00:25 GMT 45.617599 -122.673340 1,475 303 196 2304
2022-09-24 03:00:24 GMT 45.617100 -122.672203 1,475 303 195 2304
2022-09-24 03:00:23 GMT 45.616611 -122.671082 1,475 303 193 2304
2022-09-24 03:00:21 GMT 45.615601 -122.668922 1,450 303 192 2304
2022-09-24 03:00:20 GMT 45.615101 -122.667793 1,450 304 189 2304
2022-09-24 03:00:18 GMT 45.614101 -122.665657 1,425 304 187 2304
2022-09-24 03:00:17 GMT 45.613571 -122.664597 1,400 304 185 2304
2022-09-24 03:00:16 GMT 45.613091 -122.663544 1,400 304 183 2304
2022-09-24 03:00:15 GMT 45.612099 -122.661484 1,375 304 180 2304
2022-09-24 03:00:13 GMT 45.611610 -122.660461 1,350 304 179 2304
2022-09-24 03:00:12 GMT 45.611130 -122.659492 1,350 303 179 2304
2022-09-24 03:00:10 GMT 45.610161 -122.657478 1,325 303 176 2304
2022-09-24 03:00:09 GMT 45.609680 -122.656479 1,325 303 175 2304
2022-09-24 03:00:07 GMT 45.608761 -122.654541 1,300 302 173 2304
2022-09-24 03:00:06 GMT 45.608311 -122.653519 1,275 302 172 2304
2022-09-24 03:00:05 GMT 45.607868 -122.652557 1,275 302 171 2304
2022-09-24 03:00:04 GMT 45.606972 -122.650642 1,225 302 170 2304
2022-09-24 03:00:02 GMT 45.606560 -122.649696 1,200 302 170 2304
2022-09-24 03:00:01 GMT 45.606140 -122.648788 1,175 301 171 2304
2022-09-24 03:00:00 GMT 45.605709 -122.647873 1,150 301 171 2304
2022-09-24 02:59:58 GMT 45.604870 -122.645943 1,100 301 171 2304
2022-09-24 02:59:57 GMT 45.604450 -122.644981 1,075 301 171 2304
2022-09-24 02:59:56 GMT 45.604031 -122.643997 1,025 301 170 2304
2022-09-24 02:59:55 GMT 45.603149 -122.642151 950 298 170 2304
2022-09-24 02:59:53 GMT 45.602760 -122.641167 925 298 170 2304
2022-09-24 02:59:52 GMT 45.602371 -122.640182 875 298 170 2304
2022-09-24 02:59:50 GMT 45.601601 -122.638222 800 298 170 2304
2022-09-24 02:59:49 GMT 45.601231 -122.637253 750 298 170 2304
2022-09-24 02:59:48 GMT 45.600849 -122.636238 700 298 169 -64
2022-09-24 02:59:47 GMT 45.600101 -122.634247 625 298 168 -64
2022-09-24 02:59:45 GMT 45.599739 -122.633301 575 297 169 -64
2022-09-24 02:59:44 GMT 45.599380 -122.632294 550 298 169 -64
2022-09-24 02:59:43 GMT 45.598629 -122.630318 475 298 168 -64
2022-09-24 02:59:41 GMT 45.598259 -122.629341 450 298 168 -64
2022-09-24 02:59:40 GMT 45.597889 -122.628357 400 299 168 -64
2022-09-24 02:59:39 GMT 45.597511 -122.627403 375 299 168 -64
2022-09-24 02:59:37 GMT 45.596748 -122.625458 300 299 168 -64
2022-09-24 02:59:36 GMT 45.596371 -122.624489 250 299 168 -64
2022-09-24 02:59:35 GMT 45.596001 -122.623528 225 299 169 -64
2022-09-24 02:59:34 GMT 45.595242 -122.621613 150 299 169 -64
2022-09-24 02:59:32 GMT 45.594860 -122.620644 125 299 170 -64
2022-09-24 02:59:31 GMT 45.594479 -122.619682 75 299 171 -64
2022-09-24 02:59:29 GMT 45.593712 -122.617722 0 298 171 -64
2022-09-24 02:59:28 GMT 45.593349 -122.616722 -25 299 171 -64
2022-09-24 02:59:27 GMT 45.592960 -122.615738 -50 299 172 -64
2022-09-24 02:59:26 GMT 45.592171 -122.613762 -100 299 171 -64
2022-09-24 02:59:24 GMT 45.591759 -122.612778 -125 299 171 -64
2022-09-24 02:59:23 GMT 45.590969 -122.610802 -150 298 167 -64
2022-09-24 02:59:21 GMT 45.590580 -122.609863 -175 297 169 -64
2022-09-24 02:59:20 GMT 45.590221 -122.608841 -175 298 162 -64
2022-09-24 02:59:19 GMT 45.589859 -122.607872 -175 298 158 -64
2022-09-24 02:59:17 GMT 45.589149 -122.606033 -175 298 155 -64
2022-09-24 02:59:16 GMT 45.588779 -122.605080 -175 298 148 -64
2022-09-24 02:59:15 GMT 45.588470 -122.604218 -175 299 149 -64
2022-09-24 02:59:13 GMT 45.587769 -122.602463 -175 299 139 -64
2022-09-24 02:59:12 GMT 45.587448 -122.601662 -175 299 139 -64
2022-09-24 02:59:10 GMT 45.586811 -122.600060 -175 299 137 -64
2022-09-24 02:59:09 GMT 45.586491 -122.599228 -175 299 131 -64
2022-09-24 02:59:08 GMT 45.586189 -122.598488 -175 300 132 -64
2022-09-24 02:59:07 GMT 45.585529 -122.596931 -175 298 115 -64
2022-09-24 02:59:05 GMT 45.585281 -122.596283 -175 298 117
2022-09-24 02:59:04 GMT 45.585011 -122.595589 -175 298 115
2022-09-24 02:59:02 GMT 45.584492 -122.594261 -175 298 107
2022-09-24 02:59:01 GMT 45.584229 -122.593613 -175 298 102
2022-09-24 02:59:00 GMT 45.584000 -122.593002 -175 299 100
2022-09-24 02:58:58 GMT 45.583519 -122.591850 0 297 90
2022-09-24 02:58:57 GMT 45.583328 -122.591293 0 298 88
2022-09-24 02:58:56 GMT 45.583130 -122.590736 0 298 82
2022-09-24 02:58:55 GMT 45.582760 -122.589767 0 299 77
2022-09-24 02:58:53 GMT 45.582561 -122.589310 0 297 71
2022-09-24 02:58:52 GMT 45.582409 -122.588860 0 298 68
2022-09-24 02:58:50 GMT 45.582119 -122.588020 0 301 59
2022-09-24 02:58:49 GMT 45.581921 -122.587662 0 298 54
2022-09-24 02:58:47 GMT 45.581661 -122.586998 0 298 45
2022-09-24 02:58:46 GMT 45.581551 -122.586739 0 297 44
2022-09-24 02:58:45 GMT 45.581429 -122.586472 0 292 39
2022-09-24 02:58:43 GMT 45.581280 -122.585938 0 295 30
2022-09-24 02:58:42 GMT 45.581219 -122.585701 0 303 23
2022-09-24 02:58:40 GMT 45.581089 -122.585419 0 301 17
2022-09-24 02:58:39 GMT 45.581032 -122.585320 0 295 14
2022-09-24 02:58:38 GMT 45.581001 -122.585190 0 296 8
2022-09-24 02:58:37 GMT 45.580978 -122.585167 0 295 10
2022-09-24 02:58:36 GMT 45.580921 -122.585060 0 288 7
2022-09-24 02:58:33 GMT 45.580898 -122.584930 0 298 2
2022-09-24 02:58:32 GMT 45.580898 -122.584900 0 298 1
2022-09-24 02:58:30 GMT 45.580879 -122.584900 0 298 1
2022-09-24 02:58:29 GMT 45.580872 -122.584900 0 298 1
2022-09-24 02:58:27 GMT 45.580872 -122.584892 0 298 1
2022-09-24 02:58:26 GMT 45.580879 -122.584877 0 298 1
2022-09-24 02:58:25 GMT 45.580879 -122.584862 0 298 0
2022-09-24 02:58:24 GMT 45.580872 -122.584862 0 298 1
2022-09-24 02:58:21 GMT 45.580860 -122.584877 0 298 0
2022-09-24 02:58:20 GMT 45.580872 -122.584869 0 298 0
2022-09-24 02:58:18 GMT 45.580860 -122.584869 0 298 1
2022-09-24 02:58:17 GMT 45.580872 -122.584862 0 298 0
2022-09-24 02:58:16 GMT 45.580879 -122.584846 0 298 1
2022-09-24 02:58:14 GMT 45.580872 -122.584846 0 298 1
2022-09-24 02:58:11 GMT 45.580860 -122.584862 0 298 0
2022-09-24 02:58:10 GMT 45.580849 -122.584862 0 298 1
2022-09-24 02:58:09 GMT 45.580860 -122.584862 0 299 1
2022-09-24 02:58:06 GMT 45.580860 -122.584869 0 299 1
2022-09-24 02:58:05 GMT 45.580879 -122.584877 0 299 1
2022-09-24 02:58:03 GMT 45.580879 -122.584892 0 299 3
2022-09-24 02:58:02 GMT 45.580872 -122.584892 0 300 3
2022-09-24 02:58:01 GMT 45.580872 -122.584877 0 301 4
2022-09-24 02:57:59 GMT 45.580872 -122.584831 0 307 5
2022-09-24 02:57:58 GMT 45.580860 -122.584808 0 308 5
2022-09-24 02:57:57 GMT 45.580860 -122.584793 0 309 6
2022-09-24 02:57:55 GMT 45.580818 -122.584747 0 307 7
2022-09-24 02:57:54 GMT 45.580799 -122.584717 0 302 7
2022-09-24 02:57:53 GMT 45.580769 -122.584679 0 296 7
2022-09-24 02:57:52 GMT 45.580750 -122.584663 0 291 8
2022-09-24 02:57:50 GMT 45.580711 -122.584587 0 282 9
2022-09-24 02:57:49 GMT 45.580688 -122.584518 0 275 8
2022-09-24 02:57:48 GMT 45.580662 -122.584480 0 268 9
2022-09-24 02:57:46 GMT 45.580639 -122.584389 0 262 12
2022-09-24 02:57:45 GMT 45.580669 -122.584297 0 266 9
2022-09-24 02:57:44 GMT 45.580631 -122.584167 0 230 10
2022-09-24 02:57:42 GMT 45.580639 -122.584122 0 227 10
2022-09-24 02:57:41 GMT 45.580669 -122.584061 0 225 10
2022-09-24 02:57:40 GMT 45.580688 -122.584000 0 221 10
2022-09-24 02:57:39 GMT 45.580761 -122.583908 0 219 10
2022-09-24 02:57:37 GMT 45.580799 -122.583862 0 216 9
2022-09-24 02:57:36 GMT 45.580830 -122.583809 0 214 8
2022-09-24 02:57:34 GMT 45.580910 -122.583710 0 206 7
2022-09-24 02:57:33 GMT 45.580940 -122.583702 0 207 7
2022-09-24 02:57:32 GMT 45.581009 -122.583649 0 206 6
2022-09-24 02:57:30 GMT 45.581039 -122.583633 0 204 6
2022-09-24 02:57:29 GMT 45.581081 -122.583603 0 202 5
2022-09-24 02:57:27 GMT 45.581120 -122.583557 0 191 5
2022-09-24 02:57:26 GMT 45.581131 -122.583542 0 186 6
2022-09-24 02:57:25 GMT 45.581161 -122.583519 0 184 5
2022-09-24 02:57:24 GMT 45.581230 -122.583519 0 193 4
2022-09-24 02:57:22 GMT 45.581261 -122.583519 0 194 3
2022-09-24 02:57:21 GMT 45.581299 -122.583511 0 195 2
2022-09-24 02:57:19 GMT 45.581310 -122.583504 0 195 2
2022-09-24 02:57:17 GMT 45.581348 -122.583473 0 195 0
2022-09-24 02:57:15 GMT 45.581348 -122.583473 0 195 0
2022-09-24 02:57:13 GMT 45.581360 -122.583473 0 195 0
2022-09-24 02:57:06 GMT 45.581348 -122.583473 0 195 0
2022-09-24 02:57:03 GMT 45.581348 -122.583481 0 195 0
2022-09-24 02:56:58 GMT 45.581348 -122.583473 0 195 0
2022-09-24 02:56:53 GMT 45.581360 -122.583473 0 195 0
2022-09-24 02:56:50 GMT 45.581371 -122.583473 0 195 0
2022-09-24 02:56:48 GMT 45.581371 -122.583481 0 195 0
2022-09-24 02:56:47 GMT 45.581360 -122.583481 0 195 0
2022-09-24 02:56:45 GMT 45.581348 -122.583473 0 195 0
2022-09-24 02:56:43 GMT 45.581348 -122.583473 0 195 0
2022-09-24 02:56:40 GMT 45.581379 -122.583473 0 195 0
2022-09-24 02:56:38 GMT 45.581379 -122.583458 0 195 0
2022-09-24 02:56:35 GMT 45.581371 -122.583458 0 195 0
2022-09-24 02:56:30 GMT 45.581348 -122.583481 0 195 0
2022-09-24 02:56:26 GMT 45.581348 -122.583481 0 195 0
2022-09-24 02:56:25 GMT 45.581341 -122.583473 0 195 0
2022-09-24 02:56:22 GMT 45.581348 -122.583473 0 195 0
2022-09-24 02:56:18 GMT 45.581371 -122.583481 0 195 0
2022-09-24 02:56:11 GMT 45.581360 -122.583473 0 195 0
2022-09-24 02:56:08 GMT 45.581360 -122.583481 0 195 0
2022-09-24 02:56:07 GMT 45.581371 -122.583481 0 195 0
2022-09-24 02:56:00 GMT 45.581371 -122.583473 0 195 0
2022-09-24 02:55:59 GMT 45.581360 -122.583473 0 195 0
2022-09-24 02:55:50 GMT 45.581371 -122.583473 0 195 0
2022-09-24 02:55:49 GMT 45.581360 -122.583473 0 195 0
2022-09-24 02:55:48 GMT 45.581371 -122.583481 0 195 0
2022-09-24 02:55:40 GMT 45.581360 -122.583458 0 195 0
2022-09-24 02:55:38 GMT 45.581360 -122.583458 0 195 0

Making use of Plane Finder data

You are free to use the raw flight data, aircraft information and images provided in this report for your own purposes provided the data is correctly attributed to Plane Finder. We ask that you please credit Plane Finder and link to planefinder.net in close proximity to the content.

Optionally one of the following logos (no smaller then 150x24px) can be used and must link to planefinder.net

Embedding the Plane Finder map

You are welcome to embed the Plane Finder playback map on your website to offer visitors a more interactive experience. We suggest using the following HTML code:

<iframe src="//planefinder.net/data/report/BA266-G-ZBJB-7700-squawk-2022-09-24/map" width="800" height="600" seamless="seamless"></iframe>

Where our data comes from

Plane Finder has a global network of data feeds and antenna radars that receive data broadcast directly from aircraft. The primary technologies used are ADS-B and MLAT. We also show feeds from the FAA and a FLARM glider feed.

Click here to find out more about the Plane Finder network.

How we collect our data